[[{"header":{"parameterUnit":"m.s-1","parameterCategory":1,"la1":30.6,"la2":29.2853,"lo1":-89.7004,"lo2":-87.6739,"dy":0.0162,"dx":0.0183,"nx":112,"ny":82,"refTime":"2026-05-07T12:00:00:Z","depth":0,"parameterNumber":2,"parameterNumberName":"U-component_of_WINDS"},"data":[0.0,0.0,0.0,0.0,0.0,0.0,0.0,0.0,0.0,0.0,0.0,0.0,0.0,0.0,0.0,0.0,0.0,0.0,0.0,0.0,0.0,0.0,0.0,0.0,0.0,0.0,0.0,0.0,0.0,0.0,0.0,0.0,0.0,0.0,0.0,0.0,0.0,0.0,0.0,0.0,0.0,0.0,0.0,0.0,0.0,0.0,0.0,0.0,0.0,0.0,0.0,0.0,0.0,0.0,0.0,0.0,0.0,0.0,0.0,0.0,0.0,0.0,0.0,0.0,0.0,0.0,0.0,0.0,0.0,0.0,0.0,0.0,0.0,0.0,0.0,0.0,0.0,0.0,0.0,0.0,0.0,0.0,0.0,0.0,0.0,0.0,0.0,0.0,0.0,0.0,0.0,-2.7846,-3.1532,-3.4082,-3.4766,-3.3295,-3.0467,-2.6079,0.0,0.0,0.0,0.0,0.0,0.0,0.0,0.0,0.0,0.0,0.0,0.0,0.0,0.0,0.0,0.0,0.0,0.0,0.0,0.0,0.0,0.0,0.0,0.0,0.0,0.0,0.0,0.0,0.0,0.0,0.0,0.0,0.0,0.0,0.0,0.0,0.0,0.0,0.0,0.0,0.0,0.0,0.0,0.0,0.0,0.0,0.0,0.0,0.0,0.0,0.0,0.0,0.0,0.0,0.0,0.0,0.0,0.0,0.0,0.0,0.0,0.0,0.0,0.0,0.0,0.0,0.0,0.0,0.0,0.0,0.0,0.0,0.0,0.0,0.0,0.0,0.0,0.0,0.0,0.0,0.0,0.0,0.0,0.0,0.0,0.0,0.0,0.0,0.0,0.0,0.0,0.0,0.0,0.0,0.0,0.0,0.0,0.0,0.0,0.0,0.0,0.0,0.0,0.0,-2.5738,-3.121,-3.2991,-3.3844,-3.3972,-3.2252,-2.9638,-2.6031,0.0,0.0,0.0,0.0,0.0,0.0,0.0,0.0,0.0,0.0,0.0,0.0,0.0,0.0,0.0,0.0,0.0,0.0,0.0,0.0,0.0,0.0,0.0,0.0,0.0,0.0,0.0,0.0,0.0,0.0,0.0,0.0,0.0,0.0,0.0,0.0,0.0,0.0,0.0,0.0,0.0,0.0,0.0,0.0,0.0,0.0,0.0,0.0,0.0,0.0,0.0,0.0,0.0,0.0,0.0,0.0,0.0,0.0,0.0,0.0,0.0,0.0,0.0,0.0,0.0,0.0,0.0,0.0,0.0,0.0,0.0,0.0,0.0,0.0,0.0,0.0,0.0,0.0,0.0,0.0,0.0,0.0,0.0,0.0,0.0,0.0,0.0,0.0,0.0,0.0,0.0,0.0,0.0,0.0,0.0,0.0,0.0,0.0,0.0,0.0,0.0,0.0,0.0,-2.4848,-2.7532,-3.2703,-3.3587,-3.3807,-3.3807,-3.2172,-2.9637,-2.6043,-2.3582,0.0,0.0,0.0,0.0,0.0,0.0,0.0,0.0,0.0,0.0,0.0,0.0,0.0,0.0,0.0,0.0,0.0,0.0,0.0,0.0,0.0,0.0,0.0,0.0,0.0,0.0,0.0,0.0,0.0,0.0,0.0,0.0,0.0,0.0,0.0,0.0,0.0,0.0,0.0,0.0,0.0,0.0,0.0,0.0,0.0,0.0,0.0,0.0,0.0,0.0,0.0,0.0,0.0,0.0,0.0,0.0,0.0,0.0,0.0,0.0,0.0,0.0,0.0,0.0,0.0,0.0,0.0,0.0,0.0,0.0,0.0,0.0,0.0,0.0,0.0,0.0,0.0,0.0,0.0,0.0,0.0,0.0,0.0,0.0,0.0,0.0,0.0,0.0,0.0,0.0,0.0,0.0,0.0,0.0,0.0,0.0,0.0,0.0,0.0,0.0,0.0,0.0,-2.7962,-2.9678,-3.3395,-3.3807,-3.3807,-3.3807,-3.185,-2.9245,-2.6007,-2.2402,0.0,0.0,0.0,0.0,0.0,0.0,0.0,0.0,0.0,0.0,0.0,0.0,0.0,0.0,0.0,0.0,0.0,0.0,0.0,0.0,0.0,0.0,0.0,0.0,0.0,0.0,0.0,0.0,0.0,0.0,0.0,0.0,0.0,0.0,0.0,0.0,0.0,0.0,0.0,0.0,0.0,0.0,0.0,0.0,0.0,0.0,0.0,0.0,0.0,0.0,0.0,0.0,0.0,0.0,0.0,0.0,0.0,0.0,0.0,0.0,0.0,0.0,0.0,0.0,0.0,0.0,0.0,0.0,0.0,0.0,0.0,0.0,0.0,0.0,0.0,0.0,0.0,0.0,0.0,0.0,0.0,0.0,0.0,0.0,0.0,0.0,0.0,0.0,0.0,0.0,0.0,0.0,0.0,0.0,0.0,0.0,0.0,0.0,0.0,0.0,0.0,0.0,-2.8979,-3.1794,-3.3605,-3.3807,-3.3807,-3.3807,-3.0437,-2.7607,-2.5911,-2.0912,0.0,0.0,0.0,0.0,0.0,0.0,0.0,0.0,0.0,0.0,0.0,0.0,0.0,0.0,0.0,0.0,0.0,0.0,0.0,0.0,0.0,0.0,0.0,0.0,0.0,0.0,0.0,0.0,0.0,0.0,0.0,0.0,0.0,0.0,0.0,0.0,0.0,0.0,0.0,0.0,0.0,0.0,0.0,0.0,0.0,0.0,0.0,0.0,0.0,0.0,0.0,0.0,0.0,0.0,0.0,0.0,0.0,0.0,0.0,0.0,0.0,0.0,0.0,0.0,0.0,0.0,0.0,0.0,0.0,0.0,0.0,0.0,0.0,0.0,0.0,0.0,0.0,0.0,0.0,0.0,0.0,0.0,0.0,0.0,0.0,0.0,0.0,0.0,0.0,0.0,0.0,0.0,0.0,0.0,0.0,0.0,0.0,0.0,0.0,0.0,0.0,0.0,-2.8197,-3.0907,0.0,-3.3807,-3.3694,-3.3451,-3.1227,-2.8581,-2.561,0.0,0.0,0.0,0.0,0.0,0.0,0.0,0.0,0.0,0.0,0.0,0.0,0.0,0.0,0.0,0.0,0.0,0.0,0.0,0.0,0.0,0.0,0.0,0.0,0.0,0.0,0.0,0.0,0.0,0.0,0.0,0.0,0.0,0.0,0.0,0.0,0.0,0.0,0.0,0.0,0.0,0.0,0.0,0.0,0.0,0.0,0.0,0.0,0.0,0.0,0.0,0.0,0.0,0.0,0.0,0.0,0.0,0.0,0.0,0.0,0.0,0.0,0.0,0.0,0.0,0.0,0.0,0.0,0.0,0.0,0.0,0.0,0.0,0.0,0.0,0.0,0.0,0.0,0.0,0.0,0.0,0.0,0.0,0.0,0.0,0.0,0.0,0.0,0.0,0.0,0.0,0.0,0.0,0.0,0.0,0.0,0.0,0.0,0.0,0.0,0.0,0.0,-2.5243,-2.8027,-3.0635,0.0,-3.3606,-3.3338,-3.2685,-3.0664,-2.8024,-2.4681,0.0,0.0,0.0,0.0,0.0,0.0,0.0,0.0,0.0,0.0,0.0,0.0,0.0,0.0,0.0,0.0,0.0,0.0,0.0,0.0,0.0,0.0,0.0,0.0,0.0,0.0,0.0,0.0,0.0,0.0,0.0,0.0,0.0,0.0,0.0,0.0,0.0,0.0,0.0,0.0,0.0,0.0,0.0,0.0,0.0,0.0,0.0,0.0,0.0,0.0,0.0,0.0,0.0,0.0,0.0,0.0,0.0,0.0,0.0,0.0,0.0,0.0,0.0,0.0,0.0,0.0,0.0,0.0,0.0,0.0,0.0,0.0,0.0,0.0,0.0,0.0,0.0,0.0,0.0,0.0,0.0,0.0,0.0,0.0,0.0,0.0,0.0,0.0,0.0,0.0,0.0,0.0,0.0,0.0,0.0,0.0,0.0,0.0,0.0,0.0,0.0,0.0,-2.5349,-2.8774,-3.148,-3.3036,-3.3199,-3.2706,-3.1481,-2.8283,-2.5331,0.0,0.0,0.0,0.0,0.0,0.0,0.0,0.0,0.0,0.0,0.0,0.0,0.0,0.0,0.0,0.0,0.0,0.0,0.0,0.0,0.0,0.0,0.0,0.0,0.0,0.0,0.0,0.0,0.0,0.0,0.0,0.0,0.0,0.0,0.0,0.0,0.0,0.0,0.0,0.0,0.0,0.0,0.0,0.0,0.0,0.0,0.0,0.0,0.0,0.0,0.0,0.0,0.0,0.0,0.0,0.0,0.0,0.0,0.0,0.0,0.0,0.0,0.0,0.0,0.0,0.0,0.0,0.0,0.0,0.0,0.0,0.0,0.0,0.0,0.0,0.0,0.0,0.0,0.0,0.0,0.0,0.0,0.0,0.0,0.0,0.0,0.0,0.0,0.0,0.0,0.0,0.0,0.0,0.0,0.0,0.0,0.0,0.0,0.0,0.0,0.0,0.0,0.0,-2.4971,-2.833,-3.1003,-3.2537,-3.2697,-3.2231,-3.1008,-2.9043,-2.632,-2.2699,0.0,0.0,0.0,0.0,0.0,0.0,0.0,0.0,0.0,0.0,0.0,0.0,0.0,0.0,0.0,0.0,0.0,0.0,0.0,0.0,0.0,0.0,0.0,0.0,0.0,0.0,0.0,0.0,0.0,0.0,0.0,0.0,0.0,0.0,0.0,0.0,0.0,0.0,0.0,0.0,0.0,0.0,0.0,0.0,0.0,0.0,0.0,0.0,0.0,0.0,0.0,0.0,0.0,0.0,0.0,0.0,0.0,0.0,0.0,0.0,0.0,0.0,0.0,0.0,0.0,0.0,0.0,0.0,0.0,0.0,0.0,0.0,0.0,0.0,0.0,0.0,0.0,0.0,0.0,0.0,0.0,0.0,0.0,0.0,0.0,0.0,0.0,0.0,0.0,0.0,0.0,0.0,0.0,0.0,0.0,0.0,0.0,0.0,0.0,0.0,0.0,0.0,-2.4787,-2.7992,-3.0527,-3.2055,-3.2213,-3.162,-3.0143,-2.8922,-2.6404,-2.2121,0.0,0.0,0.0,0.0,0.0,0.0,0.0,0.0,0.0,0.0,0.0,0.0,0.0,0.0,0.0,0.0,0.0,0.0,0.0,0.0,0.0,0.0,0.0,0.0,0.0,0.0,0.0,0.0,0.0,0.0,0.0,0.0,0.0,0.0,0.0,0.0,0.0,0.0,0.0,0.0,0.0,0.0,0.0,0.0,0.0,0.0,0.0,0.0,0.0,0.0,0.0,0.0,0.0,0.0,0.0,0.0,0.0,0.0,0.0,0.0,0.0,0.0,0.0,0.0,0.0,0.0,0.0,0.0,0.0,0.0,0.0,0.0,0.0,0.0,0.0,0.0,0.0,0.0,0.0,0.0,0.0,0.0,0.0,0.0,0.0,0.0,0.0,0.0,0.0,0.0,0.0,0.0,0.0,0.0,0.0,0.0,0.0,0.0,0.0,0.0,0.0,0.0,-2.4691,-2.7716,-3.011,-3.1597,-3.1734,-3.1002,-2.9148,-2.8264,-2.5931,-2.158,0.0,0.0,0.0,0.0,0.0,0.0,0.0,0.0,0.0,0.0,0.0,0.0,0.0,0.0,0.0,0.0,0.0,0.0,0.0,0.0,0.0,0.0,0.0,0.0,0.0,0.0,0.0,0.0,0.0,0.0,0.0,0.0,0.0,0.0,0.0,0.0,0.0,0.0,0.0,0.0,0.0,0.0,0.0,0.0,0.0,0.0,0.0,0.0,0.0,0.0,0.0,0.0,0.0,0.0,0.0,0.0,0.0,0.0,0.0,0.0,-2.5862,0.0,0.0,0.0,0.0,0.0,0.0,0.0,0.0,0.0,0.0,0.0,0.0,0.0,0.0,0.0,0.0,0.0,0.0,0.0,0.0,0.0,0.0,0.0,0.0,0.0,0.0,0.0,0.0,0.0,0.0,0.0,0.0,0.0,0.0,0.0,0.0,0.0,0.0,0.0,0.0,0.0,-2.4251,-2.7266,-2.9682,-3.1179,-3.1332,-3.0715,-2.9128,-2.8264,-2.6167,-2.231,-1.9925,0.0,0.0,0.0,0.0,0.0,0.0,0.0,0.0,0.0,0.0,0.0,0.0,0.0,0.0,0.0,0.0,0.0,0.0,0.0,0.0,0.0,0.0,0.0,0.0,0.0,0.0,0.0,0.0,0.0,0.0,0.0,0.0,0.0,0.0,0.0,0.0,0.0,0.0,0.0,0.0,0.0,0.0,0.0,0.0,0.0,0.0,0.0,0.0,0.0,0.0,0.0,0.0,0.0,0.0,0.0,0.0,0.0,0.0,0.0,0.0,-2.7588,0.0,0.0,0.0,0.0,0.0,0.0,0.0,0.0,0.0,0.0,0.0,0.0,0.0,0.0,0.0,0.0,0.0,0.0,0.0,0.0,0.0,0.0,0.0,0.0,0.0,0.0,0.0,0.0,0.0,0.0,0.0,0.0,0.0,0.0,0.0,0.0,0.0,0.0,0.0,0.0,-2.4594,-2.7351,-2.9568,-3.1038,-3.119,-3.0598,-2.9128,-2.8619,-2.6945,-2.3562,-2.1583,0.0,0.0,0.0,0.0,0.0,0.0,0.0,0.0,0.0,0.0,0.0,0.0,0.0,0.0,0.0,0.0,0.0,0.0,0.0,0.0,0.0,0.0,0.0,0.0,0.0,0.0,0.0,0.0,0.0,0.0,0.0,0.0,0.0,0.0,0.0,0.0,0.0,0.0,0.0,0.0,0.0,0.0,0.0,0.0,0.0,0.0,0.0,0.0,0.0,0.0,0.0,0.0,0.0,-4.4615,-4.2871,-3.9648,-3.9377,-3.7922,-3.5526,-3.3867,-3.2391,-3.1089,0.0,0.0,0.0,0.0,0.0,0.0,0.0,0.0,0.0,0.0,0.0,0.0,0.0,0.0,0.0,0.0,0.0,0.0,0.0,0.0,0.0,0.0,0.0,0.0,0.0,-3.0702,-3.0362,0.0,0.0,0.0,0.0,0.0,0.0,0.0,0.0,0.0,0.0,0.0,0.0,-2.5338,-2.7774,-2.9721,-3.1055,-3.1072,-3.0446,-2.9111,-2.8874,-2.7622,-2.4863,-2.3308,-2.1248,0.0,0.0,0.0,0.0,0.0,0.0,0.0,0.0,0.0,0.0,0.0,0.0,0.0,0.0,0.0,0.0,0.0,0.0,0.0,0.0,0.0,0.0,0.0,0.0,0.0,0.0,0.0,0.0,0.0,0.0,0.0,0.0,-2.3644,-2.5321,0.0,0.0,0.0,0.0,0.0,0.0,0.0,0.0,0.0,0.0,0.0,0.0,0.0,-3.5504,-3.7743,-3.8149,-4.0451,-4.4615,-4.4615,-4.4327,-4.3768,-4.2405,-4.1593,-4.1204,-4.0933,0.0,-3.1376,-3.3639,0.0,0.0,0.0,0.0,0.0,0.0,0.0,0.0,0.0,0.0,0.0,0.0,0.0,0.0,0.0,0.0,0.0,0.0,0.0,0.0,0.0,0.0,-3.3474,-3.2949,-3.2983,-3.2747,0.0,-2.857,-2.5389,-2.2429,0.0,0.0,0.0,0.0,0.0,0.0,0.0,0.0,-2.6167,-2.8552,-3.0277,-3.1106,-3.0632,-2.9905,-2.9077,-2.8366,-2.7232,-2.5558,-2.4069,-2.2496,-2.0818,-1.8042,0.0,0.0,0.0,0.0,0.0,0.0,0.0,0.0,0.0,0.0,0.0,0.0,0.0,0.0,0.0,0.0,0.0,0.0,0.0,0.0,0.0,0.0,0.0,0.0,0.0,0.0,0.0,0.0,0.0,-2.3274,-2.637,-2.6657,-2.6319,-2.5067,0.0,0.0,0.0,0.0,0.0,0.0,0.0,0.0,0.0,-3.622,-3.9089,-4.1288,-4.2618,-4.2634,-4.4141,-4.7056,-4.7056,-4.6633,-4.5805,-4.5128,-4.4395,-4.3599,-4.3599,-4.1754,-3.8708,-3.8294,-3.5588,-3.1343,0.0,0.0,0.0,0.0,-2.4629,-2.8229,-3.1258,-3.5729,0.0,0.0,0.0,0.0,0.0,0.0,0.0,0.0,0.0,0.0,0.0,0.0,0.0,-3.5808,-3.5605,-3.5098,-3.432,-3.2544,-2.9956,0.0,-2.539,-2.4274,-2.0788,0.0,0.0,0.0,0.0,-2.4626,-2.7622,-2.9228,-3.0378,-3.1123,-3.0548,-2.9803,-2.9061,-2.8264,-2.735,-2.6285,-2.522,-2.3968,-2.251,-2.0378,-1.8127,0.0,0.0,0.0,0.0,0.0,0.0,0.0,0.0,0.0,0.0,0.0,0.0,0.0,0.0,0.0,0.0,0.0,0.0,0.0,0.0,0.0,0.0,0.0,0.0,0.0,0.0,0.0,0.0,-2.5473,-2.8264,-2.7892,-2.9094,-2.867,0.0,0.0,0.0,0.0,0.0,0.0,-4.3413,-4.5106,-4.4005,-4.0231,-4.3041,-4.497,-4.5732,-4.572,-4.6819,-4.9001,-4.9001,-4.8426,-4.7361,-4.7361,-4.6752,-4.572,-4.572,-4.5309,-4.4429,-4.2178,-3.9918,-3.7584,-3.429,-3.0482,-2.686,-2.686,-3.1546,-3.8227,-4.0485,-4.1264,-4.0756,-3.7736,0.0,-3.8667,-3.7212,0.0,0.0,0.0,0.0,-3.3072,-3.4878,-3.5791,-3.6479,-3.7635,-3.7483,-3.688,-3.6079,-3.5318,-3.3626,0.0,-2.8804,-2.7486,-2.3831,0.0,0.0,0.0,0.0,-2.6302,-2.8942,-2.9922,-3.0598,-3.114,-3.0362,-2.96,-2.9044,-2.8095,-2.7266,-2.6725,-2.6015,-2.5033,-2.3731,-2.2274,-2.0242,-1.7602,0.0,0.0,0.0,0.0,0.0,0.0,0.0,0.0,0.0,0.0,0.0,0.0,0.0,0.0,0.0,0.0,0.0,0.0,0.0,0.0,0.0,0.0,0.0,0.0,0.0,0.0,0.0,0.0,0.0,-3.0801,-3.1884,0.0,0.0,0.0,0.0,-3.4721,-3.7669,-4.0146,-4.2286,-4.6464,-4.6109,-4.0282,-4.3041,-4.5969,-4.8748,-4.8781,-4.8849,-4.9001,-4.9001,-4.8968,-4.8883,-4.8883,-4.8849,-4.8781,-4.8781,-4.7192,-4.4598,-4.4445,-4.4293,-4.4141,-4.3904,-4.1941,-3.9199,-3.9199,-4.1314,-4.4175,-4.4327,-4.4378,-4.3887,-4.0857,-3.8041,-3.6326,-3.9039,-3.8684,0.0,0.0,-3.7347,-3.6711,-3.7516,-3.777,-3.7804,-3.7889,-3.7872,-3.7652,-3.6914,-3.6113,-3.4878,0.0,-3.1495,-3.0497,-2.8891,0.0,-2.6725,-2.7418,-2.7587,-2.8213,-2.9835,-3.0683,-3.1157,-3.119,-2.9924,-2.9044,-2.8993,-2.7622,-2.6742,-2.6691,-2.6015,-2.5253,-2.4474,-2.3021,-2.1485,-1.9866,-1.7693,0.0,0.0,0.0,0.0,0.0,0.0,0.0,0.0,0.0,0.0,0.0,0.0,0.0,0.0,0.0,0.0,0.0,0.0,0.0,0.0,0.0,0.0,0.0,0.0,0.0,0.0,0.0,0.0,-3.3914,-3.5639,0.0,-3.5842,-3.2899,-3.3085,-3.8108,-4.1297,-4.365,-4.5111,-4.6397,-4.6261,-4.4479,-4.5432,-4.6972,-4.8984,-4.9001,-4.9001,-4.9001,-4.9001,-4.9001,-4.9001,-4.9001,-4.9001,-4.9001,-4.9001,-4.8409,-4.7428,-4.7428,-4.6295,-4.4615,-4.4615,-4.3955,-4.3007,-4.3007,-4.3684,-4.4615,-4.4615,-4.4615,-4.4429,-4.3362,-4.0959,-3.8684,-3.9774,-3.9276,-3.843,-3.8768,-3.8548,-3.8403,-3.9106,-3.9334,-3.9334,-3.9334,-3.8937,-3.8413,-3.7669,-3.6907,-3.5994,-3.4675,-3.344,-3.2002,-3.004,-2.9651,-2.9364,-2.867,-2.8991,-2.9651,-3.0683,-3.1038,-3.119,-3.119,-2.989,-2.8993,-2.8993,-2.7588,-2.6488,-2.6031,-2.5761,-2.5067,-2.3848,-2.3291,-2.231,-2.0788,-1.9486,-1.7642,0.0,0.0,0.0,0.0,0.0,0.0,0.0,0.0,0.0,0.0,0.0,0.0,0.0,0.0,0.0,0.0,0.0,0.0,0.0,0.0,0.0,0.0,0.0,0.0,0.0,0.0,-3.5351,-3.5566,-3.8278,-3.9478,-3.7889,-3.7094,-3.7838,-4.0637,-4.3193,-4.5038,-4.602,-4.6667,-4.6735,-4.6087,-4.7005,-4.8003,-4.8984,-4.9001,-4.9001,-4.9001,-4.9001,-4.9001,-4.9001,-4.9001,-4.9001,-4.9001,-4.9001,-4.9001,-4.8968,-4.8629,-4.7242,-4.5309,-4.4801,-4.4615,-4.4615,-4.4615,-4.4615,-4.4615,-4.4615,-4.4615,-4.4615,-4.4615,-4.3261,-4.1551,-4.123,-4.0409,-3.9631,-3.9715,-3.9546,-3.9486,-3.9977,-4.0096,-4.0096,-4.0096,-3.974,-3.9089,-3.8125,-3.7516,-3.6857,-3.5802,-3.4602,-3.3305,-3.185,-3.1579,-3.1244,-3.0262,-3.0311,-3.0649,-3.114,-3.119,-3.119,-3.119,-3.0091,-2.9281,-2.9027,-2.7588,-2.6488,-2.5998,-2.5507,-2.478,-2.3799,-2.3291,-2.2446,-2.1207,-2.0179,-1.8544,-1.6339,0.0,0.0,0.0,0.0,0.0,0.0,0.0,0.0,0.0,0.0,0.0,0.0,0.0,0.0,0.0,0.0,0.0,0.0,0.0,0.0,0.0,0.0,0.0,-3.0277,-3.4117,-3.6637,-3.5921,-3.9715,-4.1525,-3.9411,-4.1627,-4.2963,-4.2405,-4.3819,-4.4699,-4.4733,-4.7394,-4.7631,-4.4835,-4.7513,-4.9001,-4.9001,-4.9001,-4.9001,-4.9001,-4.9001,-4.9001,-4.9001,-4.9001,-4.9001,-4.9001,-4.9001,-4.9001,-4.8917,-4.7936,-4.7276,-4.6718,-4.5224,-4.4632,-4.4615,-4.4615,-4.4615,-4.4615,-4.4615,-4.4615,-4.4615,-4.4615,-4.4581,-4.4378,-4.3403,-4.2405,-4.1542,-4.1255,-4.0646,-4.0096,-4.0096,-4.0096,-4.0096,-4.0096,-4.0096,-3.9706,-3.8261,-3.7922,-3.7442,-3.5921,-3.5047,-3.4523,-3.4489,-3.3326,-3.2344,-3.231,-3.1701,0.0,-3.119,-3.119,-3.119,-3.119,-3.0531,-2.9786,-2.9061,-2.7588,-2.6674,-2.6623,-2.5286,-2.4491,-2.4457,-2.3088,-2.2006,-2.1275,-1.9735,-1.8572,-1.7834,0.0,0.0,0.0,0.0,0.0,0.0,0.0,0.0,0.0,0.0,0.0,0.0,0.0,0.0,0.0,0.0,0.0,0.0,0.0,0.0,0.0,-3.1393,-3.4218,-3.4861,-3.7405,-3.9698,-4.1076,-4.2861,-4.3927,-4.3876,-4.4688,-4.4857,-4.4039,-4.5331,-4.665,-4.7733,-4.7547,-4.7513,-4.7784,-4.8578,-4.9001,-4.9001,-4.9001,-4.9001,-4.9001,-4.9001,-4.9001,-4.9001,-4.9001,-4.9001,-4.9001,-4.9001,-4.9001,-4.8984,-4.8697,-4.8511,-4.8206,-4.6177,-4.506,-4.4615,-4.4615,-4.4615,-4.4615,-4.4615,-4.4615,-4.4615,-4.4615,-4.4096,-4.3453,-4.3183,-4.2405,-4.1424,-4.0612,-4.0265,-4.0096,-4.0096,-4.0096,-4.0096,-4.0096,-4.0096,-3.9842,-3.8903,-3.8278,-3.7618,-3.6654,-3.5842,-3.5131,-3.459,-3.415,-3.3546,-3.2462,-3.2141,0.0,-3.1258,-3.119,-3.119,-3.119,-3.0057,-2.923,-2.9027,-2.7588,-2.6251,-2.5168,-2.4711,-2.4254,-2.3714,-2.3308,-2.3004,-2.2801,-2.0771,-1.9338,0.0,0.0,0.0,0.0,0.0,0.0,0.0,0.0,0.0,0.0,0.0,0.0,0.0,0.0,0.0,0.0,0.0,0.0,0.0,0.0,0.0,0.0,-3.5554,-3.8447,-3.9428,-4.0663,-4.1965,-4.324,-4.4384,-4.5229,-4.5669,-4.5889,-4.5872,-4.5563,-4.6312,-4.7428,-4.8917,-4.8189,-4.8105,-4.8968,-4.9001,-4.9001,-4.9001,-4.9001,-4.9001,-4.9001,-4.9001,-4.9001,-4.9001,-4.9001,-4.9001,0.0,-4.9001,-4.9001,-4.9001,-4.9001,-4.8832,0.0,0.0,0.0,0.0,0.0,-4.4615,-4.4615,-4.4615,-4.4615,-4.4615,-4.4615,-4.4181,-4.3724,-4.3724,-4.3031,-4.2185,-4.2042,-4.1077,-4.0096,-4.0096,-4.0096,-4.0096,-4.0096,-4.0096,-3.991,-3.9157,-3.8413,-3.7686,-3.6948,0.0,0.0,-3.503,-3.4692,-3.4201,-3.3359,-3.2699,-3.2158,-3.1718,-3.1396,-3.119,-3.119,-3.0429,-2.9805,-2.9482,-2.8044,0.0,0.0,0.0,-2.4169,-2.3427,-2.3393,0.0,0.0,0.0,0.0,0.0,0.0,0.0,0.0,-1.8454,-1.8775,0.0,0.0,0.0,0.0,0.0,0.0,0.0,0.0,0.0,0.0,0.0,0.0,0.0,0.0,0.0,0.0,-3.9732,-4.2269,-4.324,-4.3477,-4.3527,-4.3527,-4.4823,-4.5737,-4.5821,-4.6075,-4.6464,-4.7005,-4.7039,-4.7614,-4.8934,0.0,0.0,0.0,0.0,-4.9001,-4.9001,-4.9001,-4.9001,-4.9001,-4.9001,-4.9001,-4.9001,-4.9001,-4.9001,-4.9001,-4.9001,-4.9001,-4.9001,-4.9001,-4.8528,-4.7686,-4.6955,-4.6329,-4.5754,-4.4891,-4.4615,-4.4615,-4.4615,0.0,0.0,-4.4615,-4.4615,-4.4615,-4.4615,-4.3978,-4.3403,-4.409,-4.233,-4.0248,-4.013,-4.0096,-4.0096,-4.0096,-4.0096,-3.991,-3.9157,-3.8413,-3.7686,-3.6948,-3.6146,-3.56,-3.56,-3.5064,-3.459,-3.4506,-3.3393,-3.2496,-3.2327,-3.1735,-3.1275,-3.1207,0.0,0.0,-3.0176,-2.877,-2.7858,-2.7689,-2.5761,-2.4338,-2.368,-2.3646,-2.3646,-2.3646,-2.3577,-2.3848,-2.4491,-2.4491,-2.4592,-2.466,-2.1156,-2.0619,0.0,0.0,0.0,0.0,0.0,0.0,0.0,0.0,0.0,0.0,0.0,0.0,0.0,0.0,0.0,-3.7313,-4.1238,-4.3859,-4.3443,-4.3961,-4.4378,-4.4378,-4.5162,-4.594,-4.6532,-4.7175,-4.7834,-4.8528,-4.8578,-4.8697,-4.8984,-4.9001,-4.9001,-4.9001,-4.9001,-4.9001,-4.9001,-4.9001,-4.9001,-4.9001,0.0,0.0,-4.9001,-4.9001,-4.9001,-4.9001,-4.9001,-4.9001,-4.9001,-4.9001,-4.8206,-4.6938,-4.621,-4.5483,-4.4869,-4.4682,-4.4615,-4.4615,-4.4615,-4.4615,-4.4615,-4.4615,-4.4615,-4.4615,-4.4615,-4.4479,0.0,-4.2574,-4.1745,-4.1128,-4.0316,-4.0096,-4.0096,-4.0096,-4.0096,-3.991,-3.9157,-3.8413,-3.7686,-3.6948,-3.6146,-3.56,-3.56,-3.5481,-3.5199,-3.459,-3.4252,-3.3647,-3.2446,-3.2175,-3.187,-3.1258,-3.0666,-3.026,-3.0106,-2.9279,-2.8248,-2.6996,-2.5947,-2.5321,-2.5186,-2.5186,-2.5186,-2.5186,-2.4577,-2.4355,-2.4491,-2.4491,-2.5117,-2.6234,-2.4305,-2.3644,0.0,0.0,0.0,0.0,0.0,0.0,0.0,0.0,0.0,0.0,0.0,-3.1897,-3.4136,0.0,-3.8456,-4.0333,-4.254,-4.3995,-4.3995,-4.4361,-4.4615,-4.4615,-4.5246,-4.5838,-4.621,-4.7581,-4.8612,-4.8968,-4.9001,-4.9001,-4.9001,-4.9001,-4.9001,-4.9001,-4.9001,-4.9001,-4.9001,-4.9001,-4.9001,-4.9001,-4.9001,-4.9001,-4.9001,-4.9001,-4.9001,-4.9001,-4.9001,-4.9001,-4.9001,-4.9001,-4.8139,-4.6752,-4.6397,-4.5568,-4.4615,-4.4615,-4.4615,-4.4615,-4.4615,-4.4615,-4.4615,-4.4615,-4.4615,-4.4615,-4.4615,-4.4615,-4.4242,-4.2439,-4.1779,-4.1356,-4.0367,-4.0096,-4.0096,-4.0096,-4.0096,-3.9994,-3.9639,-3.8684,-3.7787,-3.7415,-3.6417,-3.56,-3.56,-3.56,-3.5464,-3.5115,-3.4742,-3.4218,-3.3512,-3.2767,-3.2158,-3.1802,-3.1089,-3.0649,-3.0649,-2.9973,-2.9059,-2.7927,-2.752,-2.73,-2.73,-2.6911,-2.6691,-2.6691,-2.5981,-2.5778,-2.615,-2.615,-2.6742,-2.7842,-2.7097,-2.6742,0.0,0.0,0.0,0.0,0.0,0.0,0.0,-2.6099,-2.7908,-3.131,-3.3558,-3.5841,-3.8873,-4.0155,-4.1313,-4.3105,-4.3511,-4.3859,-4.4513,-4.4615,-4.4615,-4.4615,-4.5246,-4.5703,-4.5703,-4.7445,-4.8629,-4.8781,-4.8798,-4.8849,-4.9001,-4.9001,-4.9001,-4.9001,-4.9001,-4.9001,-4.9001,-4.9001,-4.9001,-4.9001,-4.9001,-4.9001,-4.9001,-4.9001,-4.9001,-4.9001,-4.9001,-4.9001,-4.9001,-4.9001,-4.8139,-4.6786,-4.6786,-4.5889,-4.4615,-4.4615,-4.4615,-4.4615,-4.4615,-4.4615,-4.4615,-4.4615,-4.4615,-4.4615,-4.4615,-4.4615,-4.4293,-4.2726,-4.2016,-4.1474,-4.0383,-4.0096,-4.0096,-4.0096,-4.0096,-4.0062,-3.9926,-3.8836,-3.7872,-3.7719,-3.6569,-3.56,-3.56,-3.56,-3.56,-3.56,-3.5098,-3.4607,-3.432,-3.3258,-3.2412,-3.2124,-3.1565,-3.119,-3.119,-3.0531,-2.9854,-2.9264,-2.9077,-2.8993,-2.8993,-2.8383,-2.8027,-2.8027,-2.7452,-2.7435,-2.8027,-2.8027,-2.845,-2.9213,-2.9213,-2.9145,-2.3938,-2.3042,-2.3531,-2.6276,-2.6138,-2.6916,0.0,-3.3448,-3.3636,-3.6426,-3.877,-4.0442,-4.0874,-4.21,-4.3105,-4.3358,-4.3995,-4.4513,-4.4598,-4.4615,-4.4615,-4.4615,-4.5246,-4.5703,-4.5703,-4.6515,-4.7327,-4.7956,-4.8007,-4.8325,-4.8968,-4.9001,-4.9001,-4.9001,-4.9001,-4.9001,-4.9001,-4.9001,-4.9001,-4.9001,-4.9001,-4.9001,-4.9001,-4.9001,-4.9001,-4.9001,-4.9001,-4.9001,-4.9001,-4.9001,-4.8139,-4.6786,-4.6786,-4.5889,-4.4615,-4.4615,-4.4615,-4.4615,-4.4615,-4.4615,-4.4615,-4.4615,-4.4615,-4.4615,-4.4615,-4.4615,-4.4293,-4.2726,-4.2252,-4.188,-4.0468,-4.0096,-4.0096,-4.0096,-4.0096,-3.9926,-3.9242,-3.8481,-3.7719,-3.7066,-3.6214,-3.56,-3.56,-3.56,-3.56,-3.56,-3.5532,-3.4991,-3.3694,-3.3389,-3.278,-3.1461,-3.1241,-3.119,-3.119,-3.0531,-3.0055,-2.9989,-2.9347,-2.8993,-2.8993,-2.8908,-2.8874,-2.8874,-2.879,-2.879,-2.8874,-2.8874,-2.9245,-2.9989,-2.9989,-2.9634,-2.9582,-2.9178,-2.9183,-3.0253,-3.0976,-3.1924,-3.3907,-3.4953,-3.6223,-3.859,-4.0553,-4.2111,-4.3027,-4.3673,-4.4096,0.0,-4.4395,-4.4615,-4.4615,-4.4615,-4.4445,-4.3961,-4.4587,-4.5043,-4.5043,-4.572,-4.6464,-4.7208,-4.7682,-4.821,-4.8968,-4.9001,-4.9001,-4.9001,-4.9001,-4.9001,-4.9001,-4.9001,-4.9001,-4.9001,-4.9001,-4.9001,-4.9001,-4.9001,-4.9001,-4.9001,-4.9001,-4.9001,-4.9001,-4.9001,-4.8139,-4.6786,-4.6786,-4.5889,-4.4615,-4.4615,-4.4615,-4.4615,-4.4615,-4.4615,-4.4615,-4.4615,-4.4615,-4.4615,-4.4615,-4.4615,-4.4378,-4.325,-4.2625,-4.2049,-4.1001,-4.0434,-4.0096,-4.0096,-4.0096,-4.0028,-3.9723,-3.9056,-3.8311,-3.7584,-3.6823,-3.6146,-3.5667,-3.56,-3.56,-3.56,-3.56,-3.5211,-3.4167,-3.3677,-3.2831,-3.136,-3.119,-3.119,-3.119,-3.092,-3.0734,-3.0734,-3.0446,-3.0296,-3.0296,-2.9871,-2.9634,-2.9634,-2.923,-2.9213,-2.9634,-2.9634,-3.0023,-3.0734,-3.0734,-3.0565,-3.2595,-3.2619,-3.266,-3.334,-3.4982,-3.6257,-3.5692,-3.6999,-3.8796,-4.054,-4.1822,-4.2934,-4.4063,-4.4265,-4.4265,-4.4265,-4.4479,-4.4615,-4.4615,-4.4429,-4.413,-4.3775,-4.4045,-4.435,-4.4581,-4.5077,-4.5788,-4.6718,-4.7293,-4.802,-4.8951,-4.9001,-4.9001,-4.9001,-4.9001,-4.9001,-4.9001,-4.9001,-4.9001,-4.9001,-4.9001,-4.9001,-4.9001,-4.9001,-4.9001,-4.9001,-4.9001,-4.9001,-4.9001,-4.9001,-4.8139,-4.6786,-4.6786,-4.5889,-4.4615,-4.4615,-4.4615,-4.4615,-4.4615,-4.4615,-4.4615,-4.4615,-4.4615,-4.4615,-4.4615,-4.4615,-4.4418,-4.3639,-4.2878,-4.2117,-4.139,-4.0646,-4.0096,-4.0096,-4.0096,-4.0096,-4.0096,-3.9343,-3.8531,-3.8007,-3.7127,-3.6282,-3.5701,-3.56,-3.56,-3.56,-3.56,-3.5329,-3.459,-3.3677,-3.2611,-3.1326,-3.119,-3.119,-3.119,-3.119,-3.119,-3.119,-3.119,-3.119,-3.119,-3.0683,-3.0412,-3.0412,-2.9871,-2.9871,-3.0412,-3.0412,-3.0683,-3.119,-3.119,-3.119,-3.0674,-3.0348,-3.1108,-3.4861,-3.7128,-3.8825,-4.0401,-4.1474,-4.2331,-4.3045,-4.3297,-4.3392,-4.3426,-4.3426,-4.3426,-4.3426,-4.4079,-4.4615,-4.4615,-4.3927,-4.3724,-4.4479,-4.391,-4.3741,0.0,-4.4632,-4.5258,-4.6684,-4.6802,-4.7462,-4.8917,-4.9001,-4.9001,-4.9001,-4.9001,-4.9001,-4.9001,-4.9001,-4.9001,-4.9001,-4.9001,-4.9001,-4.9001,-4.9001,-4.9001,-4.9001,-4.9001,-4.9001,-4.9001,-4.9001,-4.8139,-4.6786,-4.6786,-4.5889,-4.4615,-4.4615,-4.4615,-4.4615,-4.4615,-4.4615,-4.4615,-4.4615,-4.4615,-4.4615,-4.4615,-4.4615,-4.4418,-4.3639,-4.2878,-4.2117,-4.139,-4.0646,-4.0096,-4.0096,-4.0096,-4.0096,-4.0096,-3.8954,-3.7939,-3.7905,-3.6664,-3.5616,-3.56,-3.56,-3.56,-3.56,-3.56,-3.5329,-3.459,-3.3241,-3.2039,-3.1275,-3.119,-3.119,-3.119,-3.119,-3.119,-3.119,-3.119,-3.119,-3.119,-3.1173,-3.1157,-3.1157,-3.114,-3.114,-3.1157,-3.1157,-3.1173,-3.119,-3.119,-3.119,-3.4169,-3.5308,-3.6547,-3.8728,-4.0131,-4.1079,-4.1548,-4.2349,-4.2891,-4.2631,-4.2623,-4.2523,-4.2033,-4.1948,-4.21,-4.2591,-4.3318,-4.3995,-4.453,-4.4378,-4.4096,-4.3842,-4.4045,0.0,0.0,0.0,0.0,-4.6007,-4.6515,-4.7225,-4.824,-4.8731,-4.9001,-4.9001,-4.9001,-4.9001,-4.9001,-4.9001,-4.9001,-4.9001,-4.9001,-4.9001,-4.9001,-4.9001,-4.9001,-4.9001,-4.9001,-4.9001,-4.9001,-4.9001,-4.8139,-4.6786,-4.6786,-4.5889,-4.4615,-4.4615,-4.4615,-4.4615,-4.4615,-4.4615,-4.4615,-4.4615,-4.4615,-4.4615,-4.4615,-4.4615,-4.4547,-4.4265,-4.3267,-4.2236,-4.1982,-4.1027,-4.0096,-4.0096,-4.0096,-4.0096,-4.0096,-3.9723,-3.9056,-3.8091,-3.7483,-3.6783,-3.5769,-3.56,-3.56,-3.56,-3.5182,-3.4776,-3.4523,-3.3224,-3.2209,-3.1955,-3.1478,-3.119,-3.119,-3.119,-3.119,-3.119,-3.119,-3.119,-3.119,-3.119,-3.119,-3.119,-3.119,-3.119,-3.119,-3.119,-3.119,-3.119,-3.119,-3.119,-3.6846,-3.8488,-3.98,-4.1444,-4.2475,-4.2958,-4.2589,-4.2924,-4.2991,-4.171,-4.1047,-4.0493,-3.9749,-3.9394,-3.9715,-4.1271,-4.2134,-4.3081,-4.4429,-4.4333,-4.4079,-4.3859,-4.4028,-4.4079,0.0,0.0,0.0,-4.5652,-4.638,-4.7124,-4.7838,-4.8612,-4.9001,-4.9001,-4.9001,-4.9001,-4.9001,-4.9001,-4.9001,-4.9001,-4.9001,-4.9001,-4.9001,-4.9001,-4.9001,-4.9001,-4.9001,-4.9001,-4.9001,-4.9001,-4.8291,-4.7175,-4.6904,-4.6058,-4.4942,-4.4699,-4.4615,-4.4615,-4.4615,-4.4615,-4.4615,-4.4615,-4.4615,-4.4615,-4.4615,-4.4615,-4.4615,-4.4615,-4.3673,-4.2692,-4.2692,-4.1593,-4.0476,-4.0476,-4.0299,-4.0096,-4.0096,-3.9893,-3.9436,-3.8481,-3.7872,-3.7195,-3.6197,-3.5785,-3.56,-3.56,-3.5199,-3.4793,-3.4523,-3.3681,-3.2886,-3.2361,-3.1887,-3.1478,-3.1207,-3.119,-3.119,-3.119,-3.119,-3.119,-3.119,-3.119,-3.119,-3.119,-3.119,-3.119,-3.119,-3.119,-3.119,-3.119,-3.119,-3.1326,-3.8481,-3.969,-4.079,-4.2946,-4.3995,-4.4333,-4.3561,-4.3308,-4.2625,-4.0451,-3.8751,-3.7432,0.0,0.0,-3.6479,-3.9386,-4.0637,-4.2016,-4.4242,-4.3927,-4.3741,0.0,0.0,0.0,0.0,0.0,0.0,-4.5703,0.0,-4.7124,-4.7838,-4.8612,-4.9001,-4.9001,-4.9001,-4.9001,-4.9001,-4.9001,-4.9001,-4.9001,-4.9001,-4.9001,-4.9001,-4.9001,-4.9001,-4.9001,-4.9001,-4.9001,-4.9001,-4.9001,-4.8578,-4.7821,-4.7124,-4.638,-4.5618,-4.4891,-4.4632,-4.4615,-4.4615,-4.4615,-4.4615,-4.4615,-4.4615,-4.4615,-4.4615,-4.4615,-4.4615,-4.4615,-4.4012,-4.3392,-4.3392,-4.232,-4.1204,-4.1204,-4.0629,-4.0096,-4.0096,-3.9554,-3.9039,-3.9005,-3.7828,-3.6795,-3.6745,-3.6113,-3.56,-3.56,-3.56,-3.5346,-3.4641,-3.4506,-3.3947,-3.2513,-3.2327,-3.2005,-3.1258,-3.119,-3.119,-3.119,-3.119,-3.119,-3.119,-3.119,-3.1207,-3.1258,-3.1258,-3.1258,-3.1258,-3.1275,-3.1275,-3.1258,-3.1292,-3.1701,-4.0037,-4.1593,-4.2844,-4.3995,-4.3995,-4.3656,-4.3443,-4.2108,-4.0468,-3.8802,-3.6383,-3.415,-3.2865,-3.3812,-3.5216,-3.6529,-3.9715,0.0,-4.3555,-4.4045,0.0,-4.4581,-4.4891,-4.5196,-4.5399,-4.5906,0.0,0.0,-4.6684,-4.7124,-4.7838,-4.8612,-4.9001,-4.9001,-4.9001,-4.9001,-4.9001,-4.9001,-4.9001,-4.9001,-4.9001,-4.9001,-4.9001,-4.9001,-4.9001,-4.9001,-4.9001,-4.9001,-4.9001,-4.9001,-4.8578,-4.7872,-4.7669,-4.6836,-4.5686,-4.55,-4.506,-4.4615,-4.4615,-4.4615,-4.4615,-4.4615,-4.4615,-4.4615,-4.4615,-4.4615,-4.4615,-4.4615,-4.4012,-4.3392,-4.3392,-4.232,-4.1204,-4.1204,-4.0629,-4.0096,-4.0096,-3.996,-3.9673,-3.9106,-3.7828,-3.6609,-3.6011,-3.5735,-3.56,-3.56,-3.56,-3.5532,-3.5329,-3.4844,-3.415,-3.322,-3.2632,-3.2005,-3.1258,-3.119,-3.119,-3.119,-3.119,-3.119,-3.119,-3.119,-3.1464,-3.2005,-3.2022,-3.2022,-3.2022,-3.256,-3.256,-3.2039,-3.2577,-3.2933,-4.166,-4.3031,-4.4045,-4.4496,-4.3995,-4.3054,-4.1762,-4.0273,-3.8237,-3.5131,-3.2865,-3.1004,-2.9499,-3.0784,-3.2747,-3.4793,-3.8345,-4.1457,-4.3156,-4.4079,-4.4733,-4.5026,-4.5449,-4.5838,-4.616,-4.6549,-4.6921,0.0,-4.7293,-4.7462,-4.7872,-4.8612,-4.9001,-4.9001,-4.9001,-4.9001,-4.9001,-4.9001,-4.9001,-4.9001,-4.9001,-4.9001,-4.9001,-4.9001,-4.9001,-4.9001,0.0,-4.9001,-4.9001,-4.9001,-4.8765,-4.8359,-4.8024,-4.7382,-4.665,-4.6312,-4.572,-4.5077,-4.5077,-4.4886,-4.4615,-4.4615,-4.4615,-4.4615,-4.4615,-4.4615,-4.4615,-4.4615,-4.4265,-4.3927,-4.3927,-4.2811,-4.1677,-4.1677,-4.0865,-4.0096,-4.0096,-4.0096,-3.9791,-3.8717,-3.7838,-3.6924,-3.5785,-3.56,-3.56,-3.56,-3.56,-3.56,-3.56,-3.525,-3.4709,-3.3964,-3.322,-3.2476,-3.1752,-3.1396,-3.119,-3.119,-3.119,-3.119,-3.119,-3.1495,-3.1887,-3.2293,-3.2632,-3.278,-3.278,-3.3203,-3.3186,-3.278,-3.322,-3.3575,-4.32,-4.4062,-4.4615,-4.4615,-4.3842,-4.2405,-3.9631,-3.8041,-3.5774,-3.0818,-2.9042,-2.7927,-2.6387,-2.7622,-2.9991,-3.3491,-3.6755,-3.9884,-4.2844,-4.3944,-4.4739,-4.5602,-4.5788,-4.6143,-4.687,-4.7022,-4.7361,-4.799,-4.8041,-4.8041,-4.8041,-4.8663,-4.9001,-4.9001,-4.9001,-4.9001,-4.9001,-4.9001,-4.9001,-4.9001,-4.9001,-4.9001,-4.9001,-4.9001,-4.9001,-4.9001,0.0,0.0,-4.9001,-4.9001,-4.9001,-4.8951,-4.8308,-4.7973,-4.7804,-4.7175,-4.6413,-4.5703,-4.5703,-4.5213,-4.4615,-4.4615,-4.4615,-4.4615,-4.4615,-4.4615,-4.4615,-4.4615,-4.4615,-4.4615,-4.4615,-4.3464,-4.2286,-4.2286,-4.1179,-4.0096,-4.0096,-4.0096,-3.9706,-3.8311,-3.8058,-3.7567,-3.6005,-3.5752,-3.5718,-3.5616,-3.56,-3.56,-3.56,-3.56,-3.5312,-3.4573,-3.3931,-3.3254,-3.2513,-3.187,-3.1478,-3.1478,-3.1478,-3.1478,-3.1478,-3.2124,-3.2496,-3.2598,-3.322,-3.3558,-3.3558,-3.3643,-3.3643,-3.3558,-3.366,-3.4032,-4.413,-4.4496,-4.4615,-4.4615,-4.3081,-4.1136,-3.9377,-3.6034,-3.2327,-2.8889,-2.664,-2.4829,-2.3342,-2.5761,-2.8821,-3.136,-3.5334,-3.9123,-4.2066,-4.3149,-4.4147,-4.5534,-4.6244,-4.6904,-4.7648,-4.8274,0.0,0.0,0.0,-4.8815,-4.8815,-4.8934,-4.9001,-4.9001,-4.9001,-4.9001,-4.9001,-4.9001,-4.9001,-4.9001,-4.9001,-4.9001,-4.9001,-4.9001,-4.9001,-4.9001,-4.9001,0.0,-4.9001,-4.9001,-4.9001,-4.8984,-4.8866,-4.8443,-4.7872,-4.7753,-4.687,-4.5703,-4.5703,-4.5213,-4.4615,-4.4615,-4.4615,-4.4615,-4.4615,-4.4615,-4.4615,-4.4615,-4.4615,-4.4615,-4.4615,-4.3464,-4.2286,-4.2286,-4.1179,-4.0096,-4.0096,-4.0096,-3.9842,-3.8971,-3.8802,-3.8328,-3.684,-3.6586,-3.6366,-3.5701,-3.56,-3.56,-3.56,-3.56,-3.5312,-3.4573,-3.4387,-3.4015,-3.3271,-3.3085,-3.3017,-3.3017,-3.3017,-3.3017,-3.3017,-3.3136,-3.3491,-3.41,-3.4235,-3.4303,-3.4303,-3.4906,-3.4928,-3.432,-3.4945,-3.5278,-4.4395,-4.4615,-4.4513,-4.4079,-4.2591,-4.0307,-3.6874,-3.3525,-2.9973,-2.5795,-2.3782,-2.2561,-2.1854,-2.4103,-2.6826,-2.9076,-3.256,-3.6299,-4.0037,-4.1221,-4.2675,-4.5382,-4.6346,-4.709,-4.7821,-4.8578,-4.9001,-4.9001,0.0,-4.9001,-4.9001,-4.9001,-4.9001,-4.9001,-4.9001,-4.9001,-4.9001,-4.9001,-4.9001,-4.9001,-4.9001,-4.9001,-4.9001,-4.9001,-4.9001,-4.9001,-4.9001,0.0,-4.9001,-4.9001,-4.9001,-4.9001,-4.9001,-4.8781,-4.8477,-4.8477,-4.7547,-4.6261,-4.6261,-4.5534,-4.4615,-4.4615,-4.4615,-4.4615,-4.4615,-4.4615,-4.4615,-4.4615,-4.4615,-4.4615,-4.4615,-4.3464,-4.2286,-4.2286,-4.1179,-4.0096,-4.0096,-4.0096,-3.9893,-3.914,-3.8988,-3.865,-3.755,-3.7066,-3.6677,-3.6282,-3.5876,-3.56,-3.56,-3.56,-3.5447,-3.5115,-3.4726,-3.4353,-3.3998,-3.3626,-3.3406,-3.3406,-3.3406,-3.3406,-3.3406,-3.3778,-3.4134,-3.4489,-3.4878,-3.5081,-3.5081,-3.543,-3.5414,-3.5081,-3.543,-3.56,-4.4395,-4.4615,-4.4429,-4.3606,-4.2185,-3.9648,-3.4556,-3.1424,-2.8162,-2.3105,-2.1465,-2.0936,-2.0936,-2.2494,-2.4677,-2.7367,-2.9922,-3.3275,-3.8091,-3.9529,-4.1424,-4.5043,-4.6244,0.0,-4.7821,-4.8578,0.0,-4.9001,0.0,0.0,-4.9001,-4.9001,-4.9001,-4.9001,-4.9001,-4.9001,-4.9001,-4.9001,-4.9001,-4.9001,-4.9001,-4.9001,-4.9001,-4.9001,-4.9001,-4.9001,-4.9001,0.0,0.0,-4.9001,-4.9001,-4.9001,-4.9001,-4.9001,-4.8984,-4.8832,-4.7936,-4.6769,-4.6616,-4.5686,-4.4615,-4.4615,-4.4615,-4.4615,-4.4615,-4.4615,-4.4615,-4.4615,-4.4615,-4.4615,-4.4615,-4.3555,-4.2455,-4.2134,-4.1077,-4.0096,-4.0096,-4.0096,-3.9943,-3.9368,-3.9225,-3.8988,-3.8261,-3.7516,-3.6998,-3.6829,-3.6129,-3.56,-3.56,-3.56,-3.56,-3.56,-3.5081,-3.4742,-3.4742,-3.4201,-3.3858,-3.3858,-3.3858,-3.3858,-3.3858,-3.4438,-3.4742,-3.4742,-3.5295,-3.56,-3.56,-3.56,-3.56,-3.56,-3.56,-3.56,-4.4395,-4.4615,-4.4429,-4.3606,-4.1779,-3.9012,-3.4438,-3.0596,-2.6742,-2.224,-2.067,-2.0103,-2.0103,-2.0873,-2.29,-2.7114,-2.8653,-3.1345,-3.7178,-3.92,-4.1255,-4.4344,0.0,0.0,-4.7821,-4.8578,-4.9001,0.0,0.0,0.0,-4.9001,-4.9001,-4.9001,-4.9001,-4.9001,-4.9001,-4.9001,-4.9001,-4.9001,-4.9001,-4.9001,-4.9001,-4.9001,-4.9001,-4.9001,-4.9001,-4.9001,0.0,0.0,-4.9001,-4.9001,-4.9001,-4.9001,-4.9001,-4.8934,-4.8257,-4.7496,-4.6701,-4.6024,-4.5263,-4.4615,-4.4615,-4.4615,-4.4615,-4.4615,-4.4615,-4.4615,-4.4615,-4.4615,-4.4615,-4.4615,-4.3944,-4.2953,-4.1627,-4.0679,-4.0096,-4.0096,-4.0096,-4.0079,-4.0011,-3.9994,-3.9774,-3.9022,-3.8294,-3.7567,-3.6897,-3.6129,-3.56,-3.56,-3.56,-3.56,-3.56,-3.5532,-3.5498,-3.5498,-3.543,-3.5397,-3.5397,-3.5397,-3.5397,-3.5397,-3.5464,-3.5498,-3.5498,-3.5566,-3.56,-3.56,-3.56,-3.56,-3.56,-3.56,-3.56,-4.3436,-4.4215,-4.431,-4.3047,-4.1068,-3.8142,-3.3203,-2.9178,-2.5322,-2.1299,-1.9524,-1.8949,-1.9833,-1.9908,-2.0987,-2.4577,-2.505,-2.6894,-3.2442,-3.4472,-3.7009,-4.1382,-4.3589,0.0,0.0,0.0,-4.8528,0.0,0.0,0.0,-4.9001,-4.9001,-4.9001,-4.9001,-4.9001,-4.9001,-4.9001,-4.9001,-4.9001,-4.9001,-4.9001,-4.9001,-4.9001,-4.9001,-4.9001,-4.9001,-4.9001,0.0,0.0,-4.9001,-4.9001,-4.8968,-4.8528,-4.8359,-4.8257,-4.7513,-4.6769,-4.6109,-4.5805,-4.5213,-4.4615,-4.4615,-4.4615,-4.4615,-4.4615,-4.4615,-4.4615,-4.4615,-4.4615,-4.4615,-4.4615,-4.3656,-4.2489,-4.1457,-4.0629,-4.0096,-4.0096,-4.0096,-4.0096,-4.0096,-4.0096,-4.0011,-3.9723,-3.9039,-3.8311,-3.7567,-3.6806,-3.6146,-3.565,-3.56,-3.56,-3.56,-3.56,-3.56,-3.56,-3.56,-3.56,-3.56,-3.56,-3.56,-3.56,-3.56,-3.56,-3.56,-3.56,-3.56,-3.56,-3.56,-3.56,-3.56,-3.56,-3.56,-4.2168,-4.3318,-4.3616,-4.2286,-4.0138,-3.7077,-3.229,-2.8298,-2.4527,-2.0762,-1.9,-1.8442,-1.949,-1.9249,-1.9807,-2.2615,-2.3004,-2.4628,-2.9431,-3.1562,-3.4257,-3.8606,0.0,-4.3234,0.0,-4.6955,-4.8193,0.0,0.0,0.0,-4.9001,-4.9001,-4.9001,-4.9001,-4.9001,-4.9001,-4.9001,-4.9001,-4.9001,-4.9001,-4.9001,-4.9001,-4.9001,-4.8719,-4.8719,-4.897,0.0,0.0,0.0,-4.8258,-4.8123,-4.7934,-4.7676,-4.7581,-4.7496,-4.6752,-4.598,-4.527,-4.5068,-4.4632,-4.4224,-4.4224,-4.4384,-4.4615,-4.4615,-4.4615,-4.4615,-4.4615,-4.4615,-4.4615,-4.4615,-4.3464,-4.2168,-4.1644,-4.0781,-4.0096,-4.0096,-4.0096,-4.0096,-4.0096,-4.0096,-4.0096,-4.0096,-3.9503,-3.8819,-3.8311,-3.7398,-3.6609,-3.6028,-3.5735,-3.56,-3.56,-3.56,-3.56,-3.56,-3.56,-3.56,-3.56,-3.56,-3.56,-3.56,-3.56,-3.56,-3.56,-3.56,-3.56,-3.56,-3.56,-3.56,-3.56,-3.56,-3.5718,-4.0629,-4.1762,-4.2134,-4.1407,-3.8988,-3.5847,-3.2053,-2.8298,-2.4527,-2.0762,-1.9418,-1.8894,-1.891,-1.8922,-1.9655,-2.1941,-2.3528,-2.5794,-2.9583,-3.2002,-3.4252,0.0,0.0,-4.0722,-4.2185,-4.572,0.0,0.0,0.0,0.0,-4.9001,-4.9001,-4.9001,-4.9001,-4.9001,-4.9001,-4.9001,-4.9001,-4.9001,-4.9001,-4.9001,-4.9001,-4.897,-4.8047,-4.8112,0.0,0.0,0.0,0.0,-4.6535,-4.6138,-4.5605,-4.6501,-4.6802,-4.6718,-4.5974,-4.5169,-4.4323,-4.36,-4.3306,-4.3306,-4.3306,-4.3919,-4.4615,-4.4615,-4.4615,-4.4615,-4.4615,-4.4615,-4.4615,-4.4615,-4.3464,-4.2286,-4.2286,-4.1179,-4.0096,-4.0096,-4.0096,-4.0096,-4.0096,-4.0096,-4.0096,-4.0096,-3.9503,-3.8988,-3.8988,-3.7743,-3.6795,-3.6795,-3.6096,-3.56,-3.56,-3.56,-3.56,-3.56,-3.56,-3.56,-3.56,-3.56,-3.56,-3.56,-3.56,-3.56,-3.56,-3.56,-3.56,-3.56,-3.56,-3.56,-3.56,-3.56,-3.6028,-3.6282,-3.755,-3.8234,-3.6941,-3.517,-3.2886,-2.9634,-2.6404,-2.3325,-2.0572,-1.9017,-1.8302,-1.8809,-1.8894,-1.9989,-2.3272,-2.4203,-2.5642,-2.8873,-3.2121,0.0,-3.6592,-4.1018,-4.4113,0.0,0.0,0.0,0.0,0.0,0.0,-4.7496,-4.7496,-4.7953,-4.8968,-4.9001,-4.8765,-4.8257,-4.8257,-4.8003,-4.7496,-4.7496,-4.7496,-4.7466,-4.6583,0.0,0.0,0.0,0.0,0.0,-4.4932,-4.5163,-4.5491,-4.5261,-4.5503,-4.5957,-4.5213,-4.4415,-4.3603,-4.3388,-4.3306,-4.3306,-4.3306,-4.3873,-4.4615,-4.4615,-4.4615,-4.4615,-4.4615,-4.4615,-4.4615,-4.4615,-4.3464,-4.2286,-4.2286,-4.1179,-4.0096,-4.0096,-4.0096,-4.0096,-4.0096,-4.0096,-4.0096,-4.0096,-3.991,-3.9588,-3.9073,-3.8599,-3.8108,-3.7618,-3.733,-3.6992,-3.6468,-3.6417,-3.6197,-3.565,-3.56,-3.56,-3.56,-3.56,-3.56,-3.56,-3.56,-3.5853,-3.64,-3.6417,-3.6671,-3.7155,-3.7155,-3.7155,-3.7155,-3.7155,-3.7313,-3.2747,-3.4353,-3.5284,-3.432,-3.2564,-3.0482,-2.8297,-2.5288,-2.2429,-2.0407,-1.9051,-1.8352,-1.8821,-1.913,-2.0179,-2.2832,-2.3949,-2.5455,-2.8163,-3.1495,0.0,-3.732,0.0,0.0,0.0,0.0,0.0,0.0,0.0,0.0,-4.6786,-4.6786,-4.7208,-4.8139,-4.8173,-4.7953,-4.7496,-4.7496,-4.7259,-4.6786,-4.6786,-4.6621,-4.627,-4.5399,0.0,0.0,0.0,0.0,0.0,-4.3271,-4.3433,-4.367,-4.3537,-4.3826,-4.4235,-4.377,-4.329,-4.2754,-4.2426,-4.2754,-4.3246,-4.2909,-4.3621,-4.4615,-4.4615,-4.4615,-4.4615,-4.4615,-4.4615,-4.4615,-4.4615,-4.3464,-4.2286,-4.2286,-4.1179,-4.0096,-4.0096,-4.0096,-4.0096,-4.0096,-4.0096,-4.0096,-4.0096,-4.0096,-3.9943,-3.9486,-3.9174,-3.8819,-3.8379,-3.8075,-3.7719,-3.7263,-3.7235,-3.7009,-3.6495,-3.5921,-3.5718,-3.6045,-3.6062,-3.6197,-3.6445,-3.6462,-3.6705,-3.7195,-3.7235,-3.7432,-3.7905,-3.7905,-3.7905,-3.7922,-3.8193,-3.8328,0.0,-3.1715,-3.2831,-3.278,-3.07,-2.8468,-2.7672,-2.4798,0.0,-2.0322,-1.9456,-1.8995,-1.9046,-1.9625,-2.0437,-2.1512,-2.3391,-2.554,-2.7807,-3.0801,0.0,0.0,-4.0612,0.0,-4.3341,0.0,0.0,0.0,0.0,0.0,-4.6633,-4.6633,-4.6633,-4.6633,-4.6633,-4.6667,-4.6718,-4.6718,-4.6684,-4.6633,-4.6574,-4.612,-4.5329,-4.4315,0.0,0.0,0.0,0.0,0.0,-4.1562,-4.1225,-4.0792,-4.1609,-4.1933,-4.1997,-4.1997,-4.1965,-4.1804,-4.0979,-4.1804,-4.3108,-4.2426,-4.329,-4.4615,-4.4615,-4.4615,-4.4615,-4.4615,-4.4615,-4.4615,-4.4615,-4.3464,-4.2286,-4.2286,-4.1179,-4.0096,-4.0096,-4.0096,-4.0096,-4.0096,-4.0096,-4.0096,-4.0096,-4.0096,-4.0096,-4.0096,-3.9537,-3.9073,-3.9073,-3.8481,-3.8041,-3.799,-3.799,-3.7973,-3.7905,-3.658,-3.6096,-3.6846,-3.688,-3.7178,-3.7872,-3.7905,-3.7922,-3.799,-3.8041,-3.8075,-3.8075,-3.8075,-3.8075,-3.8075,-3.8751,-3.9073,-2.4983,0.0,-2.73,-2.6742,-2.6065,-2.5354,0.0,-2.3342,-2.1857,-2.0322,-1.9849,-1.993,-2.0547,-2.0801,-2.209,-2.566,-2.6674,-2.801,-3.0835,-3.4815,0.0,-4.2821,-4.3599,-4.3955,-4.4265,0.0,0.0,0.0,0.0,-4.5139,-4.5139,-4.5139,-4.5139,-4.5139,-4.5139,-4.5382,-4.5957,-4.5957,-4.5669,-4.5094,-4.4449,-4.3998,-4.377,-4.2232,0.0,0.0,0.0,0.0,-3.9979,-3.9943,-4.0233,-4.0724,-4.0912,-4.1396,-4.1997,-4.1997,-4.1576,-4.0979,-4.0777,-4.1396,-4.2489,-4.3634,-4.4253,-4.4615,-4.4615,-4.4615,-4.4615,-4.4615,-4.4615,-4.4615,-4.4615,-4.3464,-4.2286,-4.2286,-4.1179,-4.0096,-4.0096,-4.0096,-4.0096,-4.0096,-4.0096,-4.0096,-4.0096,-4.0096,-4.0096,-4.0096,-3.996,-3.9842,-3.9842,-3.9706,-3.9385,-3.8802,-3.8734,-3.8514,-3.7956,-3.7584,-3.7449,-3.7635,-3.7652,-3.7719,-3.7905,-3.7905,-3.8176,-3.8717,-3.9317,-3.9588,-3.9588,-3.9588,-3.9588,-3.9605,-3.9757,-3.9842,-2.2902,-2.4475,-2.6015,-2.5608,-2.5269,-2.4898,-2.4509,-2.3054,-2.1566,-2.072,-2.0268,-2.0352,-2.1498,-2.1986,-2.3207,-2.6285,-2.7672,-2.9753,0.0,0.0,-4.1018,-4.3724,-4.4395,-4.4615,0.0,0.0,0.0,0.0,0.0,-4.4615,-4.4615,-4.4615,-4.4615,-4.4615,-4.4615,-4.4801,-4.5179,-4.5196,-4.4976,-4.4598,-4.4121,-4.3486,-4.2676,-4.1739,-4.086,0.0,0.0,0.0,-3.9388,-3.9388,-3.9666,-4.0115,-4.0115,-4.0378,-4.0808,-4.0808,-4.0758,-4.0656,-4.0239,-4.0927,-4.2284,-4.4018,-4.4615,-4.4615,-4.4615,-4.4615,-4.4615,-4.4615,-4.4615,-4.4615,-4.4615,-4.3464,-4.2286,-4.2286,-4.1179,-4.0096,-4.0096,-4.0096,-4.0096,-4.0096,-4.0096,-4.0096,-4.0096,-4.0096,-4.0096,-4.0096,-4.0096,-4.0096,-4.0096,-4.0096,-3.996,-3.9554,-3.9495,-3.9326,-3.8937,-3.8903,-3.8768,-3.843,-3.8396,-3.8565,-3.8886,-3.8903,-3.9089,-3.9503,-3.991,-4.0096,-4.0096,-4.0096,-4.0096,-4.0096,-4.0096,-4.0096,-2.2567,-2.4712,-2.6759,-2.6302,-2.5896,-2.5575,-2.5456,-2.341,-2.1495,-2.1393,-2.0923,-2.0995,-2.2516,-2.341,-2.4458,-2.6184,-2.8349,-3.1599,-3.6609,-3.9546,-4.1796,-4.3403,-4.4181,0.0,0.0,0.0,0.0,0.0,0.0,-4.4615,-4.4615,-4.4615,-4.4615,-4.4615,-4.4615,-4.4615,-4.4615,-4.4615,-4.4615,-4.4615,-4.431,-4.341,-4.1997,-4.1739,-4.0808,0.0,0.0,0.0,-3.9388,-3.9388,-3.9388,-3.9388,-3.9388,-3.9388,-3.9388,-3.9388,-3.9864,-4.0432,-3.9955,-4.0774,-4.2284,-4.4018,-4.4615,-4.4615,-4.4615,-4.4615,-4.4615,-4.4615,-4.4615,-4.4615,-4.4615,-4.3521,-4.2472,-4.2472,-4.1322,-4.0282,-4.0282,-4.018,-4.0096,-4.0096,-4.0096,-4.0096,-4.0096,-4.0096,-4.0096,-4.0096,-4.0096,-4.0096,-4.0096,-4.0096,-4.0096,-4.0096,-4.0096,-4.0096,-4.0096,-4.0096,-3.9842,-3.9191,-3.9157,-3.9453,-4.0079,-4.0096,-4.0096,-4.0096,-4.0096,-4.0096,-4.0096,-4.0096,-4.0096,-4.0096,-4.0096,-4.0096,-2.3831,-2.5862,-2.7029,-2.4526,-2.4763,-2.5439,-2.4812,-2.3848,-2.2885,-2.226,-2.253,-2.3325,-2.4815,-2.5693,-2.7097,-2.9888,-3.2205,-3.5047,0.0,0.0,-4.1999,-4.4175,0.0,0.0,0.0,0.0,0.0,0.0,0.0,0.0,0.0,-4.4615,-4.4615,-4.4615,-4.4615,-4.4615,-4.4615,-4.4615,-4.4615,-4.457,-4.3092,-4.2252,-4.1965,-4.0481,-3.9646,0.0,0.0,-3.9388,-3.9388,-3.9388,-3.9388,-3.9388,-3.9388,-3.9388,-3.9388,-3.9388,-3.9481,-3.9809,-4.1129,-4.1772,-4.2284,-4.4018,-4.4615,-4.4615,-4.4615,-4.4615,-4.4615,-4.4615,-4.4615,-4.4615,-4.4615,-4.391,-4.325,-4.325,-4.2117,-4.1035,-4.1035,-4.0527,-4.0096,-4.0096,-4.0096,-4.0096,-4.0096,-4.0096,-4.0096,-4.0096,-4.0096,-4.0096,-4.0096,-4.0096,-4.0096,-4.0096,-4.0096,-4.0096,-4.0096,-4.0096,-4.0045,-3.9943,-3.9943,-3.9994,-4.0096,-4.0096,-4.0096,-4.0096,-4.0096,-4.0096,-4.0096,-4.0096,-4.0096,-4.0096,-4.0096,-4.0096,-2.2527,-2.4036,-2.5389,-2.522,-2.6911,-2.8433,-2.7689,-2.6962,-2.6217,-2.5423,-2.5542,-2.5981,-2.6657,-2.8078,-3.0378,-3.4201,-3.6011,-3.7804,-4.0341,-4.1651,-4.2794,0.0,0.0,0.0,0.0,0.0,0.0,0.0,0.0,0.0,0.0,0.0,-4.4615,-4.4615,-4.4615,-4.4615,-4.4615,-4.4615,-4.4615,-4.457,-4.332,-4.2458,-4.1965,-4.0672,-3.9864,-3.9388,0.0,-3.9388,-3.9388,-3.9388,-3.9388,-3.9388,-3.9388,-3.9388,-3.9388,-3.9388,-3.9702,-4.0274,-4.1576,-4.2316,-4.2909,-4.4196,-4.4615,-4.4615,-4.4615,-4.4615,-4.4615,-4.4615,-4.4615,-4.4615,-4.4615,-4.3995,-4.3392,-4.3392,-4.2591,-4.1677,-4.1288,-4.0933,-4.0561,-4.018,-4.0096,-4.0096,-4.0096,-4.0096,-4.0096,-4.0096,-4.0096,-4.0096,-4.0096,-4.0096,-4.0096,-4.0096,-4.0096,-4.0096,-4.0096,-4.0096,-4.0096,-4.0096,-4.0096,-4.0096,-4.0096,-4.0096,-4.0096,-4.0096,-4.0096,-4.0096,-4.0096,-4.0096,-4.0096,-4.0096,-4.0096,-4.0096,-2.2087,-2.2934,-2.4152,-2.6184,-2.8298,-3.0023,-3.0497,-2.9634,-2.8738,-2.8856,-2.872,-2.8652,-2.8821,-3.07,-3.3525,-3.7516,-3.8785,-3.9834,-4.1491,-4.2682,-4.346,0.0,0.0,0.0,0.0,0.0,0.0,0.0,0.0,0.0,0.0,0.0,-4.4615,-4.4615,-4.4615,-4.4615,-4.4615,-4.4615,-4.4615,-4.4587,-4.3515,-4.2661,-4.1965,-4.0894,-4.0025,-3.9388,-3.9388,-3.9388,-3.9388,-3.9388,-3.9388,-3.9388,-3.9388,-3.9388,-3.9388,-3.9388,-3.9955,-4.0811,-4.1707,-4.2583,-4.3426,-4.4327,-4.4615,-4.4615,-4.4615,-4.4615,-4.4615,-4.4615,-4.4615,-4.4615,-4.4615,-4.413,-4.369,-4.369,-4.3115,-4.2405,-4.1847,-4.1441,-4.1035,-4.0485,-4.0231,-4.0096,-4.0096,-4.0096,-4.0096,-4.0096,-4.0096,-4.0096,-4.0096,-4.0096,-4.0096,-4.0096,-4.0096,-4.0096,-4.0096,-4.0096,-4.0096,-4.0096,-4.0096,-4.0096,-4.0096,-4.0096,-4.0096,-4.0096,-4.0096,-4.0096,-4.0096,-4.0096,-4.0096,-4.0096,-4.0096,-4.0096,-2.4729,-2.4847,-2.4795,-2.6319,-2.6353,-2.708,-3.121,-2.9922,-2.8652,-3.1413,-3.143,-3.1157,-3.1853,-3.3795,-3.6073,-3.8514,-3.9546,-4.0755,-4.2936,0.0,0.0,0.0,0.0,0.0,0.0,0.0,0.0,0.0,0.0,0.0,-4.4615,0.0,0.0,-4.4615,-4.4615,-4.4615,-4.4615,-4.4615,-4.4615,-4.457,-4.2909,-4.2062,-4.1933,-4.0255,-3.9445,-3.9388,-3.9388,-3.9388,-3.9388,-3.9388,-3.9388,-3.9388,-3.9388,-3.9388,-3.9388,-3.9388,-3.9955,-4.0811,-4.1707,-4.2583,-4.3426,-4.4327,-4.4615,-4.4615,-4.4615,-4.4615,-4.4615,-4.4615,-4.4615,-4.4615,-4.4615,-4.4564,-4.4513,-4.4513,-4.391,-4.3291,-4.324,-4.2185,-4.1187,-4.1136,-4.0561,-4.0096,-4.0096,-4.0096,-4.0096,-4.0096,-4.0096,-4.0096,-4.0096,-4.0096,-4.0096,-4.0096,-4.0096,-4.0096,-4.0096,-4.0096,-4.0096,-4.0096,-4.0096,-4.0096,-4.0096,-4.0096,-4.0096,-4.0096,-4.0096,-4.0096,-4.0096,-4.0096,-4.0096,-4.0096,-4.0096,-4.0096,-2.2496,-2.334,-2.4288,-2.6218,-2.7199,-2.8519,-3.1599,-3.2886,-3.3711,-3.4866,-3.5233,-3.5301,-3.5137,-3.6163,-3.7746,-4.0003,-4.0984,-4.21,-4.3893,0.0,0.0,0.0,0.0,0.0,0.0,0.0,0.0,0.0,0.0,0.0,0.0,0.0,0.0,-4.4615,-4.4615,-4.4615,-4.4615,-4.4615,-4.4615,-4.457,-4.2831,-4.1997,-4.1933,-4.0185,-3.9388,-3.9388,-3.9388,-3.9388,-3.9388,-3.9388,-3.9388,-3.9388,-3.9388,-3.9388,-3.9481,-4.0025,-4.0758,-4.1642,-4.252,-4.3396,-4.4167,-4.4485,-4.4615,-4.4615,-4.4615,-4.4615,-4.4615,-4.4615,-4.4615,-4.4615,-4.4615,-4.4615,-4.4615,-4.4615,-4.4378,-4.4012,-4.3521,-4.2953,-4.2439,-4.1965,-4.1644,-4.1305,-4.0849,-4.0781,-4.0629,-4.018,-4.0096,-4.0096,-4.0096,-4.0096,-4.0096,-4.0096,-4.0096,-4.0096,-4.0096,-4.0096,-4.0096,-4.0096,-4.0096,-4.0096,-4.0096,-4.0096,-4.0096,-4.0096,-4.0096,-4.0096,-4.0096,-4.0096,-4.0096,-4.0096,-4.0096,-4.0096,-2.1749,-2.2632,-2.3934,-2.615,-2.8027,-2.9991,-3.2446,-3.4759,-3.6755,-3.7922,-3.821,-3.8091,-3.7608,-3.7719,-3.8633,0.0,-4.1813,-4.2855,-4.4395,0.0,0.0,0.0,0.0,0.0,0.0,0.0,0.0,0.0,0.0,0.0,0.0,0.0,0.0,0.0,-4.4615,-4.4615,-4.4615,-4.4615,-4.4615,-4.457,-4.3092,-4.2252,-4.1965,-4.0481,-3.9666,-3.9388,-3.9388,-3.9388,-3.9388,-3.9388,-3.9574,-3.9793,-3.9793,-3.997,-4.0289,-4.0894,-4.1674,-4.2489,-4.3078,-4.3873,-4.4615,-4.4615,-4.4615,-4.4615,-4.4615,-4.4615,-4.4615,-4.4615,-4.4615,-4.4615,-4.4615,-4.4615,-4.4615,-4.4615,-4.4615,-4.4462,-4.391,-4.3589,-4.324,-4.2743,-4.2455,-4.2134,-4.1627,-4.1424,-4.1153,-4.0654,-4.0299,-4.0096,-4.0096,-4.0096,-4.0096,-4.0096,-4.0096,-4.0096,-4.0096,-4.0096,-4.0096,-4.0096,-4.0096,-4.0096,-4.0096,-4.0096,-4.0096,-4.0096,-4.057,-4.1044,-4.1517,-4.057,-4.0096,-4.013,-4.1077,-4.1517,-2.3376,-2.3393,-2.3951,-2.615,-2.845,-3.092,-3.3863,-3.5115,-3.6698,-4.046,-4.0054,-3.9022,-3.9005,-3.843,-3.865,-4.0849,-4.1813,-4.2811,0.0,0.0,0.0,0.0,0.0,0.0,0.0,0.0,0.0,0.0,0.0,0.0,0.0,0.0,0.0,0.0,-4.4615,-4.4615,-4.4615,-4.4615,-4.4615,-4.4587,-4.371,-4.2847,-4.1965,-4.1113,-4.0205,-3.9388,-3.9388,-3.9388,-3.9388,-3.9388,-3.99,-4.069,-4.069,-4.1247,-4.1997,-4.1997,-4.2552,-4.3306,-4.3306,-4.3873,-4.4615,-4.4615,-4.4615,-4.4615,-4.4615,-4.4615,-4.4615,-4.4615,-4.4615,-4.4615,-4.4615,-4.4615,-4.4615,-4.4615,-4.4615,-4.4615,-4.4615,-4.3978,-4.3409,-4.3409,-4.2828,-4.2303,-4.2303,-4.1931,-4.161,-4.161,-4.0756,-4.0096,-4.0096,-4.0096,-4.0096,-4.0096,-4.0096,-4.0096,-4.0096,-4.013,-4.0146,-4.0146,-4.0146,-4.013,-4.0096,-4.0096,-4.0096,-4.0096,-4.1525,-4.3031,-4.4598,-4.1568,-4.0113,-4.0214,-4.321,-4.4615,-2.1989,-2.3763,-2.5998,-2.7181,-3.0748,-3.4619,-3.7094,-3.8227,-3.9512,-4.2219,-4.1999,-4.0984,-3.9977,-4.0426,0.0,-4.0485,-4.1474,0.0,0.0,0.0,0.0,0.0,0.0,0.0,0.0,0.0,0.0,0.0,0.0,0.0,0.0,0.0,0.0,0.0,-4.4615,-4.4615,-4.4615,-4.4615,-4.4615,-4.4615,-4.4355,-4.3456,-4.1965,-4.1113,-4.0205,-3.9388,-3.9388,-3.9388,-3.9388,-3.9388,-3.9538,-3.9864,-4.0466,-4.0844,-4.1247,-4.2458,-4.3078,-4.3396,-4.4006,-4.4384,-4.4615,-4.4615,-4.4615,-4.4615,-4.4615,-4.4615,-4.4615,-4.4615,-4.4615,-4.4615,-4.4615,-4.4615,-4.4615,-4.4615,-4.4615,-4.4615,-4.4615,-4.4401,-4.4231,-4.4231,-4.409,-4.3921,-4.3921,-4.3819,-4.3345,-4.2252,-4.0976,-4.0096,-4.0096,-4.0096,-4.0096,-4.0096,-4.0096,-4.0096,-4.0096,-4.2059,-4.3278,-4.3278,-4.3278,-4.2313,-4.0197,-4.0096,-4.0096,-4.0096,-4.0536,-4.2025,-4.4598,-4.1568,-4.1196,-4.3295,-4.4192,-4.4615,-2.3272,-2.5455,-2.7994,-2.9616,-3.2827,-3.6428,-3.958,-4.0882,-4.188,-4.3538,-4.3031,-4.2016,-4.1145,-4.1204,0.0,-4.062,-4.1288,0.0,0.0,0.0,0.0,0.0,0.0,0.0,0.0,0.0,0.0,0.0,0.0,0.0,0.0,0.0,0.0,0.0,-4.4615,-4.4615,-4.4615,-4.4615,-4.4615,-4.4615,-4.4615,-4.3873,-4.2489,-4.1593,-4.0927,-4.0413,-4.006,-3.9737,-3.9388,-3.9388,-3.9809,-4.0481,-4.1013,-4.1626,-4.2379,-4.3426,-4.3814,-4.3873,-4.4412,-4.4615,-4.4615,-4.4615,-4.4615,-4.4615,-4.4615,-4.4615,-4.4615,-4.4615,-4.4615,-4.4615,-4.4615,-4.4615,-4.4615,-4.4615,-4.4615,-4.4615,-4.4615,-4.4615,-4.4615,-4.4615,-4.4615,-4.4615,-4.4615,-4.4615,-4.4293,-4.3335,-4.2465,-4.189,-4.189,-4.084,-4.0096,-4.0096,-4.1179,-4.189,-4.189,-4.3565,-4.4615,-4.4615,-4.4615,-4.3785,-4.1974,-4.189,-4.189,-4.189,-4.189,-4.2787,-4.4615,-4.277,-4.2821,-4.4615,-4.4615,-4.4615,-2.5845,-2.7723,-2.9822,-3.2763,-3.4805,-3.7188,-4.1339,-4.2828,-4.3555,-4.4429,-4.3447,-4.2371,-4.2303,-4.1204,-4.0493,-4.1018,0.0,0.0,0.0,0.0,0.0,0.0,0.0,0.0,0.0,0.0,0.0,0.0,0.0,0.0,0.0,0.0,0.0,-4.4615,-4.4615,-4.4615,-4.4615,-4.4615,-4.4615,0.0,-4.4615,-4.4196,-4.3396,-4.252,-4.2062,-4.1965,-4.108,-4.0309,-3.961,-3.9445,-4.0378,-4.1901,-4.1965,-4.2953,-4.4384,-4.4542,-4.4615,-4.4615,-4.4615,-4.4615,-4.4615,-4.4615,-4.4615,-4.4615,-4.4615,-4.4615,-4.4615,-4.4615,-4.4615,-4.4615,-4.4615,-4.4615,-4.4615,-4.4615,-4.4615,-4.4615,-4.4615,-4.4615,-4.4615,-4.4615,-4.4615,-4.4615,-4.4615,-4.4615,-4.4615,-4.4615,-4.4615,-4.4615,-4.4615,-4.2211,-4.0519,-4.0519,-4.2956,-4.4615,-4.4615,-4.4615,-4.4615,-4.4615,-4.4615,-4.4615,-4.4615,-4.4615,-4.4615,-4.4615,-4.4615,-4.4615,-4.4615,-4.4615,-4.4615,-4.4615,-4.4615,-4.4615,-2.3968,-2.6928,-3.0581,-3.3525,-3.7144,-4.0409,-4.1948,-4.2422,-4.2929,-4.4327,-4.3826,-4.2997,-4.2405,-4.2033,-4.1491,0.0,0.0,0.0,0.0,0.0,0.0,0.0,0.0,0.0,0.0,0.0,0.0,0.0,0.0,0.0,0.0,0.0,0.0,-4.4581,-4.4615,-4.4615,-4.4615,-4.4615,-4.4615,0.0,-4.4615,-4.4514,-4.4281,-4.3426,-4.2645,-4.1965,-4.108,-4.0979,-4.1313,-3.997,-4.0025,-4.1046,-4.1739,-4.2221,-4.2738,-4.4093,-4.4615,-4.4615,-4.4615,-4.4615,-4.4615,-4.4615,-4.4615,-4.4615,-4.4615,-4.4615,-4.4615,-4.4615,-4.4615,-4.4615,-4.4615,-4.4615,-4.4615,-4.4615,-4.4615,-4.4615,-4.4615,-4.4615,-4.4615,-4.4615,-4.4615,-4.4615,-4.4615,-4.4615,-4.4615,-4.4615,-4.4615,-4.4615,-4.4615,-4.4039,-4.3633,-4.3633,-4.4225,-4.4615,-4.4615,-4.4615,-4.4615,-4.4615,-4.4615,-4.4615,-4.4615,-4.4615,-4.4615,-4.4615,-4.4615,-4.4615,-4.4615,-4.4615,-4.4615,-4.4615,-4.4615,-4.4615,-2.4932,-2.7757,-3.1072,-3.5115,-3.8684,-4.1305,-4.1677,-4.2049,-4.2523,-4.3345,-4.3166,-4.2658,-4.1914,-4.1762,-4.1407,0.0,0.0,0.0,0.0,0.0,0.0,0.0,0.0,0.0,0.0,0.0,0.0,0.0,0.0,-4.1948,0.0,-4.2692,-4.3064,-4.3498,-4.3515,-4.3515,-4.3515,-4.3515,-4.3515,-4.3515,-4.3515,-4.3515,-4.3504,-4.3803,-4.3229,-4.1997,-4.1965,-4.1965,-4.1933,-4.1028,-4.1162,-4.1997,-4.2442,-4.2878,-4.335,-4.4253,-4.4615,-4.4615,-4.4615,-4.4615,-4.4615,-4.4615,-4.4615,-4.4615,-4.4615,-4.4615,-4.4615,-4.4615,-4.4615,-4.4615,-4.4615,-4.4615,-4.4615,-4.4615,-4.4615,-4.4615,-4.4615,-4.4615,-4.4615,-4.4615,-4.4615,-4.4615,-4.4615,-4.4615,-4.4615,-4.4615,-4.4615,-4.4615,-4.4615,-4.4615,-4.4615,-4.4615,-4.4615,-4.4615,-4.4615,-4.4615,-4.4615,-4.4615,-4.4615,-4.4615,-4.4615,-4.4615,-4.4615,-4.4615,-4.4615,-4.4615,-4.4615,-4.4615,-4.4615,-4.4615,-4.4615,-4.4615,-2.5778,-2.8618,-3.1647,-3.6552,-3.9276,-4.0798,-4.0967,-4.1474,-4.1948,-4.2066,-4.21,-4.1914,-4.1322,-4.1102,0.0,0.0,0.0,0.0,0.0,0.0,0.0,0.0,0.0,0.0,0.0,0.0,0.0,0.0,0.0,-4.1068,-4.1204,-4.1779,-4.2168,-4.2286,-4.2286,-4.2286,-4.2286,-4.2286,-4.2286,-4.2286,-4.2286,-4.2286,-4.2337,-4.3633,-4.3481,-4.2279,-4.2851,-4.2855,-4.241,-4.2125,-4.252,-4.3306,-4.3306,-4.3756,-4.4384,-4.4542,-4.4615,-4.4615,-4.4615,-4.4615,-4.4615,-4.4615,-4.4615,-4.4615,-4.4615,-4.4615,-4.4615,-4.4615,-4.4615,-4.4615,-4.4615,-4.4615,-4.4615,-4.4615,-4.4615,-4.4615,-4.4615,-4.4615,-4.4615,-4.4615,-4.4615,-4.4615,-4.4615,-4.4615,-4.4615,-4.4615,-4.4615,-4.4615,-4.4615,-4.4615,-4.4615,-4.4615,-4.4615,-4.4615,-4.4615,-4.4615,-4.4615,-4.4615,-4.4615,-4.4615,-4.4615,-4.4615,-4.4615,-4.4615,-4.4615,-4.4615,-4.4615,-4.4615,-4.4615,-4.4615,-4.4615,-4.4615,-2.2516,-2.7435,-3.2852,-3.6332,-3.8075,-3.9174,-4.0062,-4.0333,-4.0587,-4.1221,-4.1356,-4.1322,-4.1221,0.0,0.0,0.0,0.0,0.0,0.0,0.0,0.0,0.0,0.0,0.0,0.0,0.0,0.0,0.0,-4.0197,-4.0536,-4.117,-4.1288,-4.1644,-4.2269,-4.2286,-4.2286,-4.2286,-4.2286,-4.2286,-4.2286,-4.2286,-4.2286,-4.2303,-4.2506,-4.2837,-4.3188,-4.2601,-4.3053,-4.4121,-4.2629,-4.252,-4.3306,-4.3306,-4.3366,-4.3562,-4.4327,-4.4615,-4.4615,-4.4615,-4.4615,-4.4615,-4.4615,-4.4615,-4.4615,-4.4615,-4.4615,-4.4615,-4.4615,-4.4615,-4.4615,-4.4615,-4.4615,-4.4615,-4.4615,-4.4615,-4.4615,-4.4615,-4.4615,-4.4615,-4.4615,-4.4615,-4.4615,-4.4615,-4.4615,-4.4615,-4.4615,-4.4615,-4.4615,-4.4615,-4.4615,-4.4615,-4.4615,-4.4615,-4.4615,-4.4615,-4.4615,-4.4615,-4.4615,-4.4615,-4.4615,-4.4615,-4.4615,-4.4615,-4.4615,-4.4615,-4.4615,-4.4615,-4.4615,-4.4615,-4.4615,-4.4615,-4.4615,-2.3108,-2.73,-3.1718,-3.5351,-3.7855,-3.9571,-4.0011,-4.0096,-4.0197,-4.051,-4.0578,-4.0578,-4.0578,0.0,0.0,0.0,0.0,0.0,0.0,0.0,0.0,0.0,0.0,0.0,0.0,0.0,0.0,0.0,-4.0096,-4.0248,-4.0561,-4.0578,-4.0713,-4.1077,-4.1077,-4.1077,-4.1077,-4.1077,-4.1077,-4.1077,-4.1491,-4.1457,-4.1094,-4.1491,-4.2083,-4.2784,-4.2842,-4.3267,-4.3905,-4.3585,-4.3663,-4.4035,-4.4035,-4.4035,-4.4064,-4.4457,-4.4615,-4.4615,-4.4615,-4.4615,-4.4615,-4.4615,-4.4615,-4.4615,-4.4615,-4.4615,-4.4615,-4.4615,-4.4615,-4.4615,-4.4615,-4.4615,-4.4615,-4.4615,-4.4615,-4.4615,-4.4615,-4.4615,-4.4615,-4.4615,-4.4615,-4.4615,-4.4615,-4.4615,-4.4615,-4.4615,-4.4615,-4.4615,-4.4615,-4.4615,-4.4615,-4.4615,-4.4615,-4.4615,-4.4615,-4.4615,-4.4615,-4.4615,-4.4615,-4.4615,-4.4615,-4.4615,-4.4615,-4.4615,-4.4615,-4.4615,-4.4615,-4.4615,-4.4615,-4.4615,-4.4615,-4.4615,-2.304,-2.6099,-2.9213,-3.344,-3.6738,-3.8962,-3.8962,-3.9368,-3.9757,0.0,-3.9977,-4.0096,0.0,0.0,0.0,0.0,0.0,0.0,0.0,0.0,0.0,0.0,0.0,0.0,0.0,0.0,0.0,0.0,-4.0096,-4.0096,-4.0096,-4.0096,-4.0096,-4.0096,-4.0096,-4.0096,-4.0096,-4.0096,-4.0096,-4.0113,-4.0646,-4.0629,-4.013,-4.0663,-4.1221,-4.1779,-4.2523,-4.3037,-4.3443,-4.4045,-4.4429,-4.4615,-4.4615,-4.4615,-4.4615,-4.4615,-4.4615,-4.4615,-4.4615,-4.4615,-4.4615,-4.4615,-4.4615,-4.4615,-4.4615,-4.4615,-4.4615,-4.4615,-4.4615,-4.4615,-4.4615,-4.4615,-4.4615,-4.4615,-4.4615,-4.4615,-4.4615,-4.4615,-4.4615,-4.4615,-4.4615,-4.4615,-4.4615,-4.4615,-4.4615,-4.4615,-4.4615,-4.4615,-4.4615,-4.4615,-4.4615,-4.4615,-4.4615,-4.4615,-4.4615,-4.4615,-4.4615,-4.4615,-4.4615,-4.4615,-4.4615,-4.4615,-4.4615,-4.4615,-4.4615,-4.4615,-4.4615,-4.4615,-4.4615,-4.4615,-4.4615,-4.4615,-2.0264,-2.2544,-2.5286,-3.0192,-3.366,-3.5819,-3.5819,-3.7307,-3.8751,-3.9005,-3.9622,-4.0096,0.0,0.0,0.0,0.0,0.0,0.0,0.0,0.0,0.0,0.0,0.0,0.0,0.0,0.0,0.0,0.0,-4.0096,-4.0096,-4.0096,-4.0096,-4.0096,-4.0096,-4.0096,-4.0096,-4.0096,-4.0096,-4.0096,-4.0096,-4.0146,-4.0146,-4.0096,-4.0146,-4.018,-4.0265,-4.0984,-4.2117,-4.3392,-4.3443,-4.391,-4.4615,-4.4615,-4.4615,-4.4615,-4.4615,-4.4615,-4.4615,-4.4615,-4.4615,-4.4615,-4.4615,-4.4615,-4.4615,-4.4615,-4.4615,-4.4615,-4.4615,-4.4615,-4.4615,-4.4615,-4.4615,-4.4615,-4.4615,-4.4615,-4.4615,-4.4615,-4.4615,-4.4615,-4.4615,-4.4615,-4.4615,-4.4615,-4.4615,-4.4615,-4.4615,-4.4615,-4.4615,-4.4615,-4.4615,-4.4615,-4.4615,-4.4615,-4.4615,-4.4615,-4.4615,-4.4615,-4.4615,-4.4615,-4.4615,-4.4615,-4.4615,-4.4615,-4.4615,-4.4615,-4.4615,-4.4615,-4.4615,-4.4615,-4.4615,-4.4615,-4.4615,-1.8437,-1.9401,-2.1075,-2.5743,-2.9854,-3.278,-3.278,-3.481,-3.6969,-3.8075,-3.887,0.0,0.0,0.0,0.0,0.0,0.0,0.0,0.0,0.0,0.0,0.0,0.0,0.0,0.0,0.0,0.0,0.0,0.0,-4.0096,-4.0096,-4.0096,-4.0096,-4.0096,-4.0096,-4.0096,-4.0096,-4.0096,-4.0096,-4.0096,-4.0096,-4.0096,-4.0096,-4.0096,-4.0096,-4.0113,-4.0383,-4.1052,-4.2033,-4.2506,-4.3149,-4.3826,-4.3826,-4.4147,-4.4615,-4.4615,-4.4615,-4.4615,-4.4615,-4.4615,-4.4615,-4.4615,-4.4615,-4.4615,-4.4615,-4.4615,-4.4615,-4.4615,-4.4615,-4.4615,-4.4615,-4.4615,-4.4615,-4.4615,-4.4615,-4.4615,-4.4615,-4.4615,-4.4615,-4.4615,-4.4615,-4.4615,-4.4615,-4.4615,-4.4615,-4.4615,-4.4615,-4.4615,-4.4615,-4.4615,-4.4615,-4.4615,-4.4615,-4.4615,-4.4615,-4.4615,-4.4615,-4.4615,-4.4615,-4.4615,-4.4615,-4.4615,-4.4615,-4.4615,-4.4615,-4.4615,-4.4615,-4.4615,-4.4615,-4.4615,-4.4615,-4.4615,-1.7546,-1.78,-1.9012,-2.4,-2.7232,-2.96,-3.119,-3.3288,-3.5278,-3.68,-3.7939,0.0,0.0,0.0,0.0,0.0,0.0,0.0,0.0,0.0,0.0,0.0,0.0,0.0,0.0,0.0,0.0,0.0,0.0,0.0,-4.0096,-4.0096,-4.0096,-4.0096,-4.0096,-4.0096,-4.0096,-4.0096,-4.0096,-4.0096,-4.0096,-4.0096,-4.0096,-4.0096,-4.0096,-4.0096,-4.0096,-4.051,-4.1238,-4.1728,-4.2371,-4.3064,-4.325,-4.3639,-4.4158,-4.4479,-4.4615,-4.4615,-4.4615,-4.4615,-4.4615,-4.4615,-4.4615,-4.4615,-4.4615,-4.4615,-4.4615,-4.4615,-4.4615,-4.4615,-4.4615,-4.4615,-4.4615,-4.4615,-4.4615,-4.4615,-4.4615,-4.4615,-4.4615,-4.4615,-4.4615,-4.4615,-4.4615,-4.4615,-4.4615,-4.4615,-4.4615,-4.4615,-4.4615,-4.4615,-4.4615,-4.4615,-4.4615,-4.4615,-4.4615,-4.4615,-4.4615,-4.4615,-4.4615,-4.4615,-4.4615,-4.4615,-4.4615,-4.4615,-4.4615,-4.4615,-4.4615,-4.4615,-4.4615,-4.4615,-4.4615,-4.4615,0.0,0.0,0.0,-2.5033,-2.5761,-2.6302,-3.0973,0.0,-3.3605,-3.5143,-3.6664,0.0,0.0,0.0,0.0,0.0,0.0,0.0,0.0,0.0,0.0,0.0,0.0,0.0,0.0,0.0,0.0,0.0,-4.0096,-4.0096,-4.0096,-4.0096,-4.0096,-4.0096,-4.0096,-4.0096,-4.0096,-4.0096,-4.0096,-4.0096,-4.0096,-4.0096,-4.0096,-4.0096,-4.0096,-4.0096,-4.0096,-4.0493,-4.117,-4.117,-4.1593,-4.2303,-4.2844,-4.3064,-4.3183,-4.4215,-4.4615,-4.4615,-4.4615,-4.4615,-4.4615,-4.4615,-4.4615,-4.4615,-4.4615,-4.4615,-4.4615,-4.4615,-4.4615,-4.4615,-4.4615,-4.4615,-4.4615,-4.4615,-4.4615,-4.4615,-4.4615,-4.4615,-4.4615,-4.4615,-4.4615,-4.4615,-4.4615,-4.4615,-4.4615,-4.4615,-4.4615,-4.4615,-4.4615,-4.4615,-4.4615,-4.4615,-4.4615,-4.4615,-4.4615,-4.4615,-4.4615,-4.4615,-4.4615,-4.4615,-4.4615,-4.4615,-4.4615,-4.4615,-4.4615,-4.4615,-4.4615,-4.4615,-4.4615,-4.4615,-4.4615,-4.4615,-1.6891,0.0,0.0,0.0,0.0,0.0,0.0,0.0,-2.8653,-3.1765,0.0,0.0,0.0,0.0,0.0,0.0,0.0,0.0,0.0,0.0,0.0,0.0,0.0,0.0,0.0,0.0,0.0,0.0,-4.0096,-4.0096,-4.0096,-4.0096,-4.0096,-4.0096,-4.0096,-4.0096,-4.0096,-4.0096,-4.0096,-4.0096,-4.0096,-4.0096,-4.0096,-4.0096,-4.0096,-4.0096,-4.0096,-4.0231,-4.0417,-4.0417,-4.0832,-4.1525,-4.1677,-4.1847,-4.2219,-4.3972,-4.4615,-4.4615,-4.4615,-4.4615,-4.4615,-4.4615,-4.4615,-4.4615,-4.4615,-4.4615,-4.4615,-4.4615,-4.4615,-4.4615,-4.4615,-4.4615,-4.4615,-4.4615,-4.4615,-4.4615,-4.4615,-4.4615,-4.4615,-4.4615,-4.4615,-4.4615,-4.4615,-4.4615,-4.4615,-4.4615,-4.4615,-4.4615,-4.4615,-4.4615,-4.4615,-4.4615,-4.4615,-4.4615,-4.4615,-4.4615,-4.4615,-4.4615,-4.4615,-4.4615,-4.4615,-4.4615,-4.4615,-4.4615,-4.4615,-4.4615,-4.4615,-4.4615,-4.4615,-4.4615,-4.4615,-4.4615,-1.7754,-1.8821,-2.0124,-2.0281,0.0,0.0,-2.4137,-2.5203,0.0,0.0,0.0,0.0,0.0,0.0,0.0,0.0,0.0,0.0,0.0,0.0,0.0,0.0,0.0,0.0,0.0,-3.9825,-3.9774,-4.0079,-4.0096,-4.0096,-4.0096,-4.0096,-4.0096,-4.0096,-4.0096,-4.0096,-4.0096,-4.0096,-4.0096,-4.0096,-4.0096,-4.0096,-4.0096,-4.0096,-4.0096,-4.0096,-4.0096,-4.0096,-4.0096,-4.0096,-4.0367,-4.073,-4.073,-4.0832,-4.1204,-4.3217,-4.3826,-4.3735,-4.4378,-4.4615,-4.4615,-4.4615,-4.4615,-4.4615,-4.4615,-4.4615,-4.4615,-4.4615,-4.4615,-4.4615,-4.4615,-4.4615,-4.4615,-4.4615,-4.4615,-4.4615,-4.4615,-4.4615,-4.4615,-4.4615,-4.4615,-4.4615,-4.4615,-4.4615,-4.4615,-4.4615,-4.4615,-4.4615,-4.4615,-4.4615,-4.4615,-4.4615,-4.4615,-4.4615,-4.4615,-4.4615,-4.5052,-4.6081,-4.6136,-4.6136,-4.6136,-4.6136,-4.6136,-4.6136,-4.5115,-4.5115,-4.6136,-4.5089,-4.4615,-4.4615,-4.4615,-4.4615,-1.9688,-2.0344,-2.1563,-2.2057,-2.1265,0.0,-2.5101,-2.5524,-2.5913,0.0,0.0,0.0,0.0,0.0,0.0,0.0,0.0,0.0,0.0,0.0,0.0,0.0,0.0,0.0,-3.974,-3.9242,-3.914,-3.9808,-3.9859,-3.9859,-3.9859,-3.9943,-3.9977,-3.9977,-4.0062,-4.0096,-4.0096,-4.0096,-4.0096,-4.0096,-4.0096,-4.0096,-4.0096,-4.0096,-4.0096,-4.0096,-4.0096,-4.0096,-4.0096,-4.0096,-4.0096,-4.0096,-4.0096,-4.0096,-4.0333,-4.2202,-4.2591,-4.2388,-4.3921,-4.4513,-4.4615,-4.4615,-4.4615,-4.4615,-4.4615,-4.4615,-4.4615,-4.4615,-4.4615,-4.4615,-4.4615,-4.4615,-4.4615,-4.4615,-4.4615,-4.4615,-4.4615,-4.4615,-4.4615,-4.4615,-4.4615,-4.4615,-4.4615,-4.4615,-4.4615,-4.4615,-4.4615,-4.4615,-4.4615,-4.4841,-4.4906,-4.4626,-4.4841,-4.4998,-4.4998,-4.4998,-4.5957,-4.8172,-4.8306,-4.8306,-4.8306,-4.8306,-4.8306,-4.8306,-4.6136,-4.6105,-4.8287,-4.6081,-4.4998,-4.4998,-4.472,-4.4615,-2.204,-2.2293,-2.273,-2.1681,0.0,0.0,-2.1536,-2.1701,-2.2392,0.0,0.0,0.0,0.0,0.0,0.0,0.0,0.0,0.0,0.0,0.0,0.0,0.0,0.0,0.0,-3.8311,-3.821,-3.8176,-3.8328,-3.8328,-3.8328,-3.8328,-3.8886,-3.9208,-3.9208,-3.9791,-4.0096,-4.0096,-4.0096,-4.0096,-4.0096,-4.0096,-4.0096,-4.0096,-4.0096,-4.0096,-4.0096,-4.0096,-4.0096,-4.0096,-4.0096,-4.0096,-4.0096,-4.0096,-4.0096,-4.0231,-4.1204,-4.1508,-4.161,-4.2929,-4.391,-4.4615,-4.4615,-4.4615,-4.4615,-4.4615,-4.4615,-4.4615,-4.4615,-4.4615,-4.4615,-4.4615,-4.4615,-4.4615,-4.4615,-4.4615,-4.4615,-4.4615,-4.4615,-4.4615,-4.4615,-4.4615,-4.4615,-4.4615,-4.4615,-4.4615,-4.4615,-4.4615,-4.4615,-4.4615,-4.6353,-4.6819,-4.4814,-4.6377,-4.7593,-4.7593,-4.7593,-4.7797,-4.8267,-4.8306,-4.8306,-4.8306,-4.8306,-4.8306,-4.8306,-4.7818,-4.7818,-4.8306,-4.7818,-4.7593,-4.7533,-4.5537,-4.4615,-2.3799,-2.3663,-2.3763,-2.3035,0.0,0.0,0.0,-2.1698,-2.1715,-2.3579,-2.3057,0.0,0.0,0.0,0.0,0.0,0.0,0.0,0.0,0.0,0.0,0.0,0.0,0.0,-3.728,-3.7347,-3.7499,-3.7872,-3.7905,-3.7905,-3.7905,-3.8261,-3.8447,-3.8447,-3.9157,-3.9554,-3.9554,-3.9926,-4.0229,-4.0497,-4.0497,-4.0497,-4.0497,-4.0497,-4.0343,-4.0096,-4.0096,-4.0096,-4.0096,-4.0096,-4.0096,-4.0096,-4.0096,-4.0096,-4.0214,-4.1068,-4.1068,-4.0849,-4.2219,-4.3521,-4.4615,-4.4615,-4.4615,-4.4615,-4.4615,-4.4615,-4.4615,-4.4615,-4.4615,-4.4615,-4.4615,-4.4615,-4.4615,-4.4615,-4.4615,-4.4615,-4.4615,-4.5563,-4.6448,-4.6448,-4.6448,-4.6448,-4.6448,-4.6448,-4.6448,-4.6448,-4.6448,-4.6448,-4.6448,-4.7533,-4.7818,-4.6589,-4.7554,-4.8306,-4.8306,-4.8306,-4.8306,-4.8306,-4.8306,-4.8306,-4.8306,-4.8306,-4.8306,-4.8306,-4.8306,-4.8306,-4.8306,-4.8306,-4.8306,-4.8267,-4.7021,-4.6448,0.0,0.0,0.0,0.0,0.0,-2.3646,0.0,0.0,0.0,-2.412,0.0,0.0,0.0,0.0,0.0,0.0,0.0,0.0,0.0,0.0,0.0,0.0,0.0,0.0,0.0,-3.5814,-3.6101,-3.6975,-3.6907,-3.6958,-3.7229,-3.7533,-3.7702,-3.7702,-3.8499,-3.8921,-3.8921,-3.962,-4.0257,-4.0838,-4.0838,-4.0925,-4.1064,-4.0949,-4.0726,-4.0434,-4.0311,-4.0311,-4.0434,-4.0434,-4.036,-4.0254,-4.0146,-4.0096,-4.0197,-4.1001,-4.0807,-4.0282,-4.1441,-4.2702,-4.3836,-4.4412,-4.4615,-4.4615,-4.4615,-4.4615,-4.4615,-4.4615,-4.4615,-4.4615,-4.4615,-4.4944,-4.5311,-4.5311,-4.5311,-4.5311,-4.5311,-4.6887,-4.8306,-4.8306,-4.8306,-4.8306,-4.8306,-4.8306,-4.8306,-4.8306,-4.8306,-4.8306,-4.8306,-4.8306,-4.8306,-4.8306,-4.8306,-4.8306,-4.8306,-4.8306,-4.8306,-4.8306,-4.8306,-4.8306,-4.8306,-4.8306,-4.8306,-4.8306,-4.8306,-4.8306,-4.8306,-4.8306,-4.8306,-4.8306,-4.8306,-4.8306,0.0,0.0,0.0,0.0,-2.686,0.0,0.0,0.0,-2.2665,-2.0981,0.0,0.0,0.0,0.0,0.0,0.0,0.0,0.0,0.0,0.0,0.0,0.0,0.0,0.0,0.0,-3.2226,-3.2408,-3.3812,-3.3305,-3.3512,-3.481,-3.6186,-3.6931,-3.6931,-3.8042,-3.8656,-3.8656,-3.9206,-3.9866,-4.0637,-4.0637,-4.1011,-4.1686,-4.1155,-4.1155,-4.1595,-4.1041,-4.111,-4.1617,-4.1617,-4.1291,-4.0756,-4.0286,-4.0096,-4.0113,-4.0231,-4.0197,-4.013,-4.0299,-4.0468,-4.106,-4.3735,-4.4615,-4.4615,-4.4615,-4.4615,-4.4615,-4.4615,-4.4615,-4.4615,-4.4615,-4.6233,-4.7879,-4.7879,-4.7879,-4.7879,-4.7879,-4.8094,-4.8306,-4.8306,-4.8306,-4.8306,-4.8306,-4.8306,-4.8306,-4.8306,-4.8306,-4.8306,-4.8306,-4.8306,-4.8306,-4.8306,-4.8306,-4.8306,-4.8306,-4.8306,-4.8306,-4.8306,-4.8306,-4.8306,-4.8306,-4.8306,-4.8306,-4.8306,-4.8306,-4.8306,-4.8306,-4.8306,-4.8306,-4.8306,-4.8306,-4.8306,0.0,0.0,0.0,0.0,0.0,0.0,-2.3814,0.0,-2.209,0.0,0.0,0.0,0.0,0.0,0.0,0.0,0.0,0.0,0.0,0.0,0.0,0.0,0.0,0.0,0.0,0.0,0.0,0.0,-3.1833,-3.2327,-3.3778,-3.4878,-3.5656,-3.6096,-3.7303,-3.7949,-3.7949,-3.8915,-3.9944,-4.1048,-4.1048,-4.1515,-4.2322,-4.2059,-4.1895,-4.1789,-4.1534,-4.1556,-4.181,-4.181,-4.1512,-4.1064,-4.0844,-4.049,-4.0096,-4.0096,-4.0096,-4.035,-4.211,-4.2719,-4.2922,-4.4192,-4.4615,-4.4615,-4.4615,-4.4615,-4.4615,-4.4615,-4.564,-4.6751,-4.6751,-4.7512,-4.8306,-4.8306,-4.8306,-4.8306,-4.8306,-4.8306,-4.8306,-4.8306,-4.8306,-4.8306,-4.8306,-4.8306,-4.8306,-4.8306,-4.8306,-4.8306,-4.8306,-4.8306,-4.8306,-4.8306,-4.8306,-4.8306,-4.8306,-4.8306,-4.8306,-4.8306,-4.8306,-4.8306,-4.8306,-4.8306,-4.8306,-4.8306,-4.8306,-4.8306,-4.8306,-4.8306,-4.8306,-4.8306,-4.8306,-4.8306,-3.0076,0.0,0.0,0.0,0.0,0.0,0.0,0.0,0.0,0.0,0.0,0.0,0.0,0.0,0.0,0.0,0.0,0.0,0.0,0.0,0.0,0.0,0.0,0.0,0.0,0.0,0.0,0.0,0.0,0.0,-3.2696,-3.3694,-3.4539,-3.5284,-3.653,-3.7272,-3.7422,-3.8667,-3.9976,-4.1325,-4.1542,-4.2105,-4.292,-4.2769,-4.2539,-4.2266,-4.2103,-4.2124,-4.2266,-4.2266,-4.2021,-4.1599,-4.1556,-4.1059,-4.0385,-4.0154,-4.0367,-4.1077,-4.3701,-4.4615,-4.4615,-4.4615,-4.4615,-4.4615,-4.4615,-4.4615,-4.4615,-4.4615,-4.6377,-4.8306,-4.8306,-4.8306,-4.8306,-4.8306,-4.8306,-4.8306,-4.8306,-4.8306,-4.8306,-4.8306,-4.8306,-4.8306,-4.8306,-4.8306,-4.8306,-4.8306,-4.8306,-4.8306,-4.8306,-4.8306,-4.8306,-4.8306,-4.8306,-4.8306,-4.8306,-4.8306,-4.8306,-4.8306,-4.8306,-4.8306,-4.8306,-4.8306,-4.8306,-4.8306,-4.8306,-4.8306,-4.8306,-4.8306,-4.8306,-4.8306,-4.8306,-4.8306,0.0,0.0,0.0,-2.7824,0.0,0.0,0.0,0.0,-2.5084,0.0,0.0,0.0,0.0,0.0,-2.2818,-2.1427,-2.1207,0.0,0.0,0.0,0.0,0.0,0.0,0.0,0.0,0.0,0.0,0.0,0.0,0.0,-3.1106,-3.2645,-3.3778,-3.4506,-3.5778,-3.6678,-3.7189,-3.8474,-3.9782,-4.1115,-4.1886,-4.2691,-4.3444,-4.2939,-4.2976,-4.3427,-4.2902,-4.2976,-4.3444,-4.3444,-4.3124,-4.2635,-4.244,-4.1874,-4.1064,-4.036,-4.101,-4.2455,-4.4056,-4.4615,-4.4615,-4.4615,-4.4615,-4.4615,-4.4615,-4.4615,-4.4615,-4.4615,-4.6377,-4.8306,-4.8306,-4.8306,-4.8306,-4.8306,-4.8306,-4.8306,-4.8306,-4.8306,-4.8306,-4.8306,-4.8306,-4.8306,-4.8306,-4.8306,-4.8306,-4.8306,-4.8306,-4.8306,-4.8306,-4.8306,-4.8306,-4.8306,-4.8306,-4.8306,-4.8306,-4.8306,-4.8306,-4.8306,-4.8306,-4.8306,-4.8306,-4.8306,-4.8306,-4.8306,-4.8306,-4.8306,-4.8306,-4.8306,-4.8306,-4.8306,-4.8306,-4.8306,0.0,0.0,-3.3288,-2.982,0.0,0.0,0.0,0.0,0.0,0.0,0.0,0.0,0.0,0.0,-2.3071,-2.209,-2.1075,-2.0061,0.0,0.0,0.0,0.0,0.0,0.0,0.0,0.0,0.0,0.0,-2.6285,0.0,0.0,-3.2341,-3.3744,-3.4472,-3.5744,-3.6498,-3.6664,-3.7756,-3.8792,-3.978,-4.0961,-4.1937,-4.2727,-4.3066,-4.3339,-4.3479,-4.3322,-4.3321,-4.3515,-4.3515,-4.3392,-4.3214,-4.316,-4.2959,-4.2505,-4.0744,-4.1044,-4.2506,-4.4073,-4.4615,-4.4615,-4.4615,-4.4615,-4.4615,-4.4615,-4.4615,-4.4615,-4.4615,-4.6377,-4.8306,-4.8306,-4.8306,-4.8306,-4.8306,-4.8306,-4.8306,-4.8306,-4.8306,-4.8306,-4.8306,-4.8306,-4.8306,-4.8306,-4.8306,-4.8306,-4.8306,-4.8306,-4.8306,-4.8306,-4.8306,-4.8306,-4.8306,-4.8306,-4.8306,-4.8306,-4.8306,-4.8306,-4.8306,-4.8306,-4.8306,-4.8306,-4.8306,-4.8306,-4.8306,-4.8306,-4.8306,-4.8306,-4.8306,-4.8306,-4.8306,-4.8306,-4.8306,-3.4692,-3.4793,0.0,-3.1241,-3.0125,0.0,-2.5963,0.0,0.0,0.0,0.0,0.0,0.0,0.0,-2.3934,-2.3207,-2.16,-1.998,0.0,-1.8724,0.0,0.0,0.0,0.0,0.0,0.0,-2.3444,-2.4795,-2.5033,0.0,0.0,0.0,-3.3085,-3.4083,-3.5395,-3.6203,-3.6395,-3.7342,-3.8167,-3.8869,-4.0471,-4.1516,-4.2045,-4.306,-4.3515,-4.3515,-4.3515,-4.3515,-4.3515,-4.3515,-4.3515,-4.3515,-4.3515,-4.3515,-4.3267,-4.1402,-4.1493,-4.2777,-4.4141,-4.4615,-4.4615,-4.4615,-4.4615,-4.4615,-4.4615,-4.4615,-4.4615,-4.4615,-4.6377,-4.8306,-4.8306,-4.8306,-4.8306,-4.8306,-4.8306,-4.8306,-4.8306,-4.8306,-4.8306,-4.8306,-4.8306,-4.8306,-4.8306,-4.8306,-4.8306,-4.8306,-4.8306,-4.8306,-4.8306,-4.8306,-4.8306,-4.8306,-4.8306,-4.8306,-4.8306,-4.8306,-4.8306,-4.8306,-4.8306,-4.8306,-4.8306,-4.8306,-4.8306,-4.8306,-4.8306,-4.8306,-4.8306,-4.8306,-4.8306,-4.8306,-4.8306,-4.8306]},{"header":{"parameterUnit":"m.s-1","parameterCategory":1,"la1":30.6,"la2":29.2853,"lo1":-89.7004,"lo2":-87.6739,"dy":0.0162,"dx":0.0183,"nx":112,"ny":82,"refTime":"2026-05-07T12:00:00:Z","depth":0,"parameterNumber":3,"parameterNumberName":"V-component_of_WINDS"},"data":[0.0,0.0,0.0,0.0,0.0,0.0,0.0,0.0,0.0,0.0,0.0,0.0,0.0,0.0,0.0,0.0,0.0,0.0,0.0,0.0,0.0,0.0,0.0,0.0,0.0,0.0,0.0,0.0,0.0,0.0,0.0,0.0,0.0,0.0,0.0,0.0,0.0,0.0,0.0,0.0,0.0,0.0,0.0,0.0,0.0,0.0,0.0,0.0,0.0,0.0,0.0,0.0,0.0,0.0,0.0,0.0,0.0,0.0,0.0,0.0,0.0,0.0,0.0,0.0,0.0,0.0,0.0,0.0,0.0,0.0,0.0,0.0,0.0,0.0,0.0,0.0,0.0,0.0,0.0,0.0,0.0,0.0,0.0,0.0,0.0,0.0,0.0,0.0,0.0,0.0,0.0,1.1215,1.1868,1.2405,1.2697,1.2283,1.181,1.1339,0.0,0.0,0.0,0.0,0.0,0.0,0.0,0.0,0.0,0.0,0.0,0.0,0.0,0.0,0.0,0.0,0.0,0.0,0.0,0.0,0.0,0.0,0.0,0.0,0.0,0.0,0.0,0.0,0.0,0.0,0.0,0.0,0.0,0.0,0.0,0.0,0.0,0.0,0.0,0.0,0.0,0.0,0.0,0.0,0.0,0.0,0.0,0.0,0.0,0.0,0.0,0.0,0.0,0.0,0.0,0.0,0.0,0.0,0.0,0.0,0.0,0.0,0.0,0.0,0.0,0.0,0.0,0.0,0.0,0.0,0.0,0.0,0.0,0.0,0.0,0.0,0.0,0.0,0.0,0.0,0.0,0.0,0.0,0.0,0.0,0.0,0.0,0.0,0.0,0.0,0.0,0.0,0.0,0.0,0.0,0.0,0.0,0.0,0.0,0.0,0.0,0.0,0.0,0.0,1.0694,1.1669,1.2089,1.2318,1.2365,1.2501,1.2201,1.1352,0.0,0.0,0.0,0.0,0.0,0.0,0.0,0.0,0.0,0.0,0.0,0.0,0.0,0.0,0.0,0.0,0.0,0.0,0.0,0.0,0.0,0.0,0.0,0.0,0.0,0.0,0.0,0.0,0.0,0.0,0.0,0.0,0.0,0.0,0.0,0.0,0.0,0.0,0.0,0.0,0.0,0.0,0.0,0.0,0.0,0.0,0.0,0.0,0.0,0.0,0.0,0.0,0.0,0.0,0.0,0.0,0.0,0.0,0.0,0.0,0.0,0.0,0.0,0.0,0.0,0.0,0.0,0.0,0.0,0.0,0.0,0.0,0.0,0.0,0.0,0.0,0.0,0.0,0.0,0.0,0.0,0.0,0.0,0.0,0.0,0.0,0.0,0.0,0.0,0.0,0.0,0.0,0.0,0.0,0.0,0.0,0.0,0.0,0.0,0.0,0.0,0.0,0.0,1.0643,1.1054,1.2024,1.2225,1.2305,1.2305,1.2109,1.1786,1.1324,1.0223,0.0,0.0,0.0,0.0,0.0,0.0,0.0,0.0,0.0,0.0,0.0,0.0,0.0,0.0,0.0,0.0,0.0,0.0,0.0,0.0,0.0,0.0,0.0,0.0,0.0,0.0,0.0,0.0,0.0,0.0,0.0,0.0,0.0,0.0,0.0,0.0,0.0,0.0,0.0,0.0,0.0,0.0,0.0,0.0,0.0,0.0,0.0,0.0,0.0,0.0,0.0,0.0,0.0,0.0,0.0,0.0,0.0,0.0,0.0,0.0,0.0,0.0,0.0,0.0,0.0,0.0,0.0,0.0,0.0,0.0,0.0,0.0,0.0,0.0,0.0,0.0,0.0,0.0,0.0,0.0,0.0,0.0,0.0,0.0,0.0,0.0,0.0,0.0,0.0,0.0,0.0,0.0,0.0,0.0,0.0,0.0,0.0,0.0,0.0,0.0,0.0,0.0,1.1654,1.1467,1.2237,1.2305,1.2305,1.2305,1.1908,1.1557,1.1308,1.0091,0.0,0.0,0.0,0.0,0.0,0.0,0.0,0.0,0.0,0.0,0.0,0.0,0.0,0.0,0.0,0.0,0.0,0.0,0.0,0.0,0.0,0.0,0.0,0.0,0.0,0.0,0.0,0.0,0.0,0.0,0.0,0.0,0.0,0.0,0.0,0.0,0.0,0.0,0.0,0.0,0.0,0.0,0.0,0.0,0.0,0.0,0.0,0.0,0.0,0.0,0.0,0.0,0.0,0.0,0.0,0.0,0.0,0.0,0.0,0.0,0.0,0.0,0.0,0.0,0.0,0.0,0.0,0.0,0.0,0.0,0.0,0.0,0.0,0.0,0.0,0.0,0.0,0.0,0.0,0.0,0.0,0.0,0.0,0.0,0.0,0.0,0.0,0.0,0.0,0.0,0.0,0.0,0.0,0.0,0.0,0.0,0.0,0.0,0.0,0.0,0.0,0.0,1.1379,1.1611,1.2231,1.2305,1.2305,1.2305,1.2413,1.2183,1.1334,1.0626,0.0,0.0,0.0,0.0,0.0,0.0,0.0,0.0,0.0,0.0,0.0,0.0,0.0,0.0,0.0,0.0,0.0,0.0,0.0,0.0,0.0,0.0,0.0,0.0,0.0,0.0,0.0,0.0,0.0,0.0,0.0,0.0,0.0,0.0,0.0,0.0,0.0,0.0,0.0,0.0,0.0,0.0,0.0,0.0,0.0,0.0,0.0,0.0,0.0,0.0,0.0,0.0,0.0,0.0,0.0,0.0,0.0,0.0,0.0,0.0,0.0,0.0,0.0,0.0,0.0,0.0,0.0,0.0,0.0,0.0,0.0,0.0,0.0,0.0,0.0,0.0,0.0,0.0,0.0,0.0,0.0,0.0,0.0,0.0,0.0,0.0,0.0,0.0,0.0,0.0,0.0,0.0,0.0,0.0,0.0,0.0,0.0,0.0,0.0,0.0,0.0,0.0,1.1072,1.1249,0.0,1.2305,1.2556,1.3135,1.2855,1.2539,1.2181,0.0,0.0,0.0,0.0,0.0,0.0,0.0,0.0,0.0,0.0,0.0,0.0,0.0,0.0,0.0,0.0,0.0,0.0,0.0,0.0,0.0,0.0,0.0,0.0,0.0,0.0,0.0,0.0,0.0,0.0,0.0,0.0,0.0,0.0,0.0,0.0,0.0,0.0,0.0,0.0,0.0,0.0,0.0,0.0,0.0,0.0,0.0,0.0,0.0,0.0,0.0,0.0,0.0,0.0,0.0,0.0,0.0,0.0,0.0,0.0,0.0,0.0,0.0,0.0,0.0,0.0,0.0,0.0,0.0,0.0,0.0,0.0,0.0,0.0,0.0,0.0,0.0,0.0,0.0,0.0,0.0,0.0,0.0,0.0,0.0,0.0,0.0,0.0,0.0,0.0,0.0,0.0,0.0,0.0,0.0,0.0,0.0,0.0,0.0,0.0,0.0,0.0,1.1107,1.1288,1.1645,0.0,1.2732,1.3048,1.3874,1.3333,1.2734,1.2305,0.0,0.0,0.0,0.0,0.0,0.0,0.0,0.0,0.0,0.0,0.0,0.0,0.0,0.0,0.0,0.0,0.0,0.0,0.0,0.0,0.0,0.0,0.0,0.0,0.0,0.0,0.0,0.0,0.0,0.0,0.0,0.0,0.0,0.0,0.0,0.0,0.0,0.0,0.0,0.0,0.0,0.0,0.0,0.0,0.0,0.0,0.0,0.0,0.0,0.0,0.0,0.0,0.0,0.0,0.0,0.0,0.0,0.0,0.0,0.0,0.0,0.0,0.0,0.0,0.0,0.0,0.0,0.0,0.0,0.0,0.0,0.0,0.0,0.0,0.0,0.0,0.0,0.0,0.0,0.0,0.0,0.0,0.0,0.0,0.0,0.0,0.0,0.0,0.0,0.0,0.0,0.0,0.0,0.0,0.0,0.0,0.0,0.0,0.0,0.0,0.0,0.0,1.1253,1.214,1.2959,1.3642,1.3709,1.3925,1.4472,1.3833,1.2837,0.0,0.0,0.0,0.0,0.0,0.0,0.0,0.0,0.0,0.0,0.0,0.0,0.0,0.0,0.0,0.0,0.0,0.0,0.0,0.0,0.0,0.0,0.0,0.0,0.0,0.0,0.0,0.0,0.0,0.0,0.0,0.0,0.0,0.0,0.0,0.0,0.0,0.0,0.0,0.0,0.0,0.0,0.0,0.0,0.0,0.0,0.0,0.0,0.0,0.0,0.0,0.0,0.0,0.0,0.0,0.0,0.0,0.0,0.0,0.0,0.0,0.0,0.0,0.0,0.0,0.0,0.0,0.0,0.0,0.0,0.0,0.0,0.0,0.0,0.0,0.0,0.0,0.0,0.0,0.0,0.0,0.0,0.0,0.0,0.0,0.0,0.0,0.0,0.0,0.0,0.0,0.0,0.0,0.0,0.0,0.0,0.0,0.0,0.0,0.0,0.0,0.0,0.0,1.2112,1.3098,1.3966,1.4699,1.4772,1.4944,1.546,1.4758,1.3775,1.255,0.0,0.0,0.0,0.0,0.0,0.0,0.0,0.0,0.0,0.0,0.0,0.0,0.0,0.0,0.0,0.0,0.0,0.0,0.0,0.0,0.0,0.0,0.0,0.0,0.0,0.0,0.0,0.0,0.0,0.0,0.0,0.0,0.0,0.0,0.0,0.0,0.0,0.0,0.0,0.0,0.0,0.0,0.0,0.0,0.0,0.0,0.0,0.0,0.0,0.0,0.0,0.0,0.0,0.0,0.0,0.0,0.0,0.0,0.0,0.0,0.0,0.0,0.0,0.0,0.0,0.0,0.0,0.0,0.0,0.0,0.0,0.0,0.0,0.0,0.0,0.0,0.0,0.0,0.0,0.0,0.0,0.0,0.0,0.0,0.0,0.0,0.0,0.0,0.0,0.0,0.0,0.0,0.0,0.0,0.0,0.0,0.0,0.0,0.0,0.0,0.0,0.0,1.2528,1.3804,1.4889,1.5678,1.5755,1.5895,1.6196,1.5622,1.4486,1.274,0.0,0.0,0.0,0.0,0.0,0.0,0.0,0.0,0.0,0.0,0.0,0.0,0.0,0.0,0.0,0.0,0.0,0.0,0.0,0.0,0.0,0.0,0.0,0.0,0.0,0.0,0.0,0.0,0.0,0.0,0.0,0.0,0.0,0.0,0.0,0.0,0.0,0.0,0.0,0.0,0.0,0.0,0.0,0.0,0.0,0.0,0.0,0.0,0.0,0.0,0.0,0.0,0.0,0.0,0.0,0.0,0.0,0.0,0.0,0.0,0.0,0.0,0.0,0.0,0.0,0.0,0.0,0.0,0.0,0.0,0.0,0.0,0.0,0.0,0.0,0.0,0.0,0.0,0.0,0.0,0.0,0.0,0.0,0.0,0.0,0.0,0.0,0.0,0.0,0.0,0.0,0.0,0.0,0.0,0.0,0.0,0.0,0.0,0.0,0.0,0.0,0.0,1.2717,1.4351,1.5758,1.6624,1.674,1.6702,1.6702,1.6318,1.5009,1.2428,0.0,0.0,0.0,0.0,0.0,0.0,0.0,0.0,0.0,0.0,0.0,0.0,0.0,0.0,0.0,0.0,0.0,0.0,0.0,0.0,0.0,0.0,0.0,0.0,0.0,0.0,0.0,0.0,0.0,0.0,0.0,0.0,0.0,0.0,0.0,0.0,0.0,0.0,0.0,0.0,0.0,0.0,0.0,0.0,0.0,0.0,0.0,0.0,0.0,0.0,0.0,0.0,0.0,0.0,0.0,0.0,0.0,0.0,0.0,0.0,1.4894,0.0,0.0,0.0,0.0,0.0,0.0,0.0,0.0,0.0,0.0,0.0,0.0,0.0,0.0,0.0,0.0,0.0,0.0,0.0,0.0,0.0,0.0,0.0,0.0,0.0,0.0,0.0,0.0,0.0,0.0,0.0,0.0,0.0,0.0,0.0,0.0,0.0,0.0,0.0,0.0,0.0,1.3616,1.5309,1.675,1.7595,1.7681,1.7422,1.6775,1.6318,1.5146,1.2881,1.1504,0.0,0.0,0.0,0.0,0.0,0.0,0.0,0.0,0.0,0.0,0.0,0.0,0.0,0.0,0.0,0.0,0.0,0.0,0.0,0.0,0.0,0.0,0.0,0.0,0.0,0.0,0.0,0.0,0.0,0.0,0.0,0.0,0.0,0.0,0.0,0.0,0.0,0.0,0.0,0.0,0.0,0.0,0.0,0.0,0.0,0.0,0.0,0.0,0.0,0.0,0.0,0.0,0.0,0.0,0.0,0.0,0.0,0.0,0.0,0.0,1.5888,0.0,0.0,0.0,0.0,0.0,0.0,0.0,0.0,0.0,0.0,0.0,0.0,0.0,0.0,0.0,0.0,0.0,0.0,0.0,0.0,0.0,0.0,0.0,0.0,0.0,0.0,0.0,0.0,0.0,0.0,0.0,0.0,0.0,0.0,0.0,0.0,0.0,0.0,0.0,0.0,1.4199,1.5751,1.7028,1.792,1.8008,1.7666,1.6775,1.6523,1.5557,1.3603,1.2461,0.0,0.0,0.0,0.0,0.0,0.0,0.0,0.0,0.0,0.0,0.0,0.0,0.0,0.0,0.0,0.0,0.0,0.0,0.0,0.0,0.0,0.0,0.0,0.0,0.0,0.0,0.0,0.0,0.0,0.0,0.0,0.0,0.0,0.0,0.0,0.0,0.0,0.0,0.0,0.0,0.0,0.0,0.0,0.0,0.0,0.0,0.0,0.0,0.0,0.0,0.0,0.0,0.0,2.5693,2.469,2.2891,2.2734,2.1894,2.0459,1.9504,1.8701,1.7949,0.0,0.0,0.0,0.0,0.0,0.0,0.0,0.0,0.0,0.0,0.0,0.0,0.0,0.0,0.0,0.0,0.0,0.0,0.0,0.0,0.0,0.0,0.0,0.0,0.0,1.7681,1.7529,0.0,0.0,0.0,0.0,0.0,0.0,0.0,0.0,0.0,0.0,0.0,0.0,1.4629,1.6035,1.7116,1.793,1.7939,1.7578,1.6765,1.6629,1.5907,1.4319,1.3457,1.2299,0.0,0.0,0.0,0.0,0.0,0.0,0.0,0.0,0.0,0.0,0.0,0.0,0.0,0.0,0.0,0.0,0.0,0.0,0.0,0.0,0.0,0.0,0.0,0.0,0.0,0.0,0.0,0.0,0.0,0.0,0.0,0.0,1.3617,1.4619,0.0,0.0,0.0,0.0,0.0,0.0,0.0,0.0,0.0,0.0,0.0,0.0,0.0,2.0498,2.1736,2.197,2.3296,2.5693,2.5693,2.5528,2.5206,2.4482,2.4014,2.3789,2.3633,0.0,1.8115,1.947,0.0,0.0,0.0,0.0,0.0,0.0,0.0,0.0,0.0,0.0,0.0,0.0,0.0,0.0,0.0,0.0,0.0,0.0,0.0,0.0,0.0,0.0,1.9326,1.9023,1.9043,1.8906,0.0,1.6453,1.4658,1.2949,0.0,0.0,0.0,0.0,0.0,0.0,0.0,0.0,1.5107,1.6484,1.748,1.7959,1.7686,1.7266,1.6746,1.6377,1.5762,1.4756,1.3896,1.2988,1.1989,1.039,0.0,0.0,0.0,0.0,0.0,0.0,0.0,0.0,0.0,0.0,0.0,0.0,0.0,0.0,0.0,0.0,0.0,0.0,0.0,0.0,0.0,0.0,0.0,0.0,0.0,0.0,0.0,0.0,0.0,1.3437,1.5225,1.5391,1.5195,1.4473,0.0,0.0,0.0,0.0,0.0,0.0,0.0,0.0,0.0,2.0859,2.2568,2.3838,2.4543,2.4553,2.5421,2.7168,2.7168,2.6924,2.6445,2.6055,2.5567,2.5109,2.5109,2.4046,2.2292,2.2109,2.0547,1.8096,0.0,0.0,0.0,0.0,1.4255,1.6339,1.8047,2.0576,0.0,0.0,0.0,0.0,0.0,0.0,0.0,0.0,0.0,0.0,0.0,0.0,0.0,2.0674,2.0557,2.0264,1.9814,1.8789,1.7295,0.0,1.4696,1.405,1.2002,0.0,0.0,0.0,0.0,1.4182,1.5907,1.6875,1.7539,1.7969,1.7637,1.7207,1.6736,1.6318,1.5831,1.5176,1.4561,1.3838,1.2964,1.1736,1.0439,0.0,0.0,0.0,0.0,0.0,0.0,0.0,0.0,0.0,0.0,0.0,0.0,0.0,0.0,0.0,0.0,0.0,0.0,0.0,0.0,0.0,0.0,0.0,0.0,0.0,0.0,0.0,0.0,1.4707,1.6318,1.6103,1.6755,1.6553,0.0,0.0,0.0,0.0,0.0,0.0,2.5001,2.5976,2.5343,2.3169,2.4787,2.5898,2.6337,2.6396,2.7031,2.8291,2.8291,2.7959,2.7344,2.7344,2.6992,2.6396,2.6396,2.6093,2.5586,2.429,2.3047,2.1699,1.9748,1.7555,1.5508,1.5508,1.8213,2.207,2.3315,2.3764,2.3471,2.1787,0.0,2.2324,2.1484,0.0,0.0,0.0,0.0,1.9046,2.0137,2.0664,2.1114,2.1728,2.1641,2.1239,2.083,2.0391,1.9414,0.0,1.6672,1.5909,1.3724,0.0,0.0,0.0,0.0,1.5147,1.6668,1.7275,1.7666,1.7978,1.7529,1.709,1.6726,1.6221,1.5782,1.543,1.5019,1.4453,1.3701,1.2827,1.1658,1.0137,0.0,0.0,0.0,0.0,0.0,0.0,0.0,0.0,0.0,0.0,0.0,0.0,0.0,0.0,0.0,0.0,0.0,0.0,0.0,0.0,0.0,0.0,0.0,0.0,0.0,0.0,0.0,0.0,0.0,1.7783,1.8408,0.0,0.0,0.0,0.0,2.0096,2.1748,2.312,2.4414,2.6826,2.6621,2.3198,2.4787,2.6473,2.8144,2.8164,2.8203,2.8291,2.8291,2.8271,2.8223,2.8223,2.8203,2.8164,2.8164,2.7246,2.5684,2.5596,2.5508,2.5421,2.5284,2.4153,2.2574,2.2574,2.3793,2.544,2.5528,2.5557,2.5274,2.353,2.1963,2.1026,2.2539,2.2334,0.0,0.0,2.1562,2.1142,2.166,2.1807,2.1826,2.1875,2.1865,2.1738,2.1259,2.085,2.0137,0.0,1.8184,1.7607,1.6638,0.0,1.543,1.587,1.5968,1.633,1.7269,1.7715,1.7988,1.8008,1.7233,1.6726,1.6697,1.5907,1.5439,1.541,1.5019,1.458,1.4094,1.3291,1.2436,1.1528,1.0215,0.0,0.0,0.0,0.0,0.0,0.0,0.0,0.0,0.0,0.0,0.0,0.0,0.0,0.0,0.0,0.0,0.0,0.0,0.0,0.0,0.0,0.0,0.0,0.0,0.0,0.0,0.0,0.0,1.958,2.0576,0.0,2.0693,1.8994,1.9102,2.2002,2.3783,2.5138,2.6045,2.6787,2.6709,2.5615,2.623,2.7119,2.8281,2.8291,2.8291,2.8291,2.8291,2.8291,2.8291,2.8291,2.8291,2.8291,2.8291,2.7949,2.7383,2.7383,2.6728,2.5693,2.5693,2.5313,2.4767,2.4767,2.5157,2.5693,2.5693,2.5693,2.5586,2.4972,2.3588,2.2334,2.2906,2.2676,2.2187,2.2383,2.2256,2.2116,2.2578,2.2652,2.2652,2.2652,2.248,2.2178,2.1748,2.1309,2.0781,2.0019,1.9307,1.8477,1.7344,1.7119,1.6953,1.6553,1.6738,1.7119,1.7715,1.792,1.8008,1.8008,1.7213,1.6697,1.6697,1.5888,1.5293,1.5029,1.4873,1.4473,1.3734,1.3447,1.2881,1.2002,1.125,1.0186,0.0,0.0,0.0,0.0,0.0,0.0,0.0,0.0,0.0,0.0,0.0,0.0,0.0,0.0,0.0,0.0,0.0,0.0,0.0,0.0,0.0,0.0,0.0,0.0,0.0,0.0,2.041,2.0586,2.21,2.2793,2.1875,2.1416,2.1846,2.3403,2.4875,2.5937,2.6502,2.6943,2.6982,2.6541,2.7139,2.7715,2.8281,2.8291,2.8291,2.8291,2.8291,2.8291,2.8291,2.8291,2.8291,2.8291,2.8291,2.8291,2.8271,2.8076,2.7275,2.6093,2.5801,2.5693,2.5693,2.5693,2.5693,2.5693,2.5693,2.5693,2.5693,2.5693,2.4914,2.3929,2.3744,2.333,2.2881,2.293,2.2832,2.274,2.3023,2.3091,2.3091,2.3091,2.2886,2.2568,2.2012,2.166,2.1279,2.0723,2.0028,1.9228,1.8389,1.8232,1.7993,1.7428,1.75,1.7695,1.7978,1.8008,1.8008,1.8008,1.7373,1.6863,1.6716,1.5888,1.5293,1.501,1.4727,1.4307,1.374,1.3447,1.2959,1.2213,1.165,1.0733,0.9434,0.0,0.0,0.0,0.0,0.0,0.0,0.0,0.0,0.0,0.0,0.0,0.0,0.0,0.0,0.0,0.0,0.0,0.0,0.0,0.0,0.0,0.0,0.0,1.748,1.9697,2.1152,2.0791,2.293,2.3975,2.2754,2.4033,2.4805,2.4482,2.5235,2.5742,2.5762,2.7363,2.75,2.582,2.7432,2.8291,2.8291,2.8291,2.8291,2.8291,2.8291,2.8291,2.8291,2.8291,2.8291,2.8291,2.8291,2.8291,2.8242,2.7676,2.7295,2.6973,2.6044,2.5703,2.5693,2.5693,2.5693,2.5693,2.5693,2.5693,2.5693,2.5693,2.5674,2.5557,2.5059,2.4482,2.3984,2.3818,2.3467,2.3091,2.3091,2.3091,2.3091,2.3091,2.3091,2.2867,2.209,2.1894,2.1672,2.0791,2.0234,1.9932,1.9912,1.9192,1.8627,1.8607,1.8256,0.0,1.8008,1.8008,1.8008,1.8008,1.7627,1.7197,1.6736,1.5888,1.54,1.5371,1.4562,1.4104,1.4085,1.333,1.2705,1.2252,1.1365,1.0723,1.0322,0.0,0.0,0.0,0.0,0.0,0.0,0.0,0.0,0.0,0.0,0.0,0.0,0.0,0.0,0.0,0.0,0.0,0.0,0.0,0.0,0.0,1.8125,1.9756,2.0127,2.1541,2.292,2.3775,2.4746,2.5361,2.5332,2.5801,2.5898,2.5362,2.6172,2.6934,2.7559,2.7451,2.7432,2.7588,2.8047,2.8291,2.8291,2.8291,2.8291,2.8291,2.8291,2.8291,2.8291,2.8291,2.8291,2.8291,2.8291,2.8291,2.8281,2.8115,2.8008,2.7832,2.666,2.6016,2.5693,2.5693,2.5693,2.5693,2.5693,2.5693,2.5693,2.5693,2.5459,2.5088,2.4932,2.4482,2.3916,2.3447,2.3188,2.3091,2.3091,2.3091,2.3091,2.3091,2.3091,2.2945,2.2461,2.21,2.1719,2.1162,2.0693,2.0283,1.9971,1.9717,1.9319,1.8695,1.851,0.0,1.8047,1.8008,1.8008,1.8008,1.7353,1.6833,1.6716,1.5888,1.5118,1.4494,1.4231,1.3968,1.3691,1.3457,1.3281,1.3164,1.1992,1.1193,0.0,0.0,0.0,0.0,0.0,0.0,0.0,0.0,0.0,0.0,0.0,0.0,0.0,0.0,0.0,0.0,0.0,0.0,0.0,0.0,0.0,0.0,2.0527,2.2197,2.2764,2.3477,2.4228,2.5028,2.5625,2.6113,2.6367,2.6494,2.6484,2.6239,2.6738,2.7383,2.8242,2.7822,2.7773,2.8271,2.8291,2.8291,2.8291,2.8291,2.8291,2.8291,2.8291,2.8291,2.8291,2.8291,2.8291,0.0,2.8291,2.8291,2.8291,2.8291,2.8193,0.0,0.0,0.0,0.0,0.0,2.5693,2.5693,2.5693,2.5693,2.5693,2.5693,2.5508,2.5244,2.5244,2.4844,2.4355,2.4212,2.3656,2.3091,2.3091,2.3091,2.3091,2.3091,2.3091,2.2984,2.2607,2.2178,2.1758,2.1278,0.0,0.0,2.0225,2.0029,1.9746,1.9212,1.8831,1.852,1.8266,1.8081,1.8008,1.8008,1.7568,1.7165,1.7021,1.6191,0.0,0.0,0.0,1.3919,1.3525,1.3506,0.0,0.0,0.0,0.0,0.0,0.0,0.0,0.0,1.0654,1.084,0.0,0.0,0.0,0.0,0.0,0.0,0.0,0.0,0.0,0.0,0.0,0.0,0.0,0.0,0.0,0.0,2.2939,2.4404,2.5028,2.5165,2.5194,2.5194,2.5879,2.6406,2.6455,2.6602,2.6826,2.7139,2.7158,2.749,2.8252,0.0,0.0,0.0,0.0,2.8291,2.8291,2.8291,2.8291,2.8291,2.8291,2.8291,2.8291,2.8291,2.8291,2.8291,2.8291,2.8291,2.8291,2.8291,2.8018,2.7601,2.7109,2.6748,2.6416,2.5918,2.5693,2.5693,2.5693,0.0,0.0,2.5693,2.5693,2.5693,2.5693,2.5391,2.5059,2.5391,2.4378,2.3179,2.311,2.3091,2.3091,2.3091,2.3091,2.2984,2.2607,2.2178,2.1758,2.1278,2.0869,2.0605,2.0605,2.0244,1.9971,1.9922,1.9231,1.8715,1.8617,1.8276,1.8057,1.8018,0.0,0.0,1.7422,1.6652,1.6124,1.6026,1.4873,1.4016,1.3672,1.3652,1.3652,1.3652,1.3578,1.3734,1.4104,1.4104,1.4163,1.4202,1.2184,1.1904,0.0,0.0,0.0,0.0,0.0,0.0,0.0,0.0,0.0,0.0,0.0,0.0,0.0,0.0,0.0,2.1543,2.3809,2.5322,2.5145,2.5381,2.5557,2.5557,2.6074,2.6523,2.6865,2.7236,2.7617,2.8018,2.8047,2.8115,2.8281,2.8291,2.8291,2.8291,2.8291,2.8291,2.8291,2.8291,2.8291,2.8291,0.0,0.0,2.8291,2.8291,2.8291,2.8291,2.8291,2.8291,2.8291,2.8291,2.7832,2.71,2.668,2.626,2.584,2.5732,2.5693,2.5693,2.5693,2.5693,2.5693,2.5693,2.5693,2.5693,2.5693,2.5615,0.0,2.458,2.4102,2.3686,2.3218,2.3091,2.3091,2.3091,2.3091,2.2984,2.2607,2.2178,2.1758,2.1278,2.0869,2.0605,2.0605,2.0537,2.0322,1.9971,1.9775,1.9377,1.8685,1.8529,1.8354,1.8047,1.7705,1.7471,1.7425,1.6904,1.6268,1.5586,1.498,1.4619,1.4541,1.4541,1.4541,1.4541,1.4189,1.4026,1.4104,1.4104,1.4465,1.5108,1.3997,1.3617,0.0,0.0,0.0,0.0,0.0,0.0,0.0,0.0,0.0,0.0,0.0,1.9308,1.9858,0.0,2.2259,2.3345,2.456,2.54,2.54,2.5547,2.5693,2.5693,2.6123,2.6465,2.668,2.7471,2.8066,2.8271,2.8291,2.8291,2.8291,2.8291,2.8291,2.8291,2.8291,2.8291,2.8291,2.8291,2.8291,2.8291,2.8291,2.8291,2.8291,2.8291,2.8291,2.8291,2.8291,2.8291,2.8291,2.8291,2.7793,2.6992,2.6787,2.6309,2.5693,2.5693,2.5693,2.5693,2.5693,2.5693,2.5693,2.5693,2.5693,2.5693,2.5693,2.5693,2.5479,2.4502,2.4121,2.3877,2.3247,2.3091,2.3091,2.3091,2.3091,2.3033,2.2828,2.2334,2.1816,2.1602,2.1025,2.0605,2.0605,2.0605,2.0527,2.0273,2.0059,1.9756,1.9299,1.887,1.852,1.8315,1.7949,1.7695,1.7695,1.7305,1.6777,1.6083,1.5849,1.5762,1.5762,1.5576,1.5449,1.5449,1.5,1.4883,1.5098,1.5098,1.5439,1.6034,1.5605,1.54,0.0,0.0,0.0,0.0,0.0,0.0,0.0,2.0714,2.0698,2.1822,2.2054,2.2179,2.267,2.3184,2.3912,2.4949,2.5184,2.5322,2.5635,2.5693,2.5693,2.5693,2.6123,2.6387,2.6387,2.7393,2.8076,2.8164,2.8174,2.8203,2.8291,2.8291,2.8291,2.8291,2.8291,2.8291,2.8291,2.8291,2.8291,2.8291,2.8291,2.8291,2.8291,2.8291,2.8291,2.8291,2.8291,2.8291,2.8291,2.8291,2.7793,2.7012,2.7012,2.6494,2.5693,2.5693,2.5693,2.5693,2.5693,2.5693,2.5693,2.5693,2.5693,2.5693,2.5693,2.5693,2.5508,2.4668,2.4258,2.3945,2.3257,2.3091,2.3091,2.3091,2.3091,2.3071,2.2994,2.2422,2.1865,2.1777,2.1113,2.0605,2.0605,2.0605,2.0605,2.0605,2.0264,1.998,1.9814,1.9153,1.8666,1.85,1.8178,1.8008,1.8008,1.7627,1.7236,1.6853,1.6746,1.6697,1.6697,1.6387,1.6222,1.6222,1.585,1.584,1.6222,1.6222,1.6426,1.6824,1.6824,1.6785,1.7193,1.8124,1.957,2.1951,2.1933,2.2585,0.0,2.555,2.3334,2.5446,2.464,2.3585,2.3658,2.4307,2.4949,2.5096,2.54,2.5635,2.5684,2.5693,2.5693,2.5693,2.6123,2.6387,2.6387,2.6855,2.7324,2.7757,2.7787,2.79,2.8271,2.8291,2.8291,2.8291,2.8291,2.8291,2.8291,2.8291,2.8291,2.8291,2.8291,2.8291,2.8291,2.8291,2.8291,2.8291,2.8291,2.8291,2.8291,2.8291,2.7793,2.7012,2.7012,2.6494,2.5693,2.5693,2.5693,2.5693,2.5693,2.5693,2.5693,2.5693,2.5693,2.5693,2.5693,2.5693,2.5508,2.4668,2.4394,2.418,2.3305,2.3091,2.3091,2.3091,2.3091,2.2994,2.2656,2.2217,2.1777,2.1346,2.0908,2.0605,2.0605,2.0605,2.0605,2.0605,2.0566,2.0253,1.9453,1.9277,1.8926,1.8164,1.8037,1.8008,1.8008,1.7627,1.7396,1.7314,1.6943,1.6697,1.6697,1.6648,1.6629,1.6629,1.658,1.658,1.6629,1.6629,1.6885,1.7314,1.7314,1.7109,2.0714,2.0812,2.1106,2.3583,2.4529,2.5564,2.82,2.7308,2.6137,2.7021,2.6273,2.5365,2.4967,2.5215,2.5459,0.0,2.5567,2.5693,2.5693,2.5693,2.5596,2.5381,2.5742,2.6006,2.6006,2.6396,2.6826,2.7256,2.7529,2.7904,2.8271,2.8291,2.8291,2.8291,2.8291,2.8291,2.8291,2.8291,2.8291,2.8291,2.8291,2.8291,2.8291,2.8291,2.8291,2.8291,2.8291,2.8291,2.8291,2.8291,2.7793,2.7012,2.7012,2.6494,2.5693,2.5693,2.5693,2.5693,2.5693,2.5693,2.5693,2.5693,2.5693,2.5693,2.5693,2.5693,2.5557,2.4971,2.4609,2.4277,2.3672,2.3286,2.3091,2.3091,2.3091,2.3052,2.2877,2.2549,2.2119,2.1699,2.126,2.0869,2.0644,2.0605,2.0605,2.0605,2.0605,2.038,1.9727,1.9443,1.8955,1.8105,1.8008,1.8008,1.8008,1.7852,1.7744,1.7744,1.7578,1.7447,1.7447,1.7246,1.7109,1.7109,1.6833,1.6824,1.7109,1.7109,1.7334,1.7744,1.7744,1.7646,2.1985,2.2054,2.2342,2.439,2.6241,2.7696,2.8137,2.7881,2.7609,2.7668,2.6901,2.6117,2.5633,2.5557,2.5557,2.5557,2.5615,2.5693,2.5693,2.5586,2.5478,2.5273,2.543,2.5605,2.5674,2.6025,2.6435,2.6973,2.7305,2.7725,2.8262,2.8291,2.8291,2.8291,2.8291,2.8291,2.8291,2.8291,2.8291,2.8291,2.8291,2.8291,2.8291,2.8291,2.8291,2.8291,2.8291,2.8291,2.8291,2.8291,2.7793,2.7012,2.7012,2.6494,2.5693,2.5693,2.5693,2.5693,2.5693,2.5693,2.5693,2.5693,2.5693,2.5693,2.5693,2.5693,2.5644,2.5195,2.4756,2.4316,2.3896,2.3467,2.3091,2.3091,2.3091,2.3091,2.3091,2.2715,2.2246,2.1943,2.1435,2.0947,2.0664,2.0605,2.0605,2.0605,2.0605,2.0449,1.9971,1.9443,1.8828,1.8086,1.8008,1.8008,1.8008,1.8008,1.8008,1.8008,1.8008,1.8008,1.8008,1.7715,1.7559,1.7559,1.7246,1.7246,1.7559,1.7559,1.7715,1.8008,1.8008,1.8008,1.9354,2.0809,2.2809,2.4241,2.6483,2.8403,2.8553,2.7646,2.6903,2.7489,2.6273,2.5116,2.5135,2.5135,2.5135,2.5135,2.5449,2.5693,2.5693,2.5361,2.5244,2.5615,2.5352,2.5254,0.0,2.5703,2.6064,2.6953,2.7021,2.7402,2.8242,2.8291,2.8291,2.8291,2.8291,2.8291,2.8291,2.8291,2.8291,2.8291,2.8291,2.8291,2.8291,2.8291,2.8291,2.8291,2.8291,2.8291,2.8291,2.8291,2.7793,2.7012,2.7012,2.6494,2.5693,2.5693,2.5693,2.5693,2.5693,2.5693,2.5693,2.5693,2.5693,2.5693,2.5693,2.5693,2.5644,2.5195,2.4756,2.4316,2.3896,2.3467,2.3091,2.3091,2.3091,2.3091,2.3091,2.249,2.1904,2.1885,2.1222,2.0615,2.0605,2.0605,2.0605,2.0605,2.0605,2.0449,1.9971,1.9143,1.8451,1.8057,1.8008,1.8008,1.8008,1.8008,1.8008,1.8008,1.8008,1.8008,1.8008,1.7998,1.7988,1.7988,1.7978,1.7978,1.7988,1.7988,1.7998,1.8008,1.8008,1.8008,2.0227,2.1478,2.3003,2.521,2.6562,2.7708,2.889,2.8164,2.7259,2.7159,2.5801,2.4551,2.4268,2.4219,2.4307,2.459,2.501,2.54,2.5645,2.5557,2.5459,2.5312,2.543,0.0,0.0,0.0,0.0,2.6562,2.6855,2.7266,2.7851,2.8135,2.8291,2.8291,2.8291,2.8291,2.8291,2.8291,2.8291,2.8291,2.8291,2.8291,2.8291,2.8291,2.8291,2.8291,2.8291,2.8291,2.8291,2.8291,2.7793,2.7012,2.7012,2.6494,2.5693,2.5693,2.5693,2.5693,2.5693,2.5693,2.5693,2.5693,2.5693,2.5693,2.5693,2.5693,2.5654,2.5557,2.498,2.4385,2.4238,2.3627,2.3091,2.3091,2.3091,2.3091,2.3091,2.2877,2.2549,2.1992,2.1641,2.129,2.0703,2.0605,2.0605,2.0605,2.0312,2.0078,1.9932,1.9134,1.8549,1.8403,1.8174,1.8008,1.8008,1.8008,1.8008,1.8008,1.8008,1.8008,1.8008,1.8008,1.8008,1.8008,1.8008,1.8008,1.8008,1.8008,1.8008,1.8008,1.8008,1.8008,2.122,2.2165,2.3211,2.5335,2.6156,2.6713,2.7657,2.728,2.6474,2.5685,2.4481,2.3379,2.2949,2.2744,2.293,2.3828,2.4326,2.4873,2.5586,2.5596,2.5449,2.5322,2.542,2.5449,0.0,0.0,0.0,2.6357,2.6777,2.7207,2.7689,2.8066,2.8291,2.8291,2.8291,2.8291,2.8291,2.8291,2.8291,2.8291,2.8291,2.8291,2.8291,2.8291,2.8291,2.8291,2.8291,2.8291,2.8291,2.8291,2.7881,2.7236,2.708,2.6592,2.5947,2.5742,2.5693,2.5693,2.5693,2.5693,2.5693,2.5693,2.5693,2.5693,2.5693,2.5693,2.5693,2.5693,2.5215,2.4648,2.4648,2.4014,2.3369,2.3369,2.3208,2.3091,2.3091,2.2974,2.2711,2.2217,2.1865,2.1475,2.0898,2.0713,2.0605,2.0605,2.0322,2.0088,1.9932,1.9397,1.8939,1.8637,1.8364,1.8174,1.8018,1.8008,1.8008,1.8008,1.8008,1.8008,1.8008,1.8008,1.8008,1.8008,1.8008,1.8008,1.8008,1.8008,1.8008,1.8008,1.8008,1.8086,2.2217,2.2857,2.3491,2.4795,2.54,2.5596,2.5213,2.5067,2.4609,2.3296,2.2373,2.1611,0.0,0.0,2.1114,2.2797,2.3521,2.4258,2.5479,2.5361,2.5254,0.0,0.0,0.0,0.0,0.0,0.0,2.6387,0.0,2.7207,2.7689,2.8066,2.8291,2.8291,2.8291,2.8291,2.8291,2.8291,2.8291,2.8291,2.8291,2.8291,2.8291,2.8291,2.8291,2.8291,2.8291,2.8291,2.8291,2.8291,2.8047,2.7679,2.7207,2.6777,2.6338,2.5918,2.5703,2.5693,2.5693,2.5693,2.5693,2.5693,2.5693,2.5693,2.5693,2.5693,2.5693,2.5693,2.541,2.5116,2.5116,2.4434,2.3789,2.3789,2.3457,2.3091,2.3091,2.2779,2.2539,2.2519,2.1785,2.119,2.1161,2.085,2.0605,2.0605,2.0605,2.0458,2.0,1.9922,1.96,1.8724,1.8617,1.8432,1.8047,1.8008,1.8008,1.8008,1.8008,1.8008,1.8008,1.8008,1.8018,1.8047,1.8047,1.8047,1.8047,1.8057,1.8057,1.8047,1.8066,1.8256,2.3115,2.4014,2.4736,2.54,2.54,2.5205,2.5145,2.4372,2.3423,2.2402,2.1006,1.9717,1.8975,1.9521,2.0332,2.1143,2.293,0.0,2.5146,2.543,0.0,2.5674,2.5918,2.6094,2.6211,2.6504,0.0,0.0,2.6953,2.7207,2.7689,2.8066,2.8291,2.8291,2.8291,2.8291,2.8291,2.8291,2.8291,2.8291,2.8291,2.8291,2.8291,2.8291,2.8291,2.8291,2.8291,2.8291,2.8291,2.8291,2.8047,2.7708,2.7591,2.7041,2.6377,2.6269,2.6016,2.5693,2.5693,2.5693,2.5693,2.5693,2.5693,2.5693,2.5693,2.5693,2.5693,2.5693,2.541,2.5116,2.5116,2.4434,2.3789,2.3789,2.3457,2.3091,2.3091,2.3013,2.2847,2.2578,2.1785,2.1083,2.0791,2.0683,2.0605,2.0605,2.0605,2.0566,2.0449,2.0117,1.9717,1.918,1.8792,1.8432,1.8047,1.8008,1.8008,1.8008,1.8008,1.8008,1.8008,1.8008,1.812,1.8432,1.8442,1.8442,1.8442,1.8799,1.8799,1.8451,1.8809,1.9014,2.4053,2.4844,2.543,2.5625,2.54,2.492,2.4111,2.3252,2.2132,2.0283,1.8975,1.79,1.7031,1.7773,1.8906,2.0088,2.2139,2.3935,2.4979,2.5449,2.5762,2.5996,2.624,2.6465,2.665,2.6875,2.709,0.0,2.7305,2.7402,2.7708,2.8066,2.8291,2.8291,2.8291,2.8291,2.8291,2.8291,2.8291,2.8291,2.8291,2.8291,2.8291,2.8291,2.8291,2.8291,0.0,2.8291,2.8291,2.8291,2.8154,2.792,2.7796,2.7425,2.6934,2.6738,2.6396,2.6025,2.6025,2.5849,2.5693,2.5693,2.5693,2.5693,2.5693,2.5693,2.5693,2.5693,2.5557,2.5361,2.5361,2.4717,2.4062,2.4062,2.3594,2.3091,2.3091,2.3091,2.2916,2.2353,2.1846,2.1318,2.0713,2.0605,2.0605,2.0605,2.0605,2.0605,2.0605,2.0352,2.0039,1.9609,1.918,1.875,1.8286,1.8081,1.8008,1.8008,1.8008,1.8008,1.8008,1.8184,1.8364,1.8598,1.8792,1.8926,1.8926,1.917,1.916,1.8926,1.918,1.9385,2.4941,2.5439,2.5693,2.5693,2.5312,2.4482,2.2881,2.1963,2.0654,1.7793,1.6768,1.6083,1.5234,1.5907,1.7272,1.9336,2.1221,2.3027,2.4736,2.5371,2.583,2.6328,2.6435,2.6641,2.706,2.7148,2.7344,2.7777,2.7806,2.7806,2.7806,2.8096,2.8291,2.8291,2.8291,2.8291,2.8291,2.8291,2.8291,2.8291,2.8291,2.8291,2.8291,2.8291,2.8291,2.8291,0.0,0.0,2.8291,2.8291,2.8291,2.8262,2.7891,2.7767,2.7669,2.7236,2.6797,2.6387,2.6387,2.6103,2.5693,2.5693,2.5693,2.5693,2.5693,2.5693,2.5693,2.5693,2.5693,2.5693,2.5693,2.5031,2.4414,2.4414,2.3715,2.3091,2.3091,2.3091,2.2867,2.2119,2.1973,2.1689,2.084,2.0693,2.0674,2.0615,2.0605,2.0605,2.0605,2.0605,2.0439,1.9961,1.959,1.9199,1.8724,1.8354,1.8174,1.8174,1.8174,1.8174,1.8174,1.85,1.8715,1.8773,1.918,1.9375,1.9375,1.9424,1.9424,1.9375,1.9434,1.9648,2.5478,2.5625,2.5693,2.5693,2.4873,2.375,2.2734,2.0752,1.8617,1.6721,1.5381,1.4299,1.3477,1.4911,1.6682,1.8105,2.04,2.2588,2.4287,2.4912,2.5488,2.6289,2.6699,2.708,2.751,2.7871,0.0,0.0,0.0,2.8184,2.8184,2.8252,2.8291,2.8291,2.8291,2.8291,2.8291,2.8291,2.8291,2.8291,2.8291,2.8291,2.8291,2.8291,2.8291,2.8291,2.8291,0.0,2.8291,2.8291,2.8291,2.8281,2.8213,2.7969,2.7708,2.764,2.706,2.6387,2.6387,2.6103,2.5693,2.5693,2.5693,2.5693,2.5693,2.5693,2.5693,2.5693,2.5693,2.5693,2.5693,2.5031,2.4414,2.4414,2.3715,2.3091,2.3091,2.3091,2.2945,2.25,2.2402,2.2129,2.1269,2.1123,2.0996,2.0664,2.0605,2.0605,2.0605,2.0605,2.0439,1.9961,1.9853,1.9639,1.9209,1.9102,1.9062,1.9062,1.9062,1.9062,1.9062,1.9131,1.9336,1.9687,1.9766,1.9805,1.9805,2.0204,2.0166,1.9814,2.0176,2.0419,2.5567,2.5693,2.5635,2.5449,2.459,2.3271,2.1289,1.9355,1.7305,1.493,1.373,1.2993,1.2617,1.3916,1.5488,1.6787,1.8799,2.0957,2.3115,2.3799,2.4639,2.6201,2.6758,2.7187,2.7679,2.8047,2.8291,2.8291,0.0,2.8291,2.8291,2.8291,2.8291,2.8291,2.8291,2.8291,2.8291,2.8291,2.8291,2.8291,2.8291,2.8291,2.8291,2.8291,2.8291,2.8291,2.8291,0.0,2.8291,2.8291,2.8291,2.8291,2.8291,2.8164,2.7988,2.7988,2.7451,2.6709,2.6709,2.6289,2.5693,2.5693,2.5693,2.5693,2.5693,2.5693,2.5693,2.5693,2.5693,2.5693,2.5693,2.5031,2.4414,2.4414,2.3715,2.3091,2.3091,2.3091,2.2974,2.2598,2.251,2.2314,2.168,2.1346,2.1122,2.0947,2.0713,2.0605,2.0605,2.0605,2.0517,2.0273,2.0049,1.9834,1.9629,1.9414,1.9287,1.9287,1.9287,1.9287,1.9287,1.9502,1.9707,1.9912,2.0137,2.0254,2.0254,2.0507,2.0498,2.0254,2.0507,2.0605,2.5567,2.5693,2.5586,2.5176,2.4355,2.2891,1.9951,1.8189,1.63,1.334,1.2393,1.2057,1.2057,1.2954,1.4211,1.584,1.7275,1.9163,2.1992,2.2822,2.3916,2.6006,2.6699,0.0,2.7679,2.8047,0.0,2.8291,0.0,0.0,2.8291,2.8291,2.8291,2.8291,2.8291,2.8291,2.8291,2.8291,2.8291,2.8291,2.8291,2.8291,2.8291,2.8291,2.8291,2.8291,2.8291,0.0,0.0,2.8291,2.8291,2.8291,2.8291,2.8291,2.8281,2.8193,2.7676,2.7002,2.6914,2.6377,2.5693,2.5693,2.5693,2.5693,2.5693,2.5693,2.5693,2.5693,2.5693,2.5693,2.5693,2.5146,2.4512,2.4326,2.3656,2.3091,2.3091,2.3091,2.3003,2.2672,2.2646,2.251,2.209,2.166,2.1307,2.121,2.0859,2.0605,2.0605,2.0605,2.0605,2.0605,2.0254,2.0059,2.0059,1.9746,1.9597,1.9597,1.9597,1.9597,1.9597,1.9883,2.0059,2.0059,2.0429,2.0605,2.0605,2.0605,2.0605,2.0605,2.0605,2.0605,2.5567,2.5693,2.5586,2.5176,2.4121,2.2467,1.9883,1.7709,1.5478,1.2808,1.1934,1.1665,1.1665,1.2051,1.3188,1.5694,1.6543,1.8052,2.1465,2.2689,2.3818,2.5538,0.0,0.0,2.7679,2.8047,2.8291,0.0,0.0,0.0,2.8291,2.8291,2.8291,2.8291,2.8291,2.8291,2.8291,2.8291,2.8291,2.8291,2.8291,2.8291,2.8291,2.8291,2.8291,2.8291,2.8291,0.0,0.0,2.8291,2.8291,2.8291,2.8291,2.8291,2.8252,2.7861,2.7422,2.6963,2.6572,2.6133,2.5693,2.5693,2.5693,2.5693,2.5693,2.5693,2.5693,2.5693,2.5693,2.5693,2.5693,2.5371,2.4861,2.4033,2.3486,2.3091,2.3091,2.3091,2.3081,2.3042,2.3033,2.2906,2.2529,2.2109,2.1689,2.1249,2.0859,2.0605,2.0605,2.0605,2.0605,2.0605,2.0566,2.0546,2.0546,2.0507,2.0488,2.0488,2.0488,2.0488,2.0488,2.0527,2.0546,2.0546,2.0586,2.0605,2.0605,2.0605,2.0605,2.0605,2.0605,2.0605,2.5078,2.5527,2.5518,2.4853,2.3711,2.2021,1.917,1.6846,1.4657,1.2328,1.1301,1.0968,1.1508,1.1494,1.2086,1.4189,1.4463,1.5527,1.873,1.9902,2.1367,2.3832,2.5166,0.0,0.0,0.0,2.8018,0.0,0.0,0.0,2.8291,2.8291,2.8291,2.8291,2.8291,2.8291,2.8291,2.8291,2.8291,2.8291,2.8291,2.8291,2.8291,2.8291,2.8291,2.8291,2.8291,0.0,0.0,2.8291,2.8291,2.8271,2.8018,2.792,2.7861,2.7432,2.7002,2.6621,2.6445,2.6103,2.5693,2.5693,2.5693,2.5693,2.5693,2.5693,2.5693,2.5693,2.5693,2.5693,2.5693,2.5205,2.4531,2.3935,2.3457,2.3091,2.3091,2.3091,2.3091,2.3091,2.3091,2.3042,2.2877,2.2539,2.2119,2.1689,2.125,2.0869,2.0635,2.0605,2.0605,2.0605,2.0605,2.0605,2.0605,2.0605,2.0605,2.0605,2.0605,2.0605,2.0605,2.0605,2.0605,2.0605,2.0605,2.0605,2.0605,2.0605,2.0605,2.0605,2.0605,2.0605,2.4346,2.501,2.5118,2.4414,2.3174,2.1406,1.8643,1.6338,1.4197,1.2047,1.0997,1.0674,1.1281,1.1113,1.1436,1.3057,1.3281,1.4219,1.6992,1.8223,1.9728,2.2233,0.0,2.4961,0.0,2.7109,2.7894,0.0,0.0,0.0,2.8291,2.8291,2.8291,2.8291,2.8291,2.8291,2.8291,2.8291,2.8291,2.8291,2.8291,2.8291,2.8291,2.8698,2.8698,2.8344,0.0,0.0,0.0,2.871,2.863,2.8376,2.7734,2.7471,2.7422,2.6992,2.6882,2.6933,2.6813,2.6553,2.6245,2.6245,2.6014,2.5693,2.5693,2.5693,2.5693,2.5693,2.5693,2.5693,2.5693,2.5031,2.4346,2.4043,2.3545,2.3091,2.3091,2.3091,2.3091,2.3091,2.3091,2.3091,2.3091,2.275,2.2412,2.2119,2.1592,2.1083,2.0801,2.0683,2.0605,2.0605,2.0605,2.0605,2.0605,2.0605,2.0605,2.0605,2.0605,2.0605,2.0605,2.0605,2.0605,2.0605,2.0605,2.0605,2.0605,2.0605,2.0605,2.0605,2.0605,2.0674,2.3457,2.4111,2.4326,2.3906,2.251,2.0644,1.8506,1.6338,1.4197,1.2047,1.1211,1.0908,1.0918,1.0897,1.1348,1.27,1.3584,1.4855,1.708,1.8477,1.9775,0.0,0.0,2.3452,2.4355,2.6396,0.0,0.0,0.0,0.0,2.8291,2.8291,2.8291,2.8291,2.8291,2.8291,2.8291,2.8291,2.8291,2.8291,2.8291,2.8291,2.8344,2.966,2.9555,0.0,0.0,0.0,0.0,2.9646,2.9323,2.8705,2.746,2.7021,2.6973,2.6543,2.714,2.8101,2.7709,2.7589,2.7589,2.7589,2.6716,2.5693,2.5693,2.5693,2.5693,2.5693,2.5693,2.5693,2.5693,2.5031,2.4414,2.4414,2.3715,2.3091,2.3091,2.3091,2.3091,2.3091,2.3091,2.3091,2.3091,2.275,2.251,2.251,2.1736,2.119,2.119,2.084,2.0605,2.0605,2.0605,2.0605,2.0605,2.0605,2.0605,2.0605,2.0605,2.0605,2.0605,2.0605,2.0605,2.0605,2.0605,2.0605,2.0605,2.0605,2.0605,2.0605,2.0605,2.0801,2.0947,2.168,2.2019,2.1328,2.0255,1.8939,1.7109,1.5244,1.3467,1.1907,1.1007,1.0566,1.0859,1.0908,1.1511,1.3402,1.3938,1.4767,1.667,1.8545,0.0,2.1073,2.3682,2.5469,0.0,0.0,0.0,0.0,0.0,0.0,2.7422,2.7422,2.7685,2.8271,2.8291,2.8154,2.7861,2.7861,2.7715,2.7422,2.7422,2.7422,2.7474,2.8686,0.0,0.0,0.0,0.0,0.0,3.0379,2.9751,2.8703,2.8076,2.7341,2.6533,2.6103,2.6687,2.7778,2.7641,2.7589,2.7589,2.7589,2.6754,2.5693,2.5693,2.5693,2.5693,2.5693,2.5693,2.5693,2.5693,2.5031,2.4414,2.4414,2.3715,2.3091,2.3091,2.3091,2.3091,2.3091,2.3091,2.3091,2.3091,2.2984,2.2799,2.2559,2.2285,2.2002,2.1719,2.1553,2.1357,2.1055,2.1025,2.0898,2.0635,2.0605,2.0605,2.0605,2.0605,2.0605,2.0605,2.0605,2.0752,2.1016,2.1025,2.1172,2.1505,2.1505,2.1505,2.1505,2.1505,2.1543,1.8906,1.9834,2.0371,1.9814,1.8754,1.7555,1.6378,1.4637,1.2949,1.1841,1.1027,1.0596,1.0839,1.1045,1.165,1.3149,1.3792,1.466,1.626,1.8184,0.0,2.1492,0.0,0.0,0.0,0.0,0.0,0.0,0.0,0.0,2.7012,2.7012,2.7256,2.7793,2.7812,2.7685,2.7422,2.7422,2.7285,2.7012,2.7012,2.7257,2.7733,2.8992,0.0,0.0,0.0,0.0,0.0,3.1222,3.0625,2.9664,2.8953,2.819,2.7507,2.7218,2.7579,2.8366,2.8819,2.8366,2.7683,2.8132,2.7125,2.5693,2.5693,2.5693,2.5693,2.5693,2.5693,2.5693,2.5693,2.5031,2.4414,2.4414,2.3715,2.3091,2.3091,2.3091,2.3091,2.3091,2.3091,2.3091,2.3091,2.3091,2.3003,2.274,2.2617,2.2412,2.2158,2.1982,2.1777,2.1514,2.1444,2.1367,2.1124,2.0791,2.0674,2.081,2.082,2.0898,2.1094,2.1104,2.1191,2.1475,2.1444,2.1611,2.1885,2.1885,2.1885,2.1894,2.2051,2.2129,0.0,1.8311,1.8955,1.8926,1.7725,1.6395,1.6016,1.4353,0.0,1.1792,1.1261,1.0967,1.0996,1.1359,1.1829,1.2389,1.3471,1.4708,1.6095,1.7783,0.0,0.0,2.3447,0.0,2.5086,0.0,0.0,0.0,0.0,0.0,2.6924,2.6924,2.6924,2.6924,2.6924,2.6943,2.6973,2.6973,2.6953,2.6924,2.7025,2.7643,2.8739,3.0244,0.0,0.0,0.0,0.0,0.0,3.2108,3.1776,3.1089,2.9954,2.9498,2.9407,2.9407,2.9453,2.9681,3.081,2.9681,2.7861,2.8819,2.7579,2.5693,2.5693,2.5693,2.5693,2.5693,2.5693,2.5693,2.5693,2.5031,2.4414,2.4414,2.3715,2.3091,2.3091,2.3091,2.3091,2.3091,2.3091,2.3091,2.3091,2.3091,2.3091,2.3091,2.2769,2.2559,2.2559,2.2217,2.1963,2.1934,2.1934,2.1924,2.1885,2.1173,2.084,2.122,2.1239,2.1465,2.1865,2.1885,2.1894,2.1934,2.1963,2.1982,2.1982,2.1982,2.1982,2.1982,2.2373,2.2559,1.4424,0.0,1.5762,1.54,1.5011,1.4601,0.0,1.3477,1.2651,1.1792,1.1518,1.1535,1.1833,1.1979,1.2754,1.4852,1.5439,1.6172,1.7803,2.005,0.0,2.466,2.5109,2.5313,2.5557,0.0,0.0,0.0,0.0,2.5996,2.5996,2.5996,2.5996,2.5996,2.5996,2.6201,2.6533,2.6533,2.6367,2.6035,2.6972,2.7627,2.7952,3.0124,0.0,0.0,0.0,0.0,3.281,3.2854,3.2218,3.1178,3.0899,3.0214,2.9407,2.9407,3.0,3.081,3.1078,3.0214,2.8727,2.7067,2.6197,2.5693,2.5693,2.5693,2.5693,2.5693,2.5693,2.5693,2.5693,2.5031,2.4414,2.4414,2.3715,2.3091,2.3091,2.3091,2.3091,2.3091,2.3091,2.3091,2.3091,2.3091,2.3091,2.3091,2.3013,2.2945,2.2945,2.2867,2.2682,2.2402,2.2363,2.2236,2.1914,2.1699,2.1621,2.1728,2.1738,2.1777,2.1885,2.1885,2.2041,2.2353,2.2643,2.2799,2.2799,2.2799,2.2799,2.2808,2.2896,2.2945,1.3223,1.4131,1.5019,1.4747,1.4552,1.4375,1.415,1.3311,1.2451,1.1963,1.1731,1.178,1.2412,1.2662,1.3398,1.5214,1.5977,1.7178,0.0,0.0,2.3682,2.5244,2.5567,2.5693,0.0,0.0,0.0,0.0,0.0,2.5693,2.5693,2.5693,2.5693,2.5693,2.5693,2.5801,2.6084,2.6094,2.5967,2.5684,2.638,2.7305,2.8448,2.9772,3.1,0.0,0.0,0.0,3.3124,3.3124,3.2698,3.2052,3.2052,3.1689,3.1101,3.1101,3.1134,3.1267,3.1865,3.0911,2.8993,2.6514,2.5693,2.5693,2.5693,2.5693,2.5693,2.5693,2.5693,2.5693,2.5693,2.5031,2.4414,2.4414,2.3715,2.3091,2.3091,2.3091,2.3091,2.3091,2.3091,2.3091,2.3091,2.3091,2.3091,2.3091,2.3091,2.3091,2.3091,2.3091,2.3013,2.2779,2.2803,2.2705,2.248,2.2461,2.2383,2.2187,2.2168,2.2266,2.2451,2.2461,2.2568,2.275,2.2984,2.3091,2.3091,2.3091,2.3091,2.3091,2.3091,2.3091,1.3062,1.4268,1.5449,1.5186,1.4951,1.4766,1.4697,1.3516,1.2379,1.232,1.208,1.2152,1.3032,1.3516,1.4121,1.5117,1.6367,1.8198,2.1083,2.2832,2.4131,2.5059,2.5508,0.0,0.0,0.0,0.0,0.0,0.0,2.5693,2.5693,2.5693,2.5693,2.5693,2.5693,2.5693,2.5693,2.5693,2.5693,2.5693,2.61,2.7389,2.9407,2.9772,3.1101,0.0,0.0,0.0,3.3124,3.3124,3.3124,3.3124,3.3124,3.3124,3.3124,3.3124,3.2426,3.1589,3.2283,3.1146,2.8993,2.6514,2.5693,2.5693,2.5693,2.5693,2.5693,2.5693,2.5693,2.5693,2.5693,2.5127,2.4521,2.4521,2.3857,2.3198,2.3198,2.314,2.3091,2.3091,2.3091,2.3091,2.3091,2.3091,2.3091,2.3091,2.3091,2.3091,2.3091,2.3091,2.3091,2.3091,2.3091,2.3091,2.3091,2.3091,2.2945,2.2627,2.2607,2.2721,2.3081,2.3091,2.3091,2.3091,2.3091,2.3091,2.3091,2.3091,2.3091,2.3091,2.3091,2.3091,1.3724,1.4932,1.5645,1.416,1.4297,1.4687,1.4289,1.3734,1.3213,1.2852,1.3008,1.3467,1.4363,1.4834,1.5644,1.7256,1.8594,2.0234,0.0,0.0,2.4248,2.544,0.0,0.0,0.0,0.0,0.0,0.0,0.0,0.0,0.0,2.5693,2.5693,2.5693,2.5693,2.5693,2.5693,2.5693,2.5693,2.5732,2.7851,2.9039,2.9453,3.1557,3.2754,0.0,0.0,3.3124,3.3124,3.3124,3.3124,3.3124,3.3124,3.3124,3.3124,3.3124,3.2982,3.2525,3.0643,2.9727,2.8993,2.6514,2.5693,2.5693,2.5693,2.5693,2.5693,2.5693,2.5693,2.5693,2.5693,2.5352,2.4971,2.4971,2.4316,2.3691,2.3691,2.3398,2.3091,2.3091,2.3091,2.3091,2.3091,2.3091,2.3091,2.3091,2.3091,2.3091,2.3091,2.3091,2.3091,2.3091,2.3091,2.3091,2.3091,2.3091,2.3062,2.3003,2.3003,2.3033,2.3091,2.3091,2.3091,2.3091,2.3091,2.3091,2.3091,2.3091,2.3091,2.3091,2.3091,2.3091,1.2973,1.3877,1.4658,1.4561,1.5537,1.6416,1.5986,1.5527,1.5098,1.4715,1.4784,1.5038,1.5429,1.6211,1.7539,1.9746,2.0791,2.1826,2.3291,2.4108,2.4707,0.0,0.0,0.0,0.0,0.0,0.0,0.0,0.0,0.0,0.0,0.0,2.5693,2.5693,2.5693,2.5693,2.5693,2.5693,2.5693,2.5732,2.7531,2.8773,2.9453,3.1279,3.2426,3.3124,0.0,3.3124,3.3124,3.3124,3.3124,3.3124,3.3124,3.3124,3.3124,3.3124,3.2655,3.1821,3.0,2.8947,2.8132,2.6294,2.5693,2.5693,2.5693,2.5693,2.5693,2.5693,2.5693,2.5693,2.5693,2.54,2.5116,2.5116,2.459,2.4062,2.3838,2.3633,2.3418,2.314,2.3091,2.3091,2.3091,2.3091,2.3091,2.3091,2.3091,2.3091,2.3091,2.3091,2.3091,2.3091,2.3091,2.3091,2.3091,2.3091,2.3091,2.3091,2.3091,2.3091,2.3091,2.3091,2.3091,2.3091,2.3091,2.3091,2.3091,2.3091,2.3091,2.3091,2.3091,2.3091,1.272,1.3207,1.3909,1.5117,1.6338,1.7334,1.7607,1.7109,1.6592,1.666,1.6623,1.6584,1.6682,1.7725,1.9355,2.166,2.2393,2.2998,2.3955,2.4705,2.5155,0.0,0.0,0.0,0.0,0.0,0.0,0.0,0.0,0.0,0.0,0.0,2.5693,2.5693,2.5693,2.5693,2.5693,2.5693,2.5693,2.5742,2.7258,2.8505,2.9453,3.0956,3.2196,3.3124,3.3124,3.3124,3.3124,3.3124,3.3124,3.3124,3.3124,3.3124,3.3124,3.3124,3.2283,3.1033,2.9818,2.8588,2.74,2.611,2.5693,2.5693,2.5693,2.5693,2.5693,2.5693,2.5693,2.5693,2.5693,2.5478,2.5225,2.5225,2.4893,2.4482,2.416,2.3926,2.3691,2.3315,2.3169,2.3091,2.3091,2.3091,2.3091,2.3091,2.3091,2.3091,2.3091,2.3091,2.3091,2.3091,2.3091,2.3091,2.3091,2.3091,2.3091,2.3091,2.3091,2.3091,2.3091,2.3091,2.3091,2.3091,2.3091,2.3091,2.3091,2.3091,2.3091,2.3091,2.3091,2.3091,1.4277,1.4346,1.428,1.5195,1.5215,1.5635,1.7974,1.7275,1.6584,1.8091,1.81,1.7988,1.8344,1.9512,2.0879,2.2236,2.2832,2.3589,2.4851,0.0,0.0,0.0,0.0,0.0,0.0,0.0,0.0,0.0,0.0,0.0,2.5693,0.0,0.0,2.5693,2.5693,2.5693,2.5693,2.5693,2.5693,2.5732,2.8132,2.9315,2.9498,3.1877,3.3025,3.3124,3.3124,3.3124,3.3124,3.3124,3.3124,3.3124,3.3124,3.3124,3.3124,3.3124,3.2283,3.1033,2.9818,2.8588,2.74,2.611,2.5693,2.5693,2.5693,2.5693,2.5693,2.5693,2.5693,2.5693,2.5693,2.5664,2.5635,2.5635,2.5352,2.5057,2.5028,2.4355,2.3779,2.375,2.3418,2.3091,2.3091,2.3091,2.3091,2.3091,2.3091,2.3091,2.3091,2.3091,2.3091,2.3091,2.3091,2.3091,2.3091,2.3091,2.3091,2.3091,2.3091,2.3091,2.3091,2.3091,2.3091,2.3091,2.3091,2.3091,2.3091,2.3091,2.3091,2.3091,2.3091,2.3091,1.2988,1.3441,1.3987,1.5137,1.5703,1.6424,1.8198,1.8939,1.9463,2.0079,2.0342,2.0381,2.0235,2.0879,2.1848,2.3096,2.3662,2.4307,2.5342,0.0,0.0,0.0,0.0,0.0,0.0,0.0,0.0,0.0,0.0,0.0,0.0,0.0,0.0,2.5693,2.5693,2.5693,2.5693,2.5693,2.5693,2.5732,2.8215,2.9407,2.9498,3.1965,3.3124,3.3124,3.3124,3.3124,3.3124,3.3124,3.3124,3.3124,3.3124,3.3124,3.2982,3.2196,3.1134,2.9909,2.868,2.7447,2.6342,2.5878,2.5693,2.5693,2.5693,2.5693,2.5693,2.5693,2.5693,2.5693,2.5693,2.5693,2.5693,2.5693,2.5557,2.541,2.5127,2.4861,2.4502,2.4228,2.4043,2.3848,2.3584,2.3545,2.3457,2.314,2.3091,2.3091,2.3091,2.3091,2.3091,2.3091,2.3091,2.3091,2.3091,2.3091,2.3091,2.3091,2.3091,2.3091,2.3091,2.3091,2.3091,2.3091,2.3091,2.3091,2.3091,2.3091,2.3091,2.3091,2.3091,2.3091,1.2525,1.3066,1.3818,1.5098,1.6182,1.7272,1.8685,2.0068,2.1221,2.1894,2.206,2.1992,2.1658,2.1777,2.2305,0.0,2.4141,2.468,2.5567,0.0,0.0,0.0,0.0,0.0,0.0,0.0,0.0,0.0,0.0,0.0,0.0,0.0,0.0,0.0,2.5693,2.5693,2.5693,2.5693,2.5693,2.5732,2.7851,2.9039,2.9453,3.1557,3.2698,3.3124,3.3124,3.3124,3.3124,3.3124,3.284,3.2513,3.2513,3.2295,3.1833,3.0956,2.9863,2.8727,2.7908,2.6754,2.5693,2.5693,2.5693,2.5693,2.5693,2.5693,2.5693,2.5693,2.5693,2.5693,2.5693,2.5693,2.5693,2.5693,2.5693,2.5606,2.5352,2.5166,2.5028,2.4678,2.4512,2.4326,2.4033,2.3916,2.376,2.3413,2.3208,2.3091,2.3091,2.3091,2.3091,2.3091,2.3091,2.3091,2.3091,2.3091,2.3091,2.3091,2.3091,2.3091,2.3091,2.3091,2.3091,2.3091,2.3364,2.3637,2.391,2.3364,2.3091,2.311,2.3656,2.391,1.3496,1.3506,1.3828,1.5098,1.6426,1.7852,1.9551,2.0273,2.1241,2.3359,2.3125,2.2529,2.2519,2.2187,2.2314,2.3584,2.4141,2.4717,0.0,0.0,0.0,0.0,0.0,0.0,0.0,0.0,0.0,0.0,0.0,0.0,0.0,0.0,0.0,0.0,2.5693,2.5693,2.5693,2.5693,2.5693,2.5742,2.6982,2.8226,2.9453,3.0631,3.1909,3.3124,3.3124,3.3124,3.3124,3.3124,3.2382,3.1223,3.1223,3.0451,2.9407,2.9407,2.8634,2.7589,2.7589,2.6754,2.5693,2.5693,2.5693,2.5693,2.5693,2.5693,2.5693,2.5693,2.5693,2.5693,2.5693,2.5693,2.5693,2.5693,2.5693,2.5693,2.5693,2.5391,2.5125,2.5125,2.4727,2.4424,2.4424,2.4209,2.4023,2.4023,2.3471,2.3091,2.3091,2.3091,2.3091,2.3091,2.3091,2.3091,2.3091,2.311,2.312,2.312,2.312,2.311,2.3091,2.3091,2.3091,2.3091,2.3975,2.4844,2.5684,2.3939,2.3101,2.3159,2.4884,2.5693,1.2695,1.3685,1.501,1.5733,1.7797,2.0038,2.1416,2.207,2.2812,2.4375,2.4248,2.3662,2.3023,2.334,0.0,2.3433,2.3945,0.0,0.0,0.0,0.0,0.0,0.0,0.0,0.0,0.0,0.0,0.0,0.0,0.0,0.0,0.0,0.0,0.0,2.5693,2.5693,2.5693,2.5693,2.5693,2.5693,2.6062,2.7352,2.9453,3.0631,3.1909,3.3124,3.3124,3.3124,3.3124,3.3124,3.2884,3.2426,3.1545,3.0989,3.0451,2.8773,2.7908,2.7447,2.6572,2.6014,2.5693,2.5693,2.5693,2.5693,2.5693,2.5693,2.5693,2.5693,2.5693,2.5693,2.5693,2.5693,2.5693,2.5693,2.5693,2.5693,2.5693,2.5635,2.5537,2.5537,2.5391,2.5294,2.5294,2.5235,2.4962,2.4394,2.3598,2.3091,2.3091,2.3091,2.3091,2.3091,2.3091,2.3091,2.3091,2.4222,2.4923,2.4923,2.4923,2.4368,2.3149,2.3091,2.3091,2.3091,2.3344,2.4202,2.5684,2.3939,2.3725,2.4933,2.545,2.5693,1.3402,1.466,1.6162,1.7142,1.9001,2.1085,2.2852,2.3603,2.418,2.5137,2.4844,2.4258,2.3695,2.3789,0.0,2.3511,2.3838,0.0,0.0,0.0,0.0,0.0,0.0,0.0,0.0,0.0,0.0,0.0,0.0,0.0,0.0,0.0,0.0,0.0,2.5693,2.5693,2.5693,2.5693,2.5693,2.5693,2.5693,2.6754,2.8727,2.9943,3.0911,3.1645,3.2152,3.2612,3.3124,3.3124,3.2525,3.1557,3.0765,2.9897,2.8855,2.74,2.6849,2.6754,2.5965,2.5693,2.5693,2.5693,2.5693,2.5693,2.5693,2.5693,2.5693,2.5693,2.5693,2.5693,2.5693,2.5693,2.5693,2.5693,2.5693,2.5693,2.5693,2.5693,2.5693,2.5693,2.5693,2.5693,2.5693,2.5693,2.5508,2.5019,2.4456,2.4124,2.4124,2.352,2.3091,2.3091,2.3715,2.4124,2.4124,2.5089,2.5693,2.5693,2.5693,2.5216,2.4173,2.4124,2.4124,2.4124,2.4124,2.4641,2.5693,2.4631,2.466,2.5693,2.5693,2.5693,1.4922,1.5966,1.7174,1.8916,2.0145,2.1525,2.3867,2.4727,2.5146,2.5586,2.5021,2.4463,2.4424,2.3789,2.3379,2.3682,0.0,0.0,0.0,0.0,0.0,0.0,0.0,0.0,0.0,0.0,0.0,0.0,0.0,0.0,0.0,0.0,0.0,2.5693,2.5693,2.5693,2.5693,2.5693,2.5693,0.0,2.5693,2.6294,2.7447,2.868,2.9315,2.9453,3.0676,3.1777,3.2797,3.3025,3.1689,2.9544,2.9453,2.8028,2.6014,2.5781,2.5693,2.5693,2.5693,2.5693,2.5693,2.5693,2.5693,2.5693,2.5693,2.5693,2.5693,2.5693,2.5693,2.5693,2.5693,2.5693,2.5693,2.5693,2.5693,2.5693,2.5693,2.5693,2.5693,2.5693,2.5693,2.5693,2.5693,2.5693,2.5693,2.5693,2.5693,2.5693,2.5693,2.4309,2.3335,2.3335,2.4738,2.5693,2.5693,2.5693,2.5693,2.5693,2.5693,2.5693,2.5693,2.5693,2.5693,2.5693,2.5693,2.5693,2.5693,2.5693,2.5693,2.5693,2.5693,2.5693,1.3838,1.5547,1.7656,1.9355,2.1445,2.333,2.4219,2.4492,2.4785,2.5528,2.5303,2.4824,2.4482,2.4268,2.3955,0.0,0.0,0.0,0.0,0.0,0.0,0.0,0.0,0.0,0.0,0.0,0.0,0.0,0.0,0.0,0.0,0.0,0.0,2.5674,2.5693,2.5693,2.5693,2.5693,2.5693,0.0,2.5693,2.583,2.6149,2.74,2.8495,2.9453,3.0676,3.081,3.0361,3.2295,3.2196,3.0721,2.9772,2.9085,2.8355,2.6428,2.5693,2.5693,2.5693,2.5693,2.5693,2.5693,2.5693,2.5693,2.5693,2.5693,2.5693,2.5693,2.5693,2.5693,2.5693,2.5693,2.5693,2.5693,2.5693,2.5693,2.5693,2.5693,2.5693,2.5693,2.5693,2.5693,2.5693,2.5693,2.5693,2.5693,2.5693,2.5693,2.5693,2.5362,2.5128,2.5128,2.5469,2.5693,2.5693,2.5693,2.5693,2.5693,2.5693,2.5693,2.5693,2.5693,2.5693,2.5693,2.5693,2.5693,2.5693,2.5693,2.5693,2.5693,2.5693,2.5693,1.4394,1.6025,1.7939,2.0273,2.2334,2.3848,2.4062,2.4277,2.4551,2.4962,2.4922,2.4629,2.4199,2.4111,2.3906,0.0,0.0,0.0,0.0,0.0,0.0,0.0,0.0,0.0,0.0,0.0,0.0,0.0,0.0,2.4219,0.0,2.4648,2.4863,2.505,2.506,2.506,2.506,2.506,2.506,2.506,2.506,2.506,2.5117,2.6189,2.7673,2.9407,2.9453,2.9453,2.9498,3.0777,3.0598,2.9407,2.8762,2.8179,2.7484,2.6197,2.5693,2.5693,2.5693,2.5693,2.5693,2.5693,2.5693,2.5693,2.5693,2.5693,2.5693,2.5693,2.5693,2.5693,2.5693,2.5693,2.5693,2.5693,2.5693,2.5693,2.5693,2.5693,2.5693,2.5693,2.5693,2.5693,2.5693,2.5693,2.5693,2.5693,2.5693,2.5693,2.5693,2.5693,2.5693,2.5693,2.5693,2.5693,2.5693,2.5693,2.5693,2.5693,2.5693,2.5693,2.5693,2.5693,2.5693,2.5693,2.5693,2.5693,2.5693,2.5693,2.5693,2.5693,2.5693,2.5693,1.4921,1.6564,1.8271,2.1103,2.2676,2.3555,2.3652,2.3945,2.4219,2.4287,2.4307,2.4199,2.3857,2.373,0.0,0.0,0.0,0.0,0.0,0.0,0.0,0.0,0.0,0.0,0.0,0.0,0.0,0.0,0.0,2.3711,2.3789,2.4121,2.4346,2.4414,2.4414,2.4414,2.4414,2.4414,2.4414,2.4414,2.4414,2.4414,2.4443,2.5128,2.6645,2.8585,2.7828,2.7964,2.8808,2.9223,2.868,2.7589,2.7589,2.6945,2.6014,2.5781,2.5693,2.5693,2.5693,2.5693,2.5693,2.5693,2.5693,2.5693,2.5693,2.5693,2.5693,2.5693,2.5693,2.5693,2.5693,2.5693,2.5693,2.5693,2.5693,2.5693,2.5693,2.5693,2.5693,2.5693,2.5693,2.5693,2.5693,2.5693,2.5693,2.5693,2.5693,2.5693,2.5693,2.5693,2.5693,2.5693,2.5693,2.5693,2.5693,2.5693,2.5693,2.5693,2.5693,2.5693,2.5693,2.5693,2.5693,2.5693,2.5693,2.5693,2.5693,2.5693,2.5693,2.5693,2.5693,2.5693,1.3032,1.584,1.8919,2.0977,2.1982,2.2617,2.3071,2.3227,2.3374,2.3799,2.3877,2.3857,2.3799,0.0,0.0,0.0,0.0,0.0,0.0,0.0,0.0,0.0,0.0,0.0,0.0,0.0,0.0,0.0,2.3149,2.3344,2.3769,2.3838,2.4043,2.4404,2.4414,2.4414,2.4414,2.4414,2.4414,2.4414,2.4414,2.4414,2.4424,2.4541,2.4982,2.5694,2.662,2.6707,2.638,2.8484,2.868,2.7589,2.7589,2.7494,2.722,2.611,2.5693,2.5693,2.5693,2.5693,2.5693,2.5693,2.5693,2.5693,2.5693,2.5693,2.5693,2.5693,2.5693,2.5693,2.5693,2.5693,2.5693,2.5693,2.5693,2.5693,2.5693,2.5693,2.5693,2.5693,2.5693,2.5693,2.5693,2.5693,2.5693,2.5693,2.5693,2.5693,2.5693,2.5693,2.5693,2.5693,2.5693,2.5693,2.5693,2.5693,2.5693,2.5693,2.5693,2.5693,2.5693,2.5693,2.5693,2.5693,2.5693,2.5693,2.5693,2.5693,2.5693,2.5693,2.5693,2.5693,1.3375,1.5762,1.8266,2.041,2.1855,2.2789,2.3042,2.3091,2.3149,2.3389,2.3428,2.3428,2.3428,0.0,0.0,0.0,0.0,0.0,0.0,0.0,0.0,0.0,0.0,0.0,0.0,0.0,0.0,0.0,2.3091,2.3179,2.3418,2.3428,2.3506,2.3656,2.3656,2.3656,2.3656,2.3656,2.3656,2.3656,2.3955,2.3935,2.3666,2.3955,2.4297,2.4763,2.5551,2.5677,2.5477,2.6775,2.702,2.6524,2.6524,2.6524,2.6476,2.5927,2.5693,2.5693,2.5693,2.5693,2.5693,2.5693,2.5693,2.5693,2.5693,2.5693,2.5693,2.5693,2.5693,2.5693,2.5693,2.5693,2.5693,2.5693,2.5693,2.5693,2.5693,2.5693,2.5693,2.5693,2.5693,2.5693,2.5693,2.5693,2.5693,2.5693,2.5693,2.5693,2.5693,2.5693,2.5693,2.5693,2.5693,2.5693,2.5693,2.5693,2.5693,2.5693,2.5693,2.5693,2.5693,2.5693,2.5693,2.5693,2.5693,2.5693,2.5693,2.5693,2.5693,2.5693,2.5693,2.5693,1.3336,1.5068,1.6824,1.9307,2.1211,2.2438,2.2438,2.2672,2.2896,0.0,2.3023,2.3091,0.0,0.0,0.0,0.0,0.0,0.0,0.0,0.0,0.0,0.0,0.0,0.0,0.0,0.0,0.0,0.0,2.3091,2.3091,2.3091,2.3091,2.3091,2.3091,2.3091,2.3091,2.3091,2.3091,2.3091,2.3101,2.3467,2.3457,2.311,2.3477,2.3799,2.4121,2.4551,2.491,2.5145,2.543,2.5586,2.5693,2.5693,2.5693,2.5693,2.5693,2.5693,2.5693,2.5693,2.5693,2.5693,2.5693,2.5693,2.5693,2.5693,2.5693,2.5693,2.5693,2.5693,2.5693,2.5693,2.5693,2.5693,2.5693,2.5693,2.5693,2.5693,2.5693,2.5693,2.5693,2.5693,2.5693,2.5693,2.5693,2.5693,2.5693,2.5693,2.5693,2.5693,2.5693,2.5693,2.5693,2.5693,2.5693,2.5693,2.5693,2.5693,2.5693,2.5693,2.5693,2.5693,2.5693,2.5693,2.5693,2.5693,2.5693,2.5693,2.5693,2.5693,2.5693,2.5693,2.5693,1.1699,1.2983,1.4562,1.7432,1.9434,2.0732,2.0732,2.1593,2.2373,2.2519,2.2818,2.3091,0.0,0.0,0.0,0.0,0.0,0.0,0.0,0.0,0.0,0.0,0.0,0.0,0.0,0.0,0.0,0.0,2.3091,2.3091,2.3091,2.3091,2.3091,2.3091,2.3091,2.3091,2.3091,2.3091,2.3091,2.3091,2.312,2.312,2.3091,2.312,2.314,2.3188,2.3662,2.4316,2.5116,2.5145,2.5352,2.5693,2.5693,2.5693,2.5693,2.5693,2.5693,2.5693,2.5693,2.5693,2.5693,2.5693,2.5693,2.5693,2.5693,2.5693,2.5693,2.5693,2.5693,2.5693,2.5693,2.5693,2.5693,2.5693,2.5693,2.5693,2.5693,2.5693,2.5693,2.5693,2.5693,2.5693,2.5693,2.5693,2.5693,2.5693,2.5693,2.5693,2.5693,2.5693,2.5693,2.5693,2.5693,2.5693,2.5693,2.5693,2.5693,2.5693,2.5693,2.5693,2.5693,2.5693,2.5693,2.5693,2.5693,2.5693,2.5693,2.5693,2.5693,2.5693,2.5693,2.5693,1.0645,1.1201,1.2168,1.4825,1.7236,1.8926,1.8926,2.0098,2.1398,2.1982,2.2441,0.0,0.0,0.0,0.0,0.0,0.0,0.0,0.0,0.0,0.0,0.0,0.0,0.0,0.0,0.0,0.0,0.0,0.0,2.3091,2.3091,2.3091,2.3091,2.3091,2.3091,2.3091,2.3091,2.3091,2.3091,2.3091,2.3091,2.3091,2.3091,2.3091,2.3091,2.3101,2.3257,2.3701,2.4268,2.4541,2.4912,2.5303,2.5303,2.5488,2.5693,2.5693,2.5693,2.5693,2.5693,2.5693,2.5693,2.5693,2.5693,2.5693,2.5693,2.5693,2.5693,2.5693,2.5693,2.5693,2.5693,2.5693,2.5693,2.5693,2.5693,2.5693,2.5693,2.5693,2.5693,2.5693,2.5693,2.5693,2.5693,2.5693,2.5693,2.5693,2.5693,2.5693,2.5693,2.5693,2.5693,2.5693,2.5693,2.5693,2.5693,2.5693,2.5693,2.5693,2.5693,2.5693,2.5693,2.5693,2.5693,2.5693,2.5693,2.5693,2.5693,2.5693,2.5693,2.5693,2.5693,2.5693,1.0156,1.0303,1.0977,1.3821,1.5723,1.709,1.8008,1.9219,2.0419,2.13,2.1904,0.0,0.0,0.0,0.0,0.0,0.0,0.0,0.0,0.0,0.0,0.0,0.0,0.0,0.0,0.0,0.0,0.0,0.0,0.0,2.3091,2.3091,2.3091,2.3091,2.3091,2.3091,2.3091,2.3091,2.3091,2.3091,2.3091,2.3091,2.3091,2.3091,2.3091,2.3091,2.3091,2.3389,2.3809,2.4092,2.4463,2.4863,2.4971,2.5195,2.543,2.5615,2.5693,2.5693,2.5693,2.5693,2.5693,2.5693,2.5693,2.5693,2.5693,2.5693,2.5693,2.5693,2.5693,2.5693,2.5693,2.5693,2.5693,2.5693,2.5693,2.5693,2.5693,2.5693,2.5693,2.5693,2.5693,2.5693,2.5693,2.5693,2.5693,2.5693,2.5693,2.5693,2.5693,2.5693,2.5693,2.5693,2.5693,2.5693,2.5693,2.5693,2.5693,2.5693,2.5693,2.5693,2.5693,2.5693,2.5693,2.5693,2.5693,2.5693,2.5693,2.5693,2.5693,2.5693,2.5693,2.5693,0.0,0.0,0.0,1.4453,1.4911,1.5224,1.7837,0.0,1.9451,2.0341,2.1222,0.0,0.0,0.0,0.0,0.0,0.0,0.0,0.0,0.0,0.0,0.0,0.0,0.0,0.0,0.0,0.0,0.0,2.3091,2.3091,2.3091,2.3091,2.3091,2.3091,2.3091,2.3091,2.3091,2.3091,2.3091,2.3091,2.3091,2.3091,2.3091,2.3091,2.3091,2.3091,2.3091,2.3379,2.3769,2.3769,2.4014,2.4424,2.4736,2.4863,2.4932,2.5527,2.5693,2.5693,2.5693,2.5693,2.5693,2.5693,2.5693,2.5693,2.5693,2.5693,2.5693,2.5693,2.5693,2.5693,2.5693,2.5693,2.5693,2.5693,2.5693,2.5693,2.5693,2.5693,2.5693,2.5693,2.5693,2.5693,2.5693,2.5693,2.5693,2.5693,2.5693,2.5693,2.5693,2.5693,2.5693,2.5693,2.5693,2.5693,2.5693,2.5693,2.5693,2.5693,2.5693,2.5693,2.5693,2.5693,2.5693,2.5693,2.5693,2.5693,2.5693,2.5693,2.5693,2.5693,2.5693,2.5693,0.9728,0.0,0.0,0.0,0.0,0.0,0.0,0.0,1.6543,1.834,0.0,0.0,0.0,0.0,0.0,0.0,0.0,0.0,0.0,0.0,0.0,0.0,0.0,0.0,0.0,0.0,0.0,0.0,2.3091,2.3091,2.3091,2.3091,2.3091,2.3091,2.3091,2.3091,2.3091,2.3091,2.3091,2.3091,2.3091,2.3091,2.3091,2.3091,2.3091,2.3091,2.3091,2.3169,2.3276,2.3276,2.3574,2.3975,2.4062,2.416,2.4375,2.5323,2.5693,2.5693,2.5693,2.5693,2.5693,2.5693,2.5693,2.5693,2.5693,2.5693,2.5693,2.5693,2.5693,2.5693,2.5693,2.5693,2.5693,2.5693,2.5693,2.5693,2.5693,2.5693,2.5693,2.5693,2.5693,2.5693,2.5693,2.5693,2.5693,2.5693,2.5693,2.5693,2.5693,2.5693,2.5693,2.5693,2.5693,2.5693,2.5693,2.5693,2.5693,2.5693,2.5693,2.5693,2.5693,2.5693,2.5693,2.5693,2.5693,2.5693,2.5693,2.5693,2.5693,2.5693,2.5693,2.5693,1.0225,1.0839,1.1589,1.1709,0.0,0.0,1.3936,1.4551,0.0,0.0,0.0,0.0,0.0,0.0,0.0,0.0,0.0,0.0,0.0,0.0,0.0,0.0,0.0,0.0,0.0,2.2935,2.2906,2.3081,2.3091,2.3091,2.3091,2.3091,2.3091,2.3091,2.3091,2.3091,2.3091,2.3091,2.3091,2.3091,2.3091,2.3091,2.3091,2.3091,2.3091,2.3091,2.3091,2.3091,2.3091,2.3091,2.3247,2.3516,2.3516,2.3574,2.3789,2.4951,2.5303,2.5187,2.5557,2.5693,2.5693,2.5693,2.5693,2.5693,2.5693,2.5693,2.5693,2.5693,2.5693,2.5693,2.5693,2.5693,2.5693,2.5693,2.5693,2.5693,2.5693,2.5693,2.5693,2.5693,2.5693,2.5693,2.5693,2.5693,2.5693,2.5693,2.5693,2.5693,2.5693,2.5693,2.5693,2.5693,2.5693,2.5693,2.5693,2.5693,2.4716,2.2475,2.2316,2.2316,2.2316,2.2316,2.2316,2.2316,2.4559,2.4559,2.2316,2.4609,2.5693,2.5693,2.5693,2.5693,1.1367,1.1716,1.2418,1.2734,1.2308,0.0,1.4492,1.4736,1.4961,0.0,0.0,0.0,0.0,0.0,0.0,0.0,0.0,0.0,0.0,0.0,0.0,0.0,0.0,0.0,2.2886,2.2656,2.2598,2.2925,2.2955,2.2955,2.2955,2.3003,2.3023,2.3023,2.3071,2.3091,2.3091,2.3091,2.3091,2.3091,2.3091,2.3091,2.3091,2.3091,2.3091,2.3091,2.3091,2.3091,2.3091,2.3091,2.3091,2.3091,2.3091,2.3091,2.3227,2.4365,2.459,2.4473,2.5294,2.5635,2.5693,2.5693,2.5693,2.5693,2.5693,2.5693,2.5693,2.5693,2.5693,2.5693,2.5693,2.5693,2.5693,2.5693,2.5693,2.5693,2.5693,2.5693,2.5693,2.5693,2.5693,2.5693,2.5693,2.5693,2.5693,2.5693,2.5693,2.5693,2.5693,2.5177,2.502,2.5635,2.5177,2.4815,2.4815,2.4815,2.2726,1.7891,1.7582,1.7582,1.7582,1.7582,1.7582,1.7582,2.2316,2.2425,1.7635,2.2475,2.4815,2.4815,2.543,2.5693,1.2725,1.2871,1.309,1.2486,0.0,0.0,1.2465,1.2529,1.2895,0.0,0.0,0.0,0.0,0.0,0.0,0.0,0.0,0.0,0.0,0.0,0.0,0.0,0.0,0.0,2.2119,2.206,2.2041,2.2129,2.2129,2.2129,2.2129,2.2451,2.2637,2.2637,2.2916,2.3091,2.3091,2.3091,2.3091,2.3091,2.3091,2.3091,2.3091,2.3091,2.3091,2.3091,2.3091,2.3091,2.3091,2.3091,2.3091,2.3091,2.3091,2.3091,2.3169,2.3789,2.3965,2.4023,2.4785,2.5352,2.5693,2.5693,2.5693,2.5693,2.5693,2.5693,2.5693,2.5693,2.5693,2.5693,2.5693,2.5693,2.5693,2.5693,2.5693,2.5693,2.5693,2.5693,2.5693,2.5693,2.5693,2.5693,2.5693,2.5693,2.5693,2.5693,2.5693,2.5693,2.5693,2.1862,2.0845,2.5226,2.1811,1.9169,1.9169,1.9169,1.8708,1.7687,1.7582,1.7582,1.7582,1.7582,1.7582,1.7582,1.8655,1.8655,1.7582,1.8655,1.9169,1.9265,2.3642,2.5693,1.374,1.3662,1.3685,1.3266,0.0,0.0,0.0,1.2496,1.2506,1.3613,1.3345,0.0,0.0,0.0,0.0,0.0,0.0,0.0,0.0,0.0,0.0,0.0,0.0,0.0,2.1523,2.1562,2.165,2.1865,2.1885,2.1885,2.1885,2.209,2.2197,2.2197,2.2607,2.2779,2.2779,2.2994,2.2818,2.2217,2.2217,2.2217,2.2217,2.2217,2.2536,2.3091,2.3091,2.3091,2.3091,2.3091,2.3091,2.3091,2.3091,2.3091,2.3159,2.3711,2.3711,2.3584,2.4375,2.5127,2.5693,2.5693,2.5693,2.5693,2.5693,2.5693,2.5693,2.5693,2.5693,2.5693,2.5693,2.5693,2.5693,2.5693,2.5693,2.5693,2.5693,2.3592,2.1659,2.1659,2.1659,2.1659,2.1659,2.1659,2.1659,2.1659,2.1659,2.1659,2.1659,1.9265,1.8655,2.1355,1.9213,1.7582,1.7582,1.7582,1.7582,1.7582,1.7582,1.7582,1.7582,1.7582,1.7582,1.7582,1.7582,1.7582,1.7582,1.7582,1.7582,1.7687,2.0385,2.1659,0.0,0.0,0.0,0.0,0.0,1.3652,0.0,0.0,0.0,1.3926,0.0,0.0,0.0,0.0,0.0,0.0,0.0,0.0,0.0,0.0,0.0,0.0,0.0,0.0,0.0,2.0625,2.0791,2.1348,2.1309,2.1338,2.1494,2.167,2.1768,2.1768,2.1948,2.2076,2.2076,2.2188,2.1801,2.0864,2.0864,2.0909,2.098,2.1203,2.1712,2.2413,2.2633,2.2633,2.2413,2.2413,2.2545,2.2775,2.3003,2.3091,2.3149,2.3672,2.35,2.3198,2.3926,2.4592,2.5245,2.5577,2.5693,2.5693,2.5693,2.5693,2.5693,2.5693,2.5693,2.5693,2.5693,2.4913,2.4156,2.4156,2.4156,2.4156,2.4156,2.0692,1.7582,1.7582,1.7582,1.7582,1.7582,1.7582,1.7582,1.7582,1.7582,1.7582,1.7582,1.7582,1.7582,1.7582,1.7582,1.7582,1.7582,1.7582,1.7582,1.7582,1.7582,1.7582,1.7582,1.7582,1.7582,1.7582,1.7582,1.7582,1.7582,1.7582,1.7582,1.7582,1.7582,1.7582,0.0,0.0,0.0,0.0,1.5508,0.0,0.0,0.0,1.3086,1.2175,0.0,0.0,0.0,0.0,0.0,0.0,0.0,0.0,0.0,0.0,0.0,0.0,0.0,0.0,0.0,1.8559,1.8711,1.9521,1.9228,1.9299,2.0098,2.0839,2.1268,2.1268,2.0763,2.0446,2.0446,1.9547,1.9176,1.9329,1.9329,1.9452,1.9716,2.08,2.08,1.9951,2.1025,2.089,1.9906,1.9906,2.0531,2.1614,2.2677,2.3091,2.3101,2.3169,2.3149,2.311,2.3208,2.3305,2.3647,2.5187,2.5693,2.5693,2.5693,2.5693,2.5693,2.5693,2.5693,2.5693,2.5693,2.2114,1.8499,1.8499,1.8499,1.8499,1.8499,1.8042,1.7582,1.7582,1.7582,1.7582,1.7582,1.7582,1.7582,1.7582,1.7582,1.7582,1.7582,1.7582,1.7582,1.7582,1.7582,1.7582,1.7582,1.7582,1.7582,1.7582,1.7582,1.7582,1.7582,1.7582,1.7582,1.7582,1.7582,1.7582,1.7582,1.7582,1.7582,1.7582,1.7582,1.7582,0.0,0.0,0.0,0.0,0.0,0.0,1.3714,0.0,1.2754,0.0,0.0,0.0,0.0,0.0,0.0,0.0,0.0,0.0,0.0,0.0,0.0,0.0,0.0,0.0,0.0,0.0,0.0,0.0,1.8379,1.8617,1.9502,2.0137,2.0586,2.084,2.0201,1.986,1.986,1.9033,1.8414,1.8008,1.8008,1.8159,1.8457,1.9001,1.9314,1.9542,2.0034,1.9988,1.9497,1.9497,2.0079,2.098,2.1489,2.2271,2.3091,2.3091,2.3091,2.3237,2.4251,2.4602,2.4719,2.545,2.5693,2.5693,2.5693,2.5693,2.5693,2.5693,2.3443,2.0998,2.0998,1.9317,1.7582,1.7582,1.7582,1.7582,1.7582,1.7582,1.7582,1.7582,1.7582,1.7582,1.7582,1.7582,1.7582,1.7582,1.7582,1.7582,1.7582,1.7582,1.7582,1.7582,1.7582,1.7582,1.7582,1.7582,1.7582,1.7582,1.7582,1.7582,1.7582,1.7582,1.7582,1.7582,1.7582,1.7582,1.7582,1.7582,1.7582,1.7582,1.7582,1.7582,1.7321,0.0,0.0,0.0,0.0,0.0,0.0,0.0,0.0,0.0,0.0,0.0,0.0,0.0,0.0,0.0,0.0,0.0,0.0,0.0,0.0,0.0,0.0,0.0,0.0,0.0,0.0,0.0,0.0,0.0,1.8877,1.9453,1.9941,2.0371,1.9783,1.93,1.8965,1.8288,1.7486,1.6592,1.6679,1.6851,1.7178,1.7552,1.8002,1.8488,1.8856,1.881,1.8488,1.8488,1.9039,1.9898,1.9988,2.1033,2.2501,2.295,2.3247,2.3656,2.5167,2.5693,2.5693,2.5693,2.5693,2.5693,2.5693,2.5693,2.5693,2.5693,2.1811,1.7582,1.7582,1.7582,1.7582,1.7582,1.7582,1.7582,1.7582,1.7582,1.7582,1.7582,1.7582,1.7582,1.7582,1.7582,1.7582,1.7582,1.7582,1.7582,1.7582,1.7582,1.7582,1.7582,1.7582,1.7582,1.7582,1.7582,1.7582,1.7582,1.7582,1.7582,1.7582,1.7582,1.7582,1.7582,1.7582,1.7582,1.7582,1.7582,1.7582,1.7582,1.7582,1.7582,0.0,0.0,0.0,1.6064,0.0,0.0,0.0,0.0,1.4482,0.0,0.0,0.0,0.0,0.0,1.3174,1.234,1.2213,0.0,0.0,0.0,0.0,0.0,0.0,0.0,0.0,0.0,0.0,0.0,0.0,0.0,1.7959,1.8848,1.9502,1.9922,1.9325,1.8487,1.7391,1.658,1.5821,1.5066,1.5349,1.5591,1.592,1.7131,1.7037,1.5967,1.7225,1.7037,1.592,1.592,1.6662,1.7824,1.8234,1.936,2.098,2.2545,2.3617,2.4512,2.5372,2.5693,2.5693,2.5693,2.5693,2.5693,2.5693,2.5693,2.5693,2.5693,2.1811,1.7582,1.7582,1.7582,1.7582,1.7582,1.7582,1.7582,1.7582,1.7582,1.7582,1.7582,1.7582,1.7582,1.7582,1.7582,1.7582,1.7582,1.7582,1.7582,1.7582,1.7582,1.7582,1.7582,1.7582,1.7582,1.7582,1.7582,1.7582,1.7582,1.7582,1.7582,1.7582,1.7582,1.7582,1.7582,1.7582,1.7582,1.7582,1.7582,1.7582,1.7582,1.7582,1.7582,0.0,0.0,1.9219,1.7217,0.0,0.0,0.0,0.0,0.0,0.0,0.0,0.0,0.0,0.0,1.332,1.2754,1.2168,1.1582,0.0,0.0,0.0,0.0,0.0,0.0,0.0,0.0,0.0,0.0,1.5176,0.0,0.0,1.8672,1.9482,1.9902,1.9307,1.8798,1.843,1.6711,1.5821,1.572,1.5315,1.5264,1.5551,1.6155,1.6204,1.5825,1.6251,1.6197,1.5784,1.5784,1.6062,1.648,1.6567,1.6976,1.7933,2.1721,2.3637,2.4541,2.5382,2.5693,2.5693,2.5693,2.5693,2.5693,2.5693,2.5693,2.5693,2.5693,2.1811,1.7582,1.7582,1.7582,1.7582,1.7582,1.7582,1.7582,1.7582,1.7582,1.7582,1.7582,1.7582,1.7582,1.7582,1.7582,1.7582,1.7582,1.7582,1.7582,1.7582,1.7582,1.7582,1.7582,1.7582,1.7582,1.7582,1.7582,1.7582,1.7582,1.7582,1.7582,1.7582,1.7582,1.7582,1.7582,1.7582,1.7582,1.7582,1.7582,1.7582,1.7582,1.7582,1.7582,2.0029,2.0088,0.0,1.8037,1.7393,0.0,1.4952,0.0,0.0,0.0,0.0,0.0,0.0,0.0,1.3818,1.3398,1.2471,1.1565,0.0,1.0811,0.0,0.0,0.0,0.0,0.0,0.0,1.3535,1.428,1.4453,0.0,0.0,0.0,1.9102,1.9678,1.962,1.9402,1.8997,1.7662,1.6893,1.6699,1.6044,1.5781,1.5982,1.5832,1.5784,1.5784,1.5784,1.5784,1.5784,1.5784,1.5784,1.5784,1.5784,1.5784,1.6285,2.0305,2.3,2.4697,2.5421,2.5693,2.5693,2.5693,2.5693,2.5693,2.5693,2.5693,2.5693,2.5693,2.1811,1.7582,1.7582,1.7582,1.7582,1.7582,1.7582,1.7582,1.7582,1.7582,1.7582,1.7582,1.7582,1.7582,1.7582,1.7582,1.7582,1.7582,1.7582,1.7582,1.7582,1.7582,1.7582,1.7582,1.7582,1.7582,1.7582,1.7582,1.7582,1.7582,1.7582,1.7582,1.7582,1.7582,1.7582,1.7582,1.7582,1.7582,1.7582,1.7582,1.7582,1.7582,1.7582,1.7582]}]]